[[{"header":{"parameterUnit":"m.s-1","parameterCategory":1,"la1":31.0,"la2":29.5877,"lo1":-88.7671,"lo2":-86.6584,"dy":0.0162,"dx":0.0185,"nx":115,"ny":88,"refTime":"2023-10-19T06:00:00:Z","depth":0,"parameterNumber":2,"parameterNumberName":"U-component_of_WINDS"},"data":[0.0,0.0,0.0,0.0,0.0,0.0,0.0,0.0,0.0,0.0,0.0,0.0,0.0,0.0,0.0,0.0,0.0,0.0,0.0,0.0,0.0,0.0,0.0,0.0,0.0,0.0,0.0,0.0,0.0,0.0,0.0,0.0,0.0,0.0,0.0,0.0,0.0,0.0,0.0,0.0,0.0,0.0,0.0,0.0,0.0,0.0,0.0,0.0,0.0,0.0,0.0,0.0,0.0,0.0,0.0,0.0,0.0,0.0,0.0,0.0,0.0,0.0,0.0,0.0,0.0,0.0,0.0,0.0,0.0,0.0,0.0,0.0,0.0,0.0,0.0,0.0,0.0,0.0,0.0,0.0,0.0,0.0,0.0,0.0,0.0,0.0,0.0,0.0,0.0,0.0,0.0,0.0,0.0,0.0,0.0,0.0,0.0,0.0,0.0,0.0,0.0,0.0,0.0,0.0,0.0,0.0,0.0,0.0,0.0,0.0,0.0,0.0,0.0,0.0,0.0,0.0,0.0,0.0,0.0,0.0,0.0,0.0,0.0,0.0,0.0,0.0,0.0,0.0,0.0,0.0,0.0,0.0,0.0,0.0,0.0,0.0,0.0,0.0,0.0,0.0,0.0,0.0,0.0,0.0,0.0,0.0,0.0,0.0,0.0,0.0,0.0,0.0,0.0,0.0,0.0,0.0,0.0,0.0,0.0,0.0,0.0,0.0,0.0,0.0,0.0,0.0,0.0,0.0,0.0,0.0,0.0,0.0,0.0,0.0,0.0,0.0,0.0,0.0,0.0,0.0,0.0,0.0,0.0,0.0,0.0,0.0,0.0,0.0,0.0,0.0,0.0,0.0,0.0,0.0,0.0,0.0,0.0,0.0,0.0,0.0,0.0,0.0,0.0,0.0,0.0,0.0,0.0,0.0,0.0,0.0,0.0,0.0,0.0,0.0,0.0,0.0,0.0,0.0,0.0,0.0,0.0,0.0,0.0,0.0,0.0,0.0,0.0,0.0,0.0,0.0,0.0,0.0,0.0,0.0,0.0,0.0,0.0,0.0,0.0,0.0,0.0,0.0,0.0,0.0,0.0,0.0,0.0,0.0,0.0,0.0,0.0,0.0,0.0,0.0,0.0,0.0,0.0,0.0,0.0,0.0,0.0,0.0,0.0,0.0,0.0,0.0,0.0,0.0,0.0,0.0,0.0,0.0,0.0,0.0,0.0,0.0,0.0,0.0,0.0,0.0,0.0,0.0,0.0,0.0,0.0,0.0,0.0,0.0,0.0,0.0,0.0,0.0,0.0,0.0,0.0,0.0,0.0,0.0,0.0,0.0,0.0,0.0,0.0,0.0,0.0,0.0,0.0,0.0,0.0,0.0,0.0,0.0,0.0,0.0,0.0,0.0,0.0,0.0,0.0,0.0,0.0,0.0,0.0,0.0,0.0,0.0,0.0,0.0,0.0,0.0,0.0,0.0,0.0,0.0,0.0,0.0,0.0,0.0,0.0,0.0,0.0,0.0,0.0,0.0,0.0,0.0,0.0,0.0,0.0,0.0,0.0,0.0,0.0,0.0,0.0,0.0,0.0,0.0,0.0,0.0,0.0,0.0,0.0,0.0,0.0,0.0,0.0,0.0,0.0,0.0,0.0,0.0,0.0,0.0,0.0,0.0,0.0,0.0,0.0,0.0,0.0,0.0,0.0,0.0,0.0,0.0,0.0,0.0,0.0,0.0,0.0,0.0,0.0,0.0,0.0,0.0,0.0,0.0,0.0,0.0,0.0,0.0,0.0,0.0,0.0,0.0,0.0,0.0,0.0,0.0,0.0,0.0,0.0,0.0,0.0,0.0,0.0,0.0,0.0,0.0,0.0,0.0,0.0,0.0,0.0,0.0,0.0,0.0,0.0,0.0,0.0,0.0,0.0,0.0,0.0,0.0,0.0,0.0,0.0,0.0,0.0,0.0,0.0,0.0,0.0,0.0,0.0,0.0,0.0,0.0,0.0,0.0,0.0,0.0,0.0,0.0,0.0,0.0,0.0,0.0,0.0,0.0,0.0,0.0,0.0,0.0,0.0,0.0,0.0,0.0,0.0,0.0,0.0,0.0,0.0,0.0,0.0,0.0,0.0,0.0,0.0,0.0,0.0,0.0,0.0,0.0,0.0,0.0,0.0,0.0,0.0,0.0,0.0,0.0,0.0,0.0,0.0,0.0,0.0,0.0,0.0,0.0,0.0,0.0,0.0,0.0,0.0,0.0,0.0,0.0,0.0,0.0,0.0,0.0,0.0,0.0,0.0,0.0,0.0,0.0,0.0,0.0,0.0,0.0,0.0,0.0,0.0,0.0,0.0,0.0,0.0,0.0,0.0,0.0,0.0,0.0,0.0,0.0,0.0,0.0,0.0,0.0,0.0,0.0,0.0,0.0,0.0,0.0,0.0,0.0,0.0,0.0,0.0,0.0,0.0,0.0,0.0,0.0,0.0,0.0,0.0,0.0,0.0,0.0,0.0,0.0,0.0,0.0,0.0,0.0,0.0,0.0,0.0,0.0,0.0,0.0,0.0,0.0,0.0,0.0,0.0,0.0,0.0,0.0,0.0,0.0,0.0,0.0,0.0,0.0,0.0,0.0,0.0,0.0,0.0,0.0,0.0,0.0,0.0,0.0,0.0,0.0,0.0,0.0,0.0,0.0,0.0,0.0,0.0,0.0,0.0,0.0,0.0,0.0,0.0,0.0,0.0,0.0,0.0,0.0,0.0,0.0,0.0,0.0,0.0,0.0,0.0,0.0,0.0,0.0,0.0,0.0,0.0,0.0,0.0,0.0,0.0,0.0,0.0,0.0,0.0,0.0,0.0,0.0,0.0,0.0,0.0,0.0,0.0,0.0,0.0,0.0,0.0,0.0,0.0,0.0,0.0,0.0,0.0,0.0,0.0,0.0,0.0,0.0,0.0,0.0,0.0,0.0,0.0,0.0,0.0,0.0,0.0,0.0,0.0,0.0,0.0,0.0,0.0,0.0,0.0,0.0,0.0,0.0,0.0,0.0,0.0,0.0,0.0,0.0,0.0,0.0,0.0,0.0,0.0,0.0,0.0,0.0,0.0,0.0,0.0,0.0,0.0,0.0,0.0,0.0,0.0,0.0,0.0,0.0,0.0,0.0,0.0,0.0,0.0,0.0,0.0,0.0,0.0,0.0,0.0,0.0,0.0,0.0,0.0,0.0,0.0,0.0,0.0,0.0,0.0,0.0,0.0,0.0,0.0,0.0,0.0,0.0,0.0,0.0,0.0,0.0,0.0,0.0,0.0,0.0,0.0,0.0,0.0,0.0,0.0,0.0,0.0,0.0,0.0,0.0,0.0,0.0,0.0,0.0,0.0,0.0,0.0,0.0,0.0,0.0,0.0,0.0,0.0,0.0,0.0,0.0,0.0,0.0,0.0,0.0,0.0,0.0,0.0,0.0,0.0,0.0,0.0,0.0,0.0,0.0,0.0,0.0,0.0,0.0,0.0,0.0,0.0,0.0,0.0,0.0,0.0,0.0,0.0,0.0,0.0,0.0,0.0,0.0,0.0,0.0,0.0,0.0,0.0,0.0,0.0,0.0,0.0,0.0,0.0,0.0,0.0,0.0,0.0,0.0,0.0,0.0,0.0,0.0,0.0,0.0,0.0,0.0,0.0,0.0,0.0,0.0,0.0,0.0,0.0,0.0,0.0,0.0,0.0,0.0,0.0,0.0,0.0,0.0,0.0,0.0,0.0,0.0,0.0,0.0,0.0,0.0,0.0,0.0,0.0,0.0,0.0,0.0,0.0,0.0,0.0,0.0,0.0,0.0,0.0,0.0,0.0,0.0,0.0,0.0,0.0,0.0,0.0,0.0,0.0,0.0,0.0,0.0,0.0,0.0,0.0,0.0,0.0,0.0,0.0,0.0,0.0,0.0,0.0,0.0,0.0,0.0,0.0,0.0,0.0,0.0,0.0,0.0,0.0,0.0,0.0,0.0,0.0,0.0,0.0,0.0,0.0,0.0,0.0,0.0,0.0,0.0,0.0,0.0,0.0,0.0,0.0,0.0,0.0,0.0,0.0,0.0,0.0,0.0,0.0,0.0,0.0,0.0,0.0,0.0,0.0,0.0,0.0,0.0,0.0,0.0,0.0,0.0,0.0,0.0,0.0,0.0,0.0,0.0,0.0,0.0,0.0,0.0,0.0,0.0,0.0,0.0,0.0,0.0,0.0,0.0,0.0,0.0,0.0,0.0,0.0,0.0,0.0,0.0,0.0,0.0,3.3807,0.0,0.0,0.0,0.0,0.0,0.0,0.0,0.0,0.0,0.0,0.0,0.0,0.0,0.0,0.0,0.0,0.0,0.0,0.0,0.0,0.0,0.0,0.0,0.0,0.0,0.0,0.0,0.0,0.0,0.0,0.0,0.0,0.0,0.0,0.0,0.0,0.0,0.0,0.0,0.0,0.0,0.0,0.0,0.0,0.0,0.0,0.0,0.0,0.0,0.0,0.0,0.0,0.0,0.0,0.0,0.0,0.0,0.0,0.0,0.0,0.0,0.0,0.0,0.0,0.0,0.0,0.0,0.0,0.0,0.0,0.0,0.0,0.0,0.0,0.0,0.0,0.0,0.0,0.0,0.0,0.0,0.0,0.0,0.0,0.0,0.0,0.0,0.0,0.0,0.0,0.0,0.0,0.0,0.0,0.0,0.0,0.0,0.0,0.0,0.0,0.0,0.0,0.0,0.0,0.0,0.0,0.0,0.0,0.0,0.0,3.3807,3.3807,3.3807,3.3807,3.3807,0.0,0.0,0.0,0.0,0.0,0.0,0.0,0.0,0.0,0.0,0.0,0.0,0.0,0.0,0.0,0.0,0.0,0.0,0.0,0.0,0.0,0.0,0.0,0.0,0.0,0.0,0.0,0.0,0.0,0.0,0.0,0.0,0.0,0.0,0.0,0.0,0.0,0.0,0.0,0.0,0.0,0.0,0.0,0.0,0.0,0.0,0.0,0.0,0.0,0.0,0.0,0.0,0.0,0.0,0.0,0.0,0.0,0.0,0.0,0.0,0.0,0.0,0.0,0.0,0.0,0.0,0.0,0.0,0.0,0.0,0.0,0.0,0.0,0.0,0.0,0.0,0.0,0.0,0.0,0.0,0.0,0.0,0.0,0.0,0.0,0.0,0.0,0.0,0.0,0.0,0.0,0.0,0.0,0.0,0.0,0.0,0.0,0.0,0.0,0.0,0.0,0.0,0.0,0.0,0.0,0.0,0.0,0.0,0.0,0.0,0.0,0.0,3.3807,3.3807,3.3834,0.0,0.0,0.0,0.0,0.0,0.0,0.0,0.0,0.0,0.0,0.0,0.0,0.0,0.0,0.0,0.0,0.0,0.0,0.0,0.0,0.0,0.0,0.0,0.0,0.0,0.0,0.0,0.0,0.0,0.0,0.0,0.0,0.0,0.0,0.0,0.0,0.0,0.0,0.0,0.0,0.0,0.0,0.0,0.0,0.0,0.0,0.0,0.0,0.0,0.0,0.0,0.0,0.0,0.0,0.0,0.0,0.0,0.0,0.0,0.0,0.0,0.0,0.0,0.0,0.0,0.0,0.0,0.0,0.0,0.0,0.0,0.0,0.0,0.0,0.0,0.0,0.0,0.0,0.0,0.0,0.0,0.0,0.0,0.0,0.0,0.0,0.0,0.0,0.0,0.0,0.0,0.0,0.0,0.0,0.0,0.0,0.0,0.0,0.0,0.0,0.0,0.0,0.0,0.0,0.0,0.0,0.0,0.0,0.0,0.0,3.3807,3.3807,3.3807,0.0,3.3895,0.0,0.0,0.0,0.0,0.0,0.0,0.0,0.0,0.0,0.0,0.0,0.0,0.0,0.0,0.0,0.0,0.0,0.0,0.0,0.0,0.0,0.0,0.0,0.0,0.0,0.0,0.0,0.0,0.0,0.0,0.0,0.0,0.0,0.0,0.0,0.0,0.0,0.0,0.0,0.0,0.0,0.0,0.0,0.0,0.0,0.0,0.0,0.0,0.0,0.0,0.0,0.0,0.0,0.0,0.0,0.0,0.0,0.0,0.0,0.0,0.0,0.0,0.0,0.0,0.0,0.0,0.0,0.0,0.0,0.0,0.0,0.0,0.0,0.0,0.0,0.0,0.0,0.0,0.0,0.0,0.0,0.0,0.0,0.0,0.0,0.0,0.0,0.0,0.0,0.0,0.0,0.0,0.0,0.0,0.0,0.0,0.0,0.0,0.0,0.0,0.0,0.0,0.0,0.0,0.0,0.0,0.0,0.0,0.0,0.0,3.3807,3.3807,3.3807,3.3834,0.0,0.0,0.0,0.0,0.0,0.0,0.0,0.0,0.0,0.0,0.0,0.0,0.0,0.0,0.0,0.0,0.0,0.0,0.0,0.0,0.0,0.0,0.0,0.0,0.0,0.0,0.0,0.0,0.0,0.0,0.0,0.0,0.0,0.0,0.0,0.0,0.0,0.0,0.0,0.0,0.0,0.0,0.0,0.0,0.0,0.0,0.0,0.0,0.0,0.0,0.0,0.0,0.0,0.0,0.0,0.0,0.0,0.0,0.0,0.0,0.0,0.0,0.0,0.0,0.0,0.0,0.0,0.0,0.0,0.0,0.0,0.0,0.0,0.0,0.0,0.0,0.0,0.0,0.0,0.0,0.0,0.0,0.0,0.0,0.0,0.0,0.0,0.0,0.0,0.0,0.0,0.0,0.0,0.0,0.0,0.0,0.0,0.0,0.0,0.0,0.0,0.0,0.0,0.0,0.0,0.0,0.0,0.0,0.0,0.0,3.3807,3.3807,3.3807,3.3815,3.3842,3.3939,0.0,0.0,0.0,0.0,0.0,0.0,0.0,0.0,0.0,0.0,0.0,0.0,0.0,0.0,0.0,0.0,0.0,0.0,0.0,0.0,0.0,0.0,0.0,0.0,0.0,0.0,0.0,0.0,0.0,0.0,0.0,0.0,0.0,0.0,0.0,0.0,0.0,0.0,0.0,0.0,0.0,0.0,0.0,0.0,0.0,0.0,0.0,0.0,0.0,0.0,0.0,0.0,0.0,0.0,0.0,0.0,0.0,0.0,0.0,0.0,0.0,0.0,0.0,0.0,0.0,0.0,0.0,0.0,0.0,0.0,0.0,0.0,0.0,0.0,0.0,0.0,0.0,0.0,0.0,0.0,0.0,0.0,0.0,0.0,0.0,0.0,0.0,0.0,0.0,0.0,0.0,0.0,0.0,0.0,0.0,0.0,0.0,0.0,0.0,0.0,0.0,0.0,0.0,0.0,0.0,0.0,0.0,0.0,3.3807,3.3807,3.3807,3.3807,3.3887,3.3939,0.0,0.0,0.0,0.0,0.0,0.0,0.0,0.0,0.0,0.0,0.0,0.0,0.0,0.0,0.0,0.0,0.0,0.0,0.0,0.0,0.0,0.0,0.0,0.0,0.0,0.0,0.0,0.0,0.0,0.0,0.0,0.0,0.0,0.0,0.0,0.0,0.0,0.0,0.0,0.0,0.0,0.0,0.0,0.0,0.0,0.0,0.0,0.0,0.0,0.0,0.0,0.0,0.0,0.0,0.0,0.0,0.0,0.0,0.0,0.0,0.0,0.0,0.0,0.0,0.0,0.0,0.0,0.0,0.0,0.0,0.0,0.0,0.0,0.0,0.0,0.0,0.0,0.0,0.0,0.0,0.0,0.0,0.0,0.0,0.0,0.0,0.0,0.0,0.0,0.0,0.0,0.0,0.0,0.0,0.0,0.0,0.0,0.0,0.0,0.0,0.0,0.0,0.0,0.0,0.0,0.0,0.0,0.0,0.0,3.3868,3.3895,3.3921,3.3921,3.3947,3.3998,0.0,0.0,0.0,0.0,0.0,0.0,0.0,0.0,0.0,0.0,0.0,0.0,0.0,0.0,0.0,0.0,0.0,0.0,0.0,0.0,0.0,0.0,0.0,0.0,0.0,0.0,0.0,0.0,0.0,0.0,0.0,0.0,0.0,0.0,0.0,0.0,0.0,0.0,0.0,0.0,0.0,0.0,0.0,0.0,0.0,0.0,0.0,0.0,0.0,0.0,0.0,0.0,0.0,0.0,0.0,0.0,0.0,0.0,0.0,0.0,0.0,0.0,0.0,0.0,0.0,0.0,0.0,0.0,0.0,0.0,0.0,0.0,0.0,0.0,0.0,0.0,0.0,0.0,0.0,0.0,0.0,0.0,0.0,0.0,0.0,0.0,0.0,0.0,0.0,0.0,0.0,0.0,0.0,0.0,0.0,0.0,0.0,0.0,0.0,0.0,0.0,0.0,0.0,0.0,0.0,0.0,0.0,0.0,0.0,3.3991,0.0,3.4023,3.4023,3.4049,3.4092,0.0,0.0,0.0,0.0,0.0,0.0,0.0,0.0,0.0,0.0,0.0,0.0,0.0,0.0,0.0,0.0,0.0,0.0,0.0,0.0,0.0,0.0,0.0,0.0,0.0,0.0,0.0,0.0,0.0,0.0,0.0,0.0,0.0,0.0,0.0,0.0,0.0,0.0,0.0,0.0,0.0,0.0,0.0,0.0,0.0,0.0,0.0,0.0,0.0,0.0,0.0,0.0,0.0,0.0,0.0,0.0,0.0,0.0,0.0,0.0,0.0,0.0,0.0,0.0,0.0,0.0,0.0,0.0,0.0,0.0,0.0,0.0,0.0,0.0,0.0,0.0,0.0,0.0,0.0,0.0,0.0,0.0,0.0,0.0,0.0,0.0,0.0,0.0,0.0,0.0,0.0,0.0,0.0,0.0,0.0,0.0,0.0,0.0,0.0,0.0,0.0,0.0,0.0,0.0,0.0,0.0,0.0,0.0,3.3972,3.408,3.4099,3.4124,3.4105,3.4173,3.4173,0.0,0.0,0.0,0.0,0.0,0.0,0.0,0.0,0.0,0.0,0.0,0.0,0.0,0.0,0.0,0.0,0.0,0.0,0.0,0.0,0.0,0.0,0.0,0.0,0.0,0.0,0.0,0.0,0.0,0.0,0.0,0.0,0.0,0.0,0.0,0.0,0.0,0.0,0.0,0.0,0.0,0.0,0.0,0.0,0.0,0.0,0.0,0.0,0.0,0.0,0.0,0.0,0.0,0.0,0.0,0.0,0.0,0.0,0.0,0.0,0.0,0.0,0.0,0.0,0.0,0.0,0.0,0.0,0.0,0.0,0.0,0.0,0.0,0.0,0.0,0.0,0.0,0.0,0.0,0.0,0.0,0.0,0.0,0.0,0.0,0.0,0.0,0.0,0.0,0.0,0.0,0.0,0.0,0.0,0.0,0.0,0.0,0.0,0.0,0.0,0.0,0.0,0.0,0.0,0.0,0.0,0.0,0.0,0.0,3.4227,3.4293,3.4335,3.4363,3.4358,3.4293,0.0,0.0,0.0,0.0,0.0,0.0,0.0,0.0,0.0,0.0,0.0,0.0,0.0,0.0,0.0,0.0,0.0,0.0,0.0,0.0,0.0,0.0,0.0,0.0,0.0,0.0,0.0,0.0,0.0,0.0,0.0,0.0,0.0,0.0,0.0,0.0,0.0,0.0,0.0,0.0,0.0,0.0,0.0,0.0,0.0,0.0,0.0,0.0,0.0,0.0,0.0,0.0,0.0,0.0,0.0,0.0,0.0,0.0,0.0,0.0,0.0,0.0,0.0,0.0,0.0,0.0,0.0,0.0,0.0,0.0,0.0,0.0,0.0,0.0,0.0,0.0,0.0,0.0,0.0,0.0,0.0,0.0,0.0,0.0,0.0,0.0,0.0,0.0,0.0,0.0,0.0,0.0,0.0,0.0,0.0,0.0,0.0,0.0,0.0,0.0,0.0,0.0,0.0,0.0,0.0,0.0,0.0,0.0,0.0,3.4542,3.4524,3.4564,3.4607,3.4542,3.4476,3.4381,0.0,0.0,0.0,0.0,0.0,0.0,0.0,0.0,0.0,0.0,0.0,0.0,0.0,0.0,0.0,0.0,0.0,0.0,0.0,0.0,0.0,0.0,0.0,0.0,0.0,0.0,0.0,0.0,0.0,0.0,0.0,0.0,0.0,0.0,0.0,0.0,0.0,0.0,0.0,0.0,0.0,0.0,0.0,0.0,0.0,0.0,0.0,0.0,0.0,0.0,0.0,0.0,0.0,0.0,0.0,0.0,0.0,0.0,0.0,0.0,0.0,0.0,0.0,0.0,0.0,0.0,0.0,0.0,0.0,0.0,0.0,0.0,0.0,0.0,0.0,0.0,0.0,0.0,0.0,0.0,0.0,0.0,0.0,0.0,0.0,0.0,0.0,0.0,0.0,0.0,0.0,0.0,0.0,0.0,0.0,0.0,0.0,0.0,0.0,0.0,0.0,0.0,0.0,0.0,0.0,0.0,0.0,0.0,3.4927,3.487,3.4831,3.4812,3.4753,3.4651,0.0,0.0,0.0,0.0,0.0,0.0,0.0,0.0,0.0,0.0,0.0,0.0,0.0,0.0,0.0,0.0,0.0,0.0,0.0,0.0,0.0,0.0,0.0,0.0,0.0,0.0,0.0,0.0,0.0,0.0,0.0,0.0,0.0,0.0,0.0,0.0,0.0,0.0,0.0,0.0,0.0,0.0,0.0,0.0,0.0,0.0,0.0,0.0,0.0,0.0,0.0,0.0,0.0,0.0,0.0,0.0,0.0,0.0,0.0,0.0,0.0,0.0,0.0,0.0,0.0,0.0,0.0,0.0,0.0,0.0,0.0,0.0,0.0,0.0,0.0,0.0,0.0,0.0,0.0,0.0,0.0,0.0,0.0,0.0,0.0,0.0,0.0,0.0,0.0,0.0,0.0,0.0,0.0,0.0,0.0,0.0,0.0,0.0,0.0,0.0,0.0,0.0,0.0,0.0,0.0,0.0,0.0,0.0,0.0,3.5035,3.5119,3.5102,3.5016,3.4889,3.4773,0.0,0.0,0.0,0.0,0.0,0.0,0.0,0.0,0.0,0.0,0.0,0.0,0.0,0.0,0.0,0.0,0.0,0.0,0.0,0.0,0.0,0.0,0.0,0.0,0.0,0.0,0.0,0.0,0.0,0.0,0.0,0.0,0.0,0.0,0.0,0.0,0.0,0.0,0.0,0.0,0.0,0.0,0.0,0.0,0.0,0.0,0.0,0.0,0.0,0.0,0.0,0.0,0.0,0.0,0.0,0.0,0.0,0.0,0.0,0.0,0.0,0.0,0.0,0.0,0.0,0.0,0.0,0.0,0.0,0.0,0.0,0.0,0.0,0.0,0.0,0.0,0.0,0.0,0.0,0.0,0.0,0.0,0.0,0.0,0.0,0.0,0.0,0.0,0.0,0.0,0.0,0.0,0.0,0.0,0.0,0.0,0.0,0.0,0.0,0.0,0.0,0.0,0.0,0.0,0.0,0.0,0.0,0.0,3.4981,3.5122,3.5285,3.5369,3.5254,3.5089,3.4908,0.0,0.0,0.0,0.0,0.0,0.0,0.0,0.0,0.0,0.0,0.0,0.0,0.0,0.0,0.0,0.0,0.0,0.0,0.0,0.0,0.0,0.0,0.0,0.0,0.0,0.0,0.0,0.0,0.0,0.0,0.0,0.0,0.0,0.0,0.0,0.0,0.0,0.0,0.0,0.0,0.0,0.0,0.0,0.0,0.0,0.0,0.0,0.0,0.0,0.0,0.0,0.0,0.0,0.0,0.0,0.0,0.0,0.0,0.0,0.0,0.0,0.0,0.0,0.0,0.0,0.0,0.0,0.0,0.0,0.0,0.0,0.0,0.0,0.0,0.0,0.0,0.0,0.0,0.0,0.0,0.0,0.0,0.0,0.0,0.0,0.0,0.0,0.0,0.0,0.0,0.0,0.0,0.0,0.0,0.0,0.0,0.0,0.0,0.0,0.0,0.0,0.0,0.0,0.0,0.0,0.0,0.0,0.0,3.5122,3.5226,3.5369,3.546,3.5446,3.5223,3.5054,0.0,0.0,0.0,0.0,0.0,0.0,0.0,0.0,0.0,0.0,0.0,0.0,0.0,0.0,0.0,0.0,0.0,0.0,0.0,0.0,0.0,0.0,0.0,0.0,0.0,0.0,0.0,0.0,0.0,0.0,0.0,0.0,0.0,0.0,0.0,0.0,0.0,0.0,0.0,0.0,0.0,0.0,0.0,0.0,0.0,0.0,0.0,0.0,0.0,0.0,0.0,0.0,0.0,0.0,0.0,0.0,0.0,0.0,0.0,0.0,0.0,0.0,0.0,0.0,0.0,0.0,0.0,0.0,0.0,0.0,0.0,0.0,0.0,0.0,0.0,0.0,0.0,0.0,0.0,0.0,0.0,0.0,0.0,0.0,0.0,0.0,0.0,0.0,0.0,0.0,0.0,0.0,0.0,0.0,0.0,0.0,0.0,0.0,0.0,0.0,0.0,0.0,0.0,0.0,0.0,0.0,0.0,0.0,3.5155,3.5285,3.5273,3.5258,3.5258,3.5157,3.5051,0.0,0.0,0.0,0.0,0.0,0.0,0.0,0.0,0.0,0.0,0.0,0.0,0.0,0.0,0.0,0.0,0.0,0.0,0.0,0.0,0.0,0.0,0.0,0.0,0.0,0.0,0.0,0.0,0.0,0.0,0.0,0.0,0.0,0.0,0.0,0.0,0.0,0.0,0.0,0.0,0.0,0.0,0.0,0.0,0.0,0.0,0.0,0.0,3.5229,0.0,0.0,0.0,0.0,0.0,0.0,0.0,0.0,0.0,0.0,0.0,0.0,0.0,0.0,0.0,0.0,0.0,0.0,0.0,0.0,0.0,0.0,0.0,0.0,0.0,0.0,0.0,0.0,0.0,0.0,0.0,0.0,0.0,0.0,0.0,0.0,0.0,0.0,0.0,0.0,0.0,0.0,0.0,0.0,0.0,0.0,0.0,0.0,0.0,0.0,0.0,0.0,0.0,0.0,0.0,0.0,0.0,0.0,0.0,3.5157,3.5152,3.519,3.5141,3.5072,3.4926,3.4889,0.0,0.0,0.0,0.0,0.0,0.0,0.0,0.0,0.0,0.0,0.0,0.0,0.0,0.0,0.0,0.0,0.0,0.0,0.0,0.0,0.0,0.0,0.0,0.0,0.0,0.0,0.0,0.0,0.0,0.0,0.0,0.0,0.0,0.0,0.0,0.0,0.0,0.0,0.0,0.0,0.0,0.0,0.0,0.0,0.0,0.0,0.0,0.0,0.0,0.0,0.0,0.0,0.0,0.0,0.0,0.0,0.0,0.0,0.0,0.0,0.0,0.0,0.0,0.0,0.0,0.0,0.0,0.0,0.0,0.0,0.0,0.0,0.0,0.0,0.0,0.0,0.0,0.0,0.0,0.0,0.0,0.0,0.0,0.0,0.0,0.0,0.0,0.0,0.0,0.0,0.0,0.0,0.0,0.0,0.0,0.0,0.0,0.0,0.0,0.0,0.0,0.0,0.0,0.0,0.0,0.0,0.0,3.507,3.5141,3.5034,3.5105,3.5054,3.4851,3.4632,3.4569,3.4632,0.0,0.0,0.0,0.0,0.0,0.0,0.0,0.0,0.0,0.0,0.0,0.0,0.0,0.0,0.0,0.0,0.0,0.0,0.0,0.0,0.0,0.0,0.0,0.0,0.0,0.0,0.0,0.0,0.0,0.0,0.0,0.0,0.0,0.0,0.0,0.0,0.0,0.0,3.4809,3.4908,0.0,0.0,0.0,0.0,0.0,0.0,0.0,0.0,3.5191,0.0,0.0,0.0,0.0,0.0,0.0,0.0,0.0,0.0,0.0,0.0,0.0,0.0,0.0,0.0,0.0,0.0,0.0,0.0,0.0,0.0,0.0,0.0,0.0,0.0,0.0,0.0,0.0,0.0,0.0,0.0,0.0,0.0,0.0,0.0,0.0,0.0,0.0,0.0,0.0,0.0,0.0,0.0,0.0,0.0,0.0,0.0,0.0,0.0,0.0,0.0,0.0,0.0,0.0,0.0,0.0,3.4962,3.5051,3.5122,3.5176,3.5018,3.4851,3.4666,3.4409,3.4316,3.4363,0.0,0.0,0.0,0.0,0.0,0.0,0.0,0.0,0.0,0.0,0.0,0.0,0.0,0.0,0.0,0.0,0.0,0.0,0.0,0.0,0.0,0.0,0.0,0.0,0.0,0.0,0.0,0.0,0.0,0.0,0.0,0.0,0.0,0.0,0.0,0.0,0.0,0.0,0.0,3.4908,3.4964,0.0,0.0,0.0,0.0,0.0,0.0,0.0,0.0,3.6385,0.0,0.0,0.0,0.0,0.0,0.0,0.0,0.0,0.0,0.0,0.0,0.0,0.0,0.0,0.0,0.0,0.0,0.0,0.0,0.0,0.0,0.0,0.0,0.0,0.0,0.0,0.0,0.0,0.0,0.0,0.0,0.0,0.0,0.0,0.0,0.0,0.0,0.0,0.0,0.0,0.0,0.0,0.0,0.0,0.0,0.0,0.0,0.0,0.0,0.0,0.0,0.0,0.0,0.0,0.0,3.4944,3.5018,3.5054,3.5037,3.485,3.4628,3.4404,3.4269,3.424,0.0,0.0,0.0,0.0,0.0,0.0,0.0,0.0,0.0,0.0,0.0,0.0,0.0,0.0,0.0,0.0,0.0,0.0,0.0,0.0,0.0,0.0,0.0,0.0,0.0,0.0,0.0,0.0,0.0,0.0,0.0,0.0,0.0,0.0,0.0,0.0,0.0,0.0,0.0,0.0,3.4964,3.5038,3.5162,0.0,0.0,0.0,0.0,0.0,0.0,3.6783,3.7355,0.0,0.0,0.0,0.0,0.0,0.0,0.0,0.0,0.0,0.0,0.0,0.0,0.0,0.0,0.0,0.0,0.0,0.0,0.0,0.0,0.0,0.0,0.0,0.0,0.0,0.0,0.0,0.0,0.0,0.0,0.0,0.0,0.0,0.0,0.0,0.0,0.0,0.0,0.0,0.0,0.0,0.0,0.0,0.0,0.0,0.0,0.0,0.0,0.0,0.0,0.0,0.0,0.0,0.0,0.0,3.4832,3.4926,3.4927,3.485,3.4689,3.4473,3.4221,3.4216,3.4221,0.0,0.0,0.0,0.0,0.0,0.0,0.0,0.0,0.0,0.0,0.0,0.0,0.0,0.0,0.0,0.0,0.0,0.0,0.0,0.0,0.0,0.0,0.0,0.0,0.0,0.0,0.0,0.0,0.0,0.0,0.0,0.0,0.0,0.0,0.0,0.0,0.0,0.0,0.0,0.0,0.0,3.5127,3.5193,3.5122,0.0,0.0,0.0,0.0,3.6963,3.7577,0.0,0.0,0.0,0.0,0.0,0.0,0.0,0.0,0.0,0.0,0.0,0.0,0.0,0.0,0.0,0.0,0.0,0.0,0.0,0.0,0.0,0.0,0.0,0.0,0.0,0.0,0.0,0.0,0.0,0.0,0.0,0.0,0.0,0.0,0.0,0.0,0.0,0.0,0.0,0.0,0.0,0.0,0.0,0.0,0.0,0.0,0.0,0.0,0.0,0.0,0.0,0.0,0.0,0.0,0.0,0.0,3.4634,3.4812,3.4831,3.4647,3.4604,3.4473,3.4221,3.4216,3.4197,0.0,0.0,0.0,0.0,0.0,0.0,0.0,0.0,0.0,0.0,0.0,0.0,0.0,0.0,0.0,0.0,0.0,0.0,0.0,0.0,0.0,0.0,0.0,0.0,0.0,0.0,0.0,0.0,0.0,0.0,0.0,0.0,0.0,0.0,0.0,0.0,0.0,0.0,0.0,0.0,0.0,3.5127,3.5193,3.5138,3.5372,0.0,0.0,3.7048,3.8546,3.8879,0.0,0.0,0.0,0.0,0.0,0.0,0.0,0.0,0.0,0.0,0.0,0.0,0.0,0.0,0.0,0.0,0.0,0.0,0.0,0.0,0.0,0.0,0.0,0.0,0.0,0.0,0.0,0.0,0.0,0.0,0.0,0.0,0.0,0.0,0.0,0.0,0.0,0.0,0.0,0.0,0.0,0.0,0.0,0.0,0.0,0.0,0.0,0.0,0.0,0.0,0.0,0.0,0.0,0.0,0.0,3.4409,3.4542,3.4586,3.4586,3.4539,3.4427,3.4316,3.4197,3.4245,3.4245,0.0,0.0,0.0,0.0,0.0,0.0,0.0,0.0,0.0,0.0,0.0,0.0,0.0,0.0,0.0,0.0,0.0,0.0,0.0,0.0,0.0,0.0,0.0,0.0,0.0,0.0,0.0,0.0,0.0,0.0,0.0,0.0,0.0,0.0,0.0,0.0,0.0,0.0,0.0,0.0,0.0,0.0,3.5916,3.6367,0.0,0.0,0.0,3.8281,3.8972,0.0,0.0,0.0,0.0,0.0,0.0,0.0,0.0,0.0,0.0,0.0,0.0,0.0,0.0,0.0,0.0,0.0,0.0,0.0,0.0,0.0,0.0,0.0,0.0,0.0,0.0,0.0,0.0,0.0,0.0,0.0,0.0,0.0,0.0,0.0,0.0,0.0,0.0,0.0,0.0,0.0,0.0,0.0,0.0,0.0,0.0,0.0,0.0,0.0,0.0,0.0,0.0,0.0,0.0,0.0,0.0,0.0,3.4473,3.4476,3.4498,3.4583,3.4454,3.4363,3.4293,3.434,0.0,0.0,0.0,0.0,0.0,0.0,0.0,0.0,0.0,0.0,0.0,0.0,0.0,0.0,0.0,0.0,0.0,0.0,0.0,0.0,0.0,0.0,0.0,0.0,0.0,0.0,0.0,3.4042,0.0,0.0,0.0,0.0,0.0,0.0,0.0,0.0,0.0,0.0,0.0,0.0,0.0,0.0,3.6436,3.6489,3.7294,3.7986,0.0,0.0,3.9237,3.9413,4.0041,4.0466,0.0,0.0,0.0,0.0,0.0,0.0,0.0,0.0,0.0,0.0,0.0,0.0,0.0,0.0,0.0,0.0,0.0,0.0,0.0,0.0,0.0,0.0,0.0,0.0,0.0,0.0,0.0,0.0,0.0,0.0,0.0,0.0,0.0,0.0,0.0,0.0,0.0,0.0,0.0,0.0,0.0,0.0,0.0,0.0,0.0,0.0,0.0,0.0,0.0,0.0,0.0,0.0,0.0,0.0,0.0,3.4386,3.4588,3.4732,3.4773,3.4812,3.4752,3.4583,3.458,3.4495,0.0,0.0,0.0,0.0,0.0,0.0,0.0,0.0,0.0,0.0,0.0,0.0,0.0,0.0,0.0,0.0,0.0,0.0,0.0,0.0,0.0,0.0,0.0,0.0,0.0,0.0,0.0,0.0,0.0,0.0,0.0,0.0,0.0,0.0,0.0,0.0,0.0,0.0,0.0,0.0,0.0,3.6417,3.6489,3.7299,3.8185,0.0,0.0,3.9394,4.0261,4.045,4.0457,4.0396,0.0,0.0,0.0,0.0,0.0,0.0,0.0,0.0,0.0,0.0,0.0,0.0,0.0,0.0,0.0,0.0,0.0,0.0,0.0,0.0,0.0,0.0,0.0,0.0,0.0,0.0,0.0,0.0,0.0,0.0,0.0,0.0,0.0,0.0,0.0,0.0,0.0,0.0,0.0,0.0,0.0,0.0,0.0,0.0,0.0,0.0,0.0,0.0,0.0,0.0,0.0,0.0,0.0,3.5795,3.5869,3.6114,3.5934,3.5337,3.5529,3.5303,3.4623,3.4607,3.4567,0.0,0.0,0.0,0.0,0.0,0.0,0.0,0.0,0.0,0.0,0.0,0.0,0.0,0.0,0.0,0.0,0.0,0.0,0.0,0.0,0.0,0.0,0.0,0.0,0.0,0.0,0.0,0.0,3.3868,3.3868,3.3887,0.0,0.0,0.0,0.0,0.0,0.0,0.0,0.0,0.0,0.0,3.7926,3.8084,3.8895,0.0,0.0,3.9973,4.0095,4.0457,4.0495,4.0463,4.0342,4.0307,0.0,0.0,0.0,0.0,0.0,0.0,0.0,0.0,0.0,0.0,0.0,0.0,0.0,0.0,0.0,0.0,0.0,0.0,0.0,0.0,0.0,0.0,0.0,0.0,0.0,0.0,0.0,0.0,0.0,0.0,0.0,0.0,0.0,0.0,0.0,0.0,0.0,0.0,0.0,0.0,0.0,0.0,0.0,0.0,0.0,0.0,0.0,0.0,0.0,0.0,0.0,0.0,3.6719,3.6726,3.7051,3.6836,3.6054,3.634,3.6096,3.5375,3.5386,3.5277,0.0,0.0,0.0,0.0,0.0,0.0,0.0,0.0,0.0,0.0,0.0,0.0,0.0,0.0,0.0,0.0,0.0,0.0,0.0,0.0,0.0,0.0,0.0,0.0,0.0,0.0,0.0,0.0,3.378,3.378,3.3753,0.0,0.0,0.0,0.0,0.0,0.0,0.0,0.0,0.0,0.0,3.8804,3.9042,3.9802,4.0372,4.046,4.0441,4.0444,4.0466,4.0466,4.0432,4.0342,0.0,0.0,0.0,0.0,0.0,0.0,0.0,0.0,0.0,0.0,0.0,0.0,0.0,0.0,0.0,0.0,0.0,0.0,0.0,0.0,0.0,0.0,0.0,0.0,0.0,0.0,0.0,0.0,0.0,0.0,0.0,0.0,0.0,0.0,0.0,0.0,0.0,0.0,0.0,0.0,0.0,0.0,0.0,0.0,0.0,0.0,0.0,0.0,0.0,0.0,0.0,0.0,0.0,3.6731,3.6642,3.7057,3.72,3.7065,3.7192,3.7168,3.693,3.7133,3.6797,3.591,0.0,0.0,0.0,0.0,0.0,0.0,0.0,0.0,0.0,0.0,0.0,0.0,0.0,0.0,0.0,0.0,0.0,0.0,0.0,0.0,0.0,0.0,0.0,0.0,0.0,0.0,3.3807,3.3771,3.3707,0.0,0.0,0.0,0.0,0.0,0.0,0.0,0.0,0.0,0.0,3.801,3.8705,3.8992,3.9586,4.012,4.0379,4.0362,4.0325,4.0398,4.0415,4.0415,0.0,0.0,0.0,0.0,0.0,0.0,0.0,0.0,0.0,0.0,0.0,0.0,0.0,0.0,0.0,0.0,0.0,0.0,0.0,0.0,0.0,0.0,0.0,0.0,0.0,0.0,0.0,3.2535,3.2523,0.0,0.0,0.0,0.0,0.0,0.0,0.0,0.0,0.0,0.0,0.0,3.3438,3.4216,0.0,0.0,0.0,0.0,0.0,0.0,0.0,0.0,0.0,0.0,0.0,0.0,3.8265,3.8265,3.8676,3.8512,3.7802,3.8037,3.7794,3.7,3.719,3.712,3.6767,0.0,0.0,0.0,0.0,0.0,0.0,0.0,0.0,0.0,0.0,0.0,0.0,0.0,0.0,0.0,0.0,0.0,0.0,0.0,0.0,0.0,0.0,0.0,0.0,0.0,3.3726,0.0,0.0,0.0,0.0,0.0,0.0,0.0,0.0,0.0,0.0,0.0,3.7759,3.8144,3.8925,3.9561,3.9832,4.0042,4.027,0.0,0.0,0.0,0.0,0.0,0.0,0.0,0.0,0.0,0.0,0.0,0.0,0.0,0.0,4.0309,4.0309,4.0345,4.0382,4.0382,0.0,0.0,0.0,0.0,0.0,0.0,0.0,0.0,0.0,0.0,0.0,0.0,0.0,0.0,0.0,0.0,3.2301,0.0,0.0,0.0,0.0,0.0,0.0,0.0,0.0,3.3829,3.4058,3.4147,3.4924,3.5277,0.0,3.6256,3.6524,0.0,0.0,0.0,0.0,0.0,0.0,0.0,0.0,3.8998,3.8979,3.9376,3.9189,3.8428,3.8646,3.8456,3.776,3.7753,3.7791,3.785,3.7505,3.7022,0.0,0.0,0.0,0.0,0.0,0.0,0.0,0.0,0.0,0.0,0.0,0.0,0.0,0.0,0.0,0.0,0.0,0.0,0.0,0.0,0.0,0.0,0.0,3.4493,0.0,0.0,0.0,0.0,0.0,0.0,0.0,0.0,0.0,3.7099,3.7801,3.8495,3.8848,3.9448,3.9916,4.0158,0.0,0.0,0.0,0.0,0.0,0.0,0.0,4.0289,4.0309,4.0309,4.0308,4.0362,4.0379,4.0398,4.0362,0.0,0.0,4.0307,4.0345,4.0382,4.0363,4.0363,4.0382,4.0382,4.0382,4.0382,0.0,0.0,0.0,0.0,0.0,0.0,0.0,0.0,3.2074,3.2092,0.0,3.2142,0.0,0.0,0.0,0.0,0.0,0.0,0.0,0.0,3.4504,3.4594,3.4793,3.5606,3.6013,3.6086,3.6887,3.7392,3.7595,3.7827,0.0,0.0,0.0,0.0,0.0,0.0,3.8836,3.8738,3.9101,3.9165,3.8902,3.8998,3.911,3.91,3.8803,3.8785,3.9092,3.8207,3.7585,3.7329,3.6412,0.0,0.0,0.0,0.0,0.0,0.0,0.0,0.0,0.0,0.0,0.0,0.0,0.0,0.0,0.0,0.0,0.0,0.0,0.0,0.0,3.5637,0.0,0.0,0.0,0.0,0.0,0.0,0.0,0.0,0.0,0.0,3.7606,3.8422,3.9156,3.9279,0.0,0.0,0.0,0.0,3.9975,4.0117,4.0098,4.0118,4.0196,4.0196,4.0271,4.0398,0.0,0.0,4.0502,4.0432,4.0379,4.0325,4.0362,4.0398,4.0307,4.0309,4.031,4.031,4.0329,4.031,4.031,4.031,4.0329,3.1466,0.0,0.0,0.0,0.0,3.1856,3.1893,3.1893,3.1881,3.1933,3.2,3.2541,0.0,0.0,0.0,0.0,0.0,0.0,3.4196,3.446,3.4965,3.5304,3.5434,3.6225,3.6615,3.671,3.7114,3.741,3.7631,3.781,3.7985,3.807,0.0,0.0,0.0,0.0,3.8634,3.8707,3.8862,3.8921,3.891,3.8997,3.92,3.9614,3.9548,3.9661,3.9936,3.9672,3.9089,3.818,3.78,0.0,0.0,0.0,0.0,0.0,0.0,0.0,0.0,0.0,0.0,0.0,0.0,0.0,0.0,0.0,0.0,0.0,0.0,0.0,3.5551,3.5824,3.5939,0.0,0.0,0.0,0.0,0.0,0.0,0.0,0.0,0.0,3.8095,3.8626,3.9147,0.0,0.0,3.9623,3.9826,3.9914,3.9998,4.0158,0.0,0.0,0.0,4.0344,4.0362,4.0398,4.0415,4.0415,4.0379,4.0379,4.0398,4.0379,4.0342,4.0325,4.0307,4.0344,4.0382,4.0363,4.0363,4.0363,4.0363,4.0382,4.0382,3.1291,3.1385,3.1428,3.1521,3.1559,3.1651,3.1688,3.1688,3.1696,3.1679,3.1797,3.2547,3.2894,3.2917,3.377,0.0,0.0,0.0,3.4914,3.5248,3.5682,3.5971,3.6182,3.6561,3.6869,3.7027,3.7105,3.7334,3.7577,3.7739,3.7881,3.807,0.0,0.0,3.8382,3.8446,3.8528,3.8707,3.8762,3.8851,3.891,3.8979,3.9245,3.966,3.9819,4.0024,4.03,4.0334,3.9962,3.91,3.8628,3.7798,0.0,0.0,0.0,0.0,0.0,0.0,0.0,0.0,0.0,0.0,0.0,3.4637,3.4047,0.0,0.0,0.0,3.5526,3.6012,3.678,3.684,0.0,0.0,0.0,0.0,0.0,0.0,0.0,3.8259,3.8241,3.8241,3.8307,3.859,3.8873,3.9073,3.9227,3.9383,3.9502,0.0,3.9804,3.9832,3.9979,4.0099,4.0158,4.0271,4.0379,4.0432,4.0432,4.0415,4.0342,4.0379,4.0398,4.0342,4.0252,4.0139,4.012,4.0099,4.0119,4.0327,4.0364,4.0364,4.0364,4.0272,4.0215,3.119,3.123,3.1274,3.1351,3.1479,3.1479,3.1479,3.1479,3.1479,3.1462,3.153,3.2241,3.2621,3.2747,3.3534,0.0,0.0,3.5111,3.5531,3.6399,3.6399,3.6533,3.6788,3.6771,3.6869,3.6987,3.697,3.7203,3.7577,3.7577,3.781,3.8192,3.8192,3.8256,3.8401,3.8382,3.8496,3.8658,3.878,3.8822,3.891,3.9017,3.9237,3.9483,3.9778,4.0024,4.03,4.0438,4.0317,3.9889,3.9022,3.8282,3.7798,0.0,0.0,0.0,0.0,0.0,0.0,0.0,0.0,0.0,0.0,0.0,0.0,0.0,0.0,0.0,3.6681,0.0,3.8201,3.8274,0.0,0.0,0.0,3.8192,3.8192,3.8192,3.8192,3.8192,0.0,0.0,3.8307,0.0,3.8478,3.8478,3.8844,3.9082,3.9129,3.9343,3.9427,3.9433,3.9604,3.9804,3.9914,4.0139,4.0342,4.0449,4.0485,4.0468,4.0398,4.0398,4.0362,4.0326,4.0101,3.996,3.9916,3.9785,3.9717,4.0215,4.0272,4.0273,4.0253,4.0118,4.0058,3.119,3.119,3.123,3.1291,3.1351,3.1351,3.1334,3.1351,3.1308,3.1291,3.1402,3.2173,3.2901,3.3602,3.3676,3.3962,3.4352,3.4335,3.4789,3.548,3.5514,3.5907,3.6568,3.6667,3.6766,3.6869,3.6948,3.7203,3.7577,3.7577,3.781,3.8192,3.8192,3.8241,3.8322,3.8368,3.8465,3.8541,3.867,3.878,3.891,3.9017,3.9237,3.9483,3.9759,4.0024,4.03,4.0438,4.0317,3.9908,3.8961,3.7991,3.7028,3.6638,0.0,0.0,0.0,0.0,0.0,0.0,0.0,0.0,0.0,3.6285,3.5566,0.0,3.6689,0.0,3.7428,3.7887,3.7985,3.8158,0.0,0.0,3.8225,3.8192,3.8192,3.8192,3.8192,3.8192,3.8225,3.8225,3.8225,3.8241,3.8274,3.8289,3.8755,3.9156,3.9298,3.9594,3.9845,3.9954,4.004,4.0177,4.0158,4.0289,4.0362,4.0362,4.0342,4.0344,4.0328,4.0328,4.031,4.031,4.0272,4.0215,4.0196,4.0157,4.0118,4.0253,4.0157,3.9996,3.9996,4.0098,4.0234,3.119,3.119,3.119,3.1213,3.1235,3.1235,3.1235,3.1235,3.123,3.1213,3.1286,3.2077,3.2946,3.3802,3.3704,3.3859,3.4093,3.4438,3.48,3.5197,3.5525,3.5987,3.6509,3.6643,3.6748,3.6799,3.6952,3.722,3.7577,3.7577,3.781,3.8192,3.8192,3.8241,3.8307,3.8368,3.8446,3.851,3.8683,3.8822,3.8892,3.9017,3.9165,3.9376,3.9645,3.9905,4.0081,4.0286,4.0232,3.9882,3.9255,3.8611,3.7862,3.7403,3.6933,0.0,0.0,0.0,0.0,0.0,0.0,0.0,0.0,0.0,0.0,0.0,3.7266,3.7181,3.7593,3.781,3.7703,3.7934,3.809,3.8072,3.8158,3.8192,3.8192,3.8192,3.8192,3.8192,3.8192,3.8192,3.8192,3.8192,3.8192,3.8192,3.8559,3.8913,3.9119,3.9458,3.9781,3.987,4.0019,4.0177,4.027,4.0344,4.0342,4.0307,4.0307,4.0308,4.031,4.0329,4.0329,4.0291,4.0215,4.0118,4.0098,3.9851,3.9698,3.9739,3.9698,3.9743,4.0017,4.0098,4.0138,3.1207,3.1207,3.119,3.119,3.119,3.119,3.119,3.119,3.119,3.119,3.1241,3.189,3.2655,3.3413,3.343,3.3602,3.399,3.4611,3.5007,3.5232,3.5852,3.6298,3.6527,3.6643,3.6713,3.6808,3.6952,3.7203,3.7558,3.7594,3.7757,3.814,3.8192,3.8241,3.8307,3.8368,3.8465,3.851,3.8773,3.891,3.891,3.9064,3.9137,3.921,3.9519,3.9747,3.9804,4.008,4.01,3.9785,3.9524,3.9295,3.9016,3.8229,3.7766,0.0,3.7071,0.0,0.0,0.0,0.0,0.0,0.0,0.0,0.0,3.7467,3.7595,3.7374,3.7503,3.7503,3.7374,3.7667,3.7864,3.7882,3.8003,3.8158,3.8158,3.8158,3.8192,3.8192,3.8192,3.8192,3.8192,3.8192,3.8192,3.8225,3.8415,3.8658,3.8847,3.9234,3.9575,3.9575,3.9804,4.0099,4.0252,4.0308,4.0308,4.0308,4.0308,4.0327,4.031,4.0329,4.0272,4.0196,4.0038,3.9914,3.9851,3.9371,3.9054,3.9219,3.9313,3.9519,3.9935,3.9996,3.9975,3.1015,3.1055,3.1151,3.119,3.119,3.119,3.119,3.119,3.119,3.119,3.119,3.1426,3.164,3.1927,3.1987,3.241,3.3128,3.3266,3.4007,3.5214,3.5352,3.5825,3.6471,3.6637,3.6742,3.6829,3.693,3.7143,3.7354,3.7521,3.7703,3.7987,3.8124,3.8259,3.8307,0.0,0.0,0.0,3.8822,3.891,3.891,3.9073,3.9183,3.921,3.9575,0.0,3.9804,3.9914,3.9876,3.9622,3.8826,0.0,0.0,0.0,0.0,0.0,0.0,0.0,0.0,0.0,0.0,0.0,3.7853,3.7733,3.7718,3.756,3.7374,3.7185,3.7337,3.7392,3.7334,3.7521,3.7667,3.7667,3.7703,3.7775,3.7934,3.7934,3.8003,3.8174,3.8192,3.8192,3.8192,3.8192,3.8192,3.8225,3.8478,3.873,3.8924,3.9313,3.9693,4.0057,4.0138,4.0234,4.0272,4.0291,4.031,4.0329,4.031,4.0291,4.0291,4.0291,4.0176,3.9897,3.9854,3.9766,3.9494,3.9389,3.9338,3.9408,3.9433,3.9433,3.935,3.9647,3.987,3.1112,0.0,3.119,3.119,0.0,3.119,3.119,3.119,3.119,3.119,3.119,3.1252,3.1516,3.2064,3.2068,3.2595,3.3507,3.3869,3.4456,3.5197,3.5576,3.6032,3.6498,3.6655,3.6748,3.6816,3.6913,3.7182,3.7429,3.754,3.7739,3.8056,3.814,3.8241,3.8354,3.8483,3.8578,3.8707,3.881,3.8881,3.8892,3.9036,3.9183,3.9395,0.0,0.0,0.0,0.0,0.0,0.0,0.0,0.0,0.0,0.0,0.0,3.8184,3.8493,3.8572,3.8415,3.8368,3.8289,3.8207,3.7933,3.7757,3.7667,3.7466,3.7279,3.7087,3.7147,3.722,3.7182,3.7317,3.7447,3.7447,3.7558,3.7667,3.7757,3.7739,3.781,3.8003,3.8056,3.809,3.8192,3.8192,3.8192,3.8225,3.8354,3.8554,3.8847,3.9287,3.9712,3.9975,4.0215,4.0234,4.0157,4.0234,4.0234,4.0157,4.0196,4.0176,3.9954,4.0017,3.9977,3.9679,3.9651,3.9628,3.9464,3.9287,3.9181,3.9189,3.9154,3.9017,3.8826,3.9261,3.9651,3.1151,3.1151,3.119,3.119,3.119,3.119,3.1275,3.1433,0.0,0.0,0.0,3.1433,3.1941,3.2798,3.2838,3.3385,3.43,3.4904,3.5266,3.5404,3.6067,3.6412,3.6558,3.6655,3.6753,3.6865,3.6952,3.7164,3.7558,3.7577,3.7775,3.8106,3.8192,3.8274,3.8401,3.8596,3.8707,3.8689,3.875,3.884,3.891,3.8979,3.9183,3.9545,3.9376,3.9401,3.9623,3.9496,3.9388,3.9373,3.9202,3.9101,3.9064,3.8892,3.8792,3.8762,3.8603,3.8478,3.8382,3.8322,3.8274,3.8225,3.781,3.754,3.7374,3.7279,3.7182,3.7027,3.697,3.697,3.697,3.7143,3.7259,3.7259,3.741,3.7503,3.7577,3.7577,3.7703,3.7899,3.7987,3.8003,3.8192,3.8192,3.8192,3.8192,3.8225,3.8289,3.8658,3.9154,3.9532,3.9651,3.9851,3.9998,3.9873,3.9975,4.0057,3.987,3.9996,3.9956,3.9628,3.9651,3.9651,3.9364,3.9338,3.9331,3.9279,3.899,3.8789,3.8828,3.8778,3.8658,3.8572,3.8942,3.9305,3.1015,3.1055,3.1151,3.119,3.119,3.119,3.1642,3.2247,3.1517,3.1602,3.2292,3.2395,3.2906,3.3745,3.3825,3.4335,3.5025,3.5145,3.5542,0.0,3.635,3.6547,3.6661,3.6737,3.6869,3.697,3.697,3.7105,3.7334,3.7521,3.7703,3.7934,3.8106,3.8274,3.8401,3.8596,3.8707,3.8707,3.8744,3.8835,3.891,3.9017,3.9129,3.9264,3.9354,3.9399,3.9451,3.9425,3.9373,3.921,3.9156,3.9045,3.8939,3.8851,3.878,3.8738,3.859,3.846,3.8415,3.8354,3.8274,3.8174,3.781,3.7503,3.7334,3.7143,3.7027,3.697,3.697,3.697,3.7027,3.7009,3.7048,3.7048,3.7066,3.7203,3.7558,3.7577,3.7703,3.8038,3.8158,3.8158,3.8158,3.8192,3.8192,3.8192,3.8192,3.8274,3.8523,3.8924,3.9249,3.9327,3.9402,3.9427,3.9445,3.9513,3.9604,3.9575,3.9599,3.958,3.9345,3.9352,3.9294,3.8886,3.8905,3.8836,3.8603,3.8541,3.8554,3.8566,3.8621,3.864,3.8596,3.8762,3.8822,3.1095,3.1112,3.119,3.1467,3.1953,3.24,3.2855,3.3168,3.2781,3.2798,3.3162,3.3259,3.375,3.4518,3.4633,3.5053,3.5801,3.5801,3.599,3.6284,3.6461,3.6596,3.6724,3.676,3.6851,3.697,3.697,3.7164,3.7447,3.754,3.7721,3.8038,3.8174,3.8289,3.8415,3.8523,3.8652,3.8707,3.8787,3.8829,3.891,3.9007,3.9175,3.9369,3.9283,3.9309,3.9439,3.9309,3.9202,3.9073,3.9017,3.895,3.8851,3.8762,3.8701,3.8609,3.8478,3.8415,3.8354,3.8189,3.8038,3.7881,3.7594,3.7372,3.7143,3.7066,3.697,3.697,3.697,3.697,3.697,3.697,3.697,3.697,3.697,3.7048,3.7241,3.7279,3.7392,3.7667,3.7828,3.7934,3.8021,3.8124,3.8192,3.8192,3.8192,3.8241,3.8368,3.8554,3.8759,3.899,3.9216,3.9338,3.9234,3.9383,3.9427,3.9324,3.9338,3.9261,3.9045,3.8999,3.899,3.8785,3.8725,3.8683,3.8501,3.8496,3.8478,3.8446,3.8451,3.8469,3.8501,3.8515,3.8609,3.1314,3.1484,3.1523,3.1987,3.2855,3.3704,3.4069,3.4086,3.4257,3.4326,3.435,3.4196,3.4579,3.5314,3.5366,3.57,3.6249,3.6343,3.6343,3.636,3.6485,3.6626,3.6742,3.6788,3.6891,3.6987,3.7066,3.7259,3.7577,3.7613,3.7864,3.8192,3.8274,3.8322,3.8401,3.8455,3.8566,3.864,3.8762,3.8803,3.891,3.8968,3.9101,3.935,3.9183,3.9183,3.935,3.9183,3.9017,3.8997,3.8939,3.8851,3.8762,3.8689,3.8609,3.8478,3.8415,3.8336,3.8274,3.8072,3.7899,3.7667,3.7484,3.7297,3.7105,3.7027,3.697,3.697,3.697,3.697,3.697,3.697,3.697,3.697,3.697,3.7027,3.7066,3.7048,3.7182,3.739,3.7558,3.7739,3.7934,3.8124,3.8192,3.8192,3.8192,3.8225,3.8256,3.8259,3.8372,3.864,3.8998,3.91,3.897,3.9091,3.9146,3.9036,3.9091,3.898,3.8755,3.8737,3.8718,3.8609,3.8564,3.8564,3.8564,3.8515,3.8465,3.8382,3.8401,3.8405,3.8437,3.8515,3.8578,3.172,3.2355,3.2429,3.2929,3.3738,3.4472,3.4881,3.505,3.5702,3.6019,3.5914,3.5297,3.5425,3.6104,3.6163,3.6215,3.6301,3.6444,3.6485,3.6502,3.669,3.6788,3.6823,3.6908,3.697,3.7027,3.7182,3.7354,3.7577,3.7775,3.7951,3.8192,3.8274,3.8307,3.8322,3.8446,3.851,3.8541,3.8713,3.8851,3.891,3.891,3.895,3.9036,3.9054,3.8979,3.8979,3.8921,3.8939,3.8892,3.8844,3.8773,3.8719,3.8578,3.8496,3.8433,3.8336,3.8274,3.8225,3.8192,3.809,3.7899,3.7649,3.7466,3.7314,3.7105,3.697,3.697,3.697,3.697,3.697,3.697,3.697,3.697,3.697,3.7066,3.722,3.7259,3.741,3.7793,3.7828,3.7934,3.8072,3.8192,3.8192,3.8192,3.8192,3.8225,3.8207,3.8241,3.8274,3.834,3.8419,3.8465,3.851,3.8541,3.8695,3.875,3.875,3.867,3.8528,3.8478,3.8433,3.8451,3.8307,3.834,3.834,3.8289,3.835,3.8415,3.8465,3.8528,3.8627,3.8676,3.8676,3.2554,3.3253,3.3311,3.3796,3.4631,3.5393,3.5727,3.5845,3.6113,3.6293,3.6284,3.5949,3.5983,3.6284,3.6284,3.6284,3.6284,3.6461,3.6502,3.6502,3.669,3.6788,3.6823,3.6965,3.697,3.7027,3.722,3.741,3.7613,3.7916,3.8124,3.8192,3.8207,3.8274,3.8336,3.8415,3.8496,3.8627,3.8689,3.8762,3.8833,3.8881,3.8892,3.8921,3.8939,3.8921,3.891,3.891,3.8862,3.8851,3.8803,3.8743,3.8609,3.851,3.8446,3.8354,3.8274,3.8207,3.8192,3.8072,3.7987,3.7917,3.7703,3.7521,3.7334,3.722,3.7143,3.7009,3.697,3.697,3.697,3.697,3.697,3.697,3.697,3.7048,3.7259,3.7297,3.741,3.7667,3.7828,3.7934,3.8003,3.8124,3.8192,3.8192,3.8192,3.8192,3.8192,3.8225,3.8241,3.8241,3.8259,3.8307,3.835,3.8415,3.8465,3.8515,3.8501,3.8419,3.8478,3.8415,3.8401,3.8437,3.8437,3.8437,3.8533,3.8501,3.8546,3.8496,3.8496,3.8528,3.8559,3.864,3.8689,3.3419,3.4103,3.4367,3.4861,3.5494,3.6035,3.6284,3.6284,3.6284,3.6284,3.6284,3.6284,3.6284,3.6284,3.6284,3.6301,3.6343,3.6502,3.6544,3.6626,3.6788,3.6886,3.6904,3.7027,3.7066,3.7143,3.7334,3.754,3.7775,3.8038,3.8192,3.8192,3.8192,3.8274,3.8368,3.8401,3.8465,3.8609,3.8658,3.8719,3.878,3.8822,3.8851,3.8862,3.8862,3.8881,3.8851,3.8851,3.8822,3.8713,3.8732,3.8621,3.8465,3.8433,3.8387,3.8274,3.8207,3.8192,3.8192,3.8003,3.7882,3.781,3.7631,3.7447,3.7276,3.722,3.7182,3.7105,3.7087,3.7066,3.7027,3.7066,3.7048,3.7009,3.7027,3.7143,3.7259,3.7297,3.741,3.7631,3.7828,3.7934,3.7987,3.8124,3.8192,3.8192,3.8192,3.8192,3.8192,3.8192,3.8192,3.8192,3.8192,3.8274,3.8368,3.8382,3.8433,3.8483,3.8469,3.8483,3.8478,3.8446,3.8401,3.8419,3.8515,3.8533,3.8437,3.8469,3.8596,3.8528,3.851,3.8559,3.8609,3.8658,3.8689,3.4294,3.5015,3.5862,3.6163,3.6249,3.6284,3.6284,3.6284,3.6284,3.6284,3.6284,3.6284,3.6301,3.6284,3.6343,3.6385,3.6485,3.6643,3.6708,3.6788,3.6891,3.697,3.7027,3.7182,3.7259,3.7297,3.7631,3.7934,3.8158,3.8192,3.8192,3.8192,3.8192,3.8259,3.8289,3.8368,3.8446,3.851,3.864,3.8707,3.8689,3.8707,3.875,3.8792,3.8822,3.8762,3.8738,3.8689,3.864,3.8523,3.8528,3.8451,3.834,3.8328,3.8262,3.8225,3.8192,3.8192,3.8192,3.8003,3.7864,3.7667,3.7503,3.7259,3.7143,3.7105,3.7143,3.7276,3.7259,3.7182,3.7105,3.7182,3.7182,3.7066,3.7182,3.7259,3.7297,3.7372,3.7484,3.7793,3.7899,3.7969,3.8158,3.8192,3.8192,3.8192,3.8192,3.8192,3.8192,3.8192,3.8192,3.8192,3.8225,3.8241,3.8368,3.835,3.8433,3.8483,3.8501,3.8596,3.8528,3.8446,3.8401,3.8336,3.8382,3.8368,3.8274,3.8292,3.8372,3.8451,3.8578,3.8658,3.8732,3.8689,3.878,3.5173,3.5862,3.6197,3.6284,3.6284,3.6284,3.6284,3.6284,3.6284,3.6284,3.6326,3.6392,3.6433,3.6461,3.6502,3.6544,3.6544,3.6667,3.6788,3.6811,3.693,3.697,3.7009,3.7066,3.7182,3.7334,3.7594,3.7881,3.8158,3.8192,3.8192,3.8192,3.8192,3.8241,3.8307,3.8368,3.8446,3.851,3.864,3.8707,3.8707,3.8707,3.8689,3.8701,3.8719,3.8719,3.8707,3.8707,3.8658,3.851,3.8528,3.8433,3.8307,3.8259,3.821,3.8192,3.8192,3.8192,3.8192,3.8158,3.8072,3.8003,3.7793,3.7594,3.741,3.7297,3.722,3.7297,3.7297,3.7297,3.7372,3.7334,3.7259,3.722,3.7259,3.7427,3.7612,3.7685,3.7793,3.8021,3.8072,3.8106,3.8158,3.8192,3.8192,3.8192,3.8192,3.8192,3.8192,3.8192,3.8192,3.8192,3.8192,3.8207,3.8322,3.8289,3.8289,3.834,3.834,3.8372,3.8354,3.8368,3.8354,3.8415,3.8364,3.8382,3.8405,3.8437,3.8501,3.8533,3.8658,3.875,3.8939,3.891,3.9007,3.5835,3.6249,3.6284,3.6284,3.6284,3.6284,3.6284,3.6284,3.6335,3.6395,3.6385,3.6533,3.6574,3.6585,3.6684,3.6684,3.6626,3.6731,3.6829,3.6869,3.6987,3.7009,3.7105,3.7164,3.7279,3.7484,3.7703,3.7951,3.8158,3.8192,3.8192,3.8192,3.8192,3.8225,3.8307,3.8354,3.8401,3.8478,3.8578,3.864,3.864,3.8676,3.8707,3.8707,3.8707,3.8707,3.864,3.8609,3.8564,3.8465,3.8415,3.8368,3.8256,3.8225,3.8192,3.8192,3.8192,3.8192,3.8192,3.814,3.8124,3.809,3.7934,3.7739,3.7631,3.7484,3.7447,3.7447,3.7502,3.7558,3.7631,3.7558,3.7447,3.741,3.7465,3.7612,3.7864,3.7917,3.7969,3.8158,3.8192,3.8192,3.8192,3.8192,3.8192,3.8192,3.8192,3.8192,3.8192,3.8192,3.8192,3.8192,3.8192,3.8225,3.8274,3.8241,3.8256,3.8289,3.8322,3.8322,3.8289,3.8322,3.8368,3.8446,3.851,3.8528,3.8578,3.8627,3.8658,3.8658,3.8689,3.878,3.8939,3.9073,3.921,3.6266,3.6284,3.6284,3.6284,3.6284,3.6284,3.6284,3.6301,3.6429,3.6488,3.6502,3.6626,3.6667,3.6742,3.6788,3.6771,3.6788,3.6811,3.6851,3.697,3.697,3.7105,3.7259,3.7447,3.7631,3.7828,3.8072,3.8192,3.8192,3.8192,3.8192,3.8192,3.8192,3.8225,3.8307,3.8307,3.8354,3.8382,3.8478,3.851,3.8528,3.8609,3.8676,3.8676,3.8676,3.8627,3.851,3.8446,3.8419,3.834,3.8307,3.8292,3.8225,3.8192,3.8192,3.8192,3.8192,3.8192,3.8192,3.8038,3.7969,3.7934,3.7739,3.7667,3.7667,3.7594,3.7631,3.7775,3.7828,3.7864,3.7864,3.7899,3.7775,3.7667,3.7757,3.7864,3.7899,3.7917,3.7969,3.8158,3.8192,3.8192,3.8192,3.8192,3.8192,3.8192,3.8192,3.8192,3.8192,3.8192,3.8192,3.8192,3.8192,3.8225,3.8225,3.8225,3.8289,3.8336,3.8368,3.8401,3.8368,3.8368,3.8387,3.8446,3.846,3.8478,3.8528,3.8559,3.8609,3.8609,3.8689,3.8822,3.9045,3.9245,3.9376,3.6284,3.6284,3.6284,3.6284,3.6284,3.6284,3.636,3.6461,3.6506,3.6547,3.6643,3.6719,3.6759,3.6788,3.6869,3.6948,3.693,3.6948,3.6987,3.697,3.697,3.7105,3.7297,3.7372,3.7558,3.7899,3.8124,3.8192,3.821,3.8228,3.8192,3.8192,3.821,3.8225,3.8241,3.8274,3.834,3.8322,3.8401,3.8415,3.8446,3.8465,3.8496,3.8465,3.8469,3.8405,3.8387,3.8415,3.8401,3.8307,3.8307,3.8274,3.8225,3.8192,3.8192,3.8192,3.8192,3.8192,3.8192,3.8158,3.8072,3.8072,3.7934,3.7828,3.7775,3.7703,3.7703,3.7864,3.7899,3.7934,3.809,3.8124,3.8003,3.781,3.7846,3.7987,3.809,3.809,3.8124,3.8192,3.8192,3.8192,3.8192,3.8192,3.8192,3.8192,3.8192,3.8192,3.8192,3.8192,3.8192,3.8192,3.8192,3.8192,3.8192,3.8225,3.8289,3.8303,3.8368,3.8368,3.8368,3.8401,3.8401,3.8433,3.8446,3.8478,3.8478,3.8528,3.8559,3.8609,3.8689,3.895,3.9272,3.9383,3.9452,3.6343,3.6402,3.6343,3.6402,3.6444,3.6461,3.6502,3.6561,3.6589,3.6672,3.6748,3.6838,3.6878,3.6891,3.6987,3.697,3.697,3.697,3.697,3.697,3.697,3.7143,3.741,3.7576,3.7739,3.8059,3.8466,3.8627,3.8645,3.8898,3.8916,3.8699,3.8645,3.8464,3.8262,3.8259,3.8274,3.8292,3.8322,3.8368,3.8368,3.8401,3.8382,3.8382,3.8387,3.834,3.8307,3.8368,3.8387,3.8307,3.8274,3.8241,3.8192,3.8192,3.8192,3.8192,3.8192,3.8192,3.8192,3.8192,3.8192,3.8192,3.809,3.8003,3.7969,3.7899,3.7881,3.7969,3.8003,3.809,3.8192,3.8192,3.8124,3.8038,3.8003,3.809,3.8192,3.8192,3.8192,3.8192,3.8192,3.8192,3.8192,3.8192,3.8192,3.8192,3.8192,3.8192,3.8192,3.8192,3.8192,3.8192,3.8192,3.8192,3.8225,3.8241,3.8322,3.8322,3.8322,3.8322,3.8322,3.8354,3.8368,3.8465,3.851,3.8578,3.8609,3.8627,3.8658,3.8707,3.8719,3.8979,3.9219,3.9272,3.9401,3.6402,3.6502,3.6502,3.6602,3.6702,3.6702,3.6702,3.6702,3.6771,3.6777,3.6829,3.693,3.697,3.697,3.697,3.697,3.697,3.697,3.7009,3.7062,3.7171,3.7453,3.7791,3.8132,3.8395,3.8592,3.9152,3.9423,3.946,3.9985,4.0166,3.9514,3.9423,3.9061,3.8536,3.8316,3.8316,3.8244,3.8274,3.8289,3.8289,3.8336,3.8368,3.8368,3.8368,3.8354,3.8307,3.8307,3.8274,3.8225,3.8225,3.8192,3.8192,3.8192,3.8192,3.8192,3.8192,3.8192,3.8192,3.8192,3.8192,3.8192,3.8192,3.8192,3.8158,3.8158,3.8106,3.8158,3.8158,3.8192,3.8192,3.8192,3.8192,3.8192,3.8158,3.8192,3.8192,3.8192,3.8192,3.8192,3.8192,3.8192,3.8192,3.8192,3.8192,3.8192,3.8192,3.8192,3.8192,3.8192,3.8192,3.8225,3.8259,3.8342,3.8382,3.8579,3.867,3.8658,3.8585,3.851,3.8451,3.8401,3.8368,3.8465,3.8603,3.8689,3.8676,3.8689,3.8689,3.8707,3.881,3.9007,3.9183,3.9298,3.9526,3.6461,3.6502,3.6602,3.6643,3.6702,3.6719,3.6725,3.6766,3.6795,3.6858,3.6948,3.697,3.697,3.697,3.697,3.697,3.697,3.697,3.7087,3.7309,3.7856,3.8224,3.8525,3.8887,3.9351,3.9804,4.0057,4.022,4.022,4.051,4.0474,4.0238,4.0202,3.984,3.9188,3.9043,3.8753,3.8282,3.8225,3.8207,3.8207,3.8241,3.8274,3.8274,3.8274,3.8241,3.8225,3.8225,3.8225,3.8192,3.8192,3.8192,3.8192,3.8192,3.8192,3.8192,3.8192,3.8192,3.8192,3.8192,3.8192,3.8192,3.8192,3.8192,3.8192,3.8192,3.8192,3.8192,3.8192,3.8192,3.8192,3.8192,3.8192,3.8192,3.8192,3.8192,3.8192,3.8192,3.8192,3.8192,3.8192,3.8192,3.8192,3.8192,3.8192,3.8192,3.8192,3.8225,3.8259,3.8259,3.8259,3.834,3.8382,3.8493,3.8654,3.886,3.8998,3.9036,3.8999,3.8923,3.8766,3.8603,3.851,3.8446,3.8676,3.8785,3.8683,3.8621,3.864,3.8822,3.895,3.9165,3.9401,3.9556,3.9804,3.6585,3.6626,3.6708,3.6766,3.6846,3.6806,3.6829,3.6869,3.6904,3.6921,3.6987,3.697,3.697,3.697,3.697,3.697,3.697,3.697,3.7298,3.7934,3.8801,3.9274,3.9497,3.977,4.0093,4.0492,4.0872,4.1017,4.1089,4.1325,4.1343,4.1071,4.1017,4.0619,3.9876,3.9496,3.9188,3.8717,3.8409,3.8192,3.8192,3.8192,3.8192,3.8192,3.8192,3.8192,3.8192,3.8192,3.8192,3.8192,3.8192,3.8192,3.8192,3.8192,3.8192,3.8192,3.8192,3.8192,3.8192,3.8192,3.8192,3.8192,3.8192,3.8192,3.8192,3.8192,3.8192,3.8192,3.8192,3.8192,3.8192,3.8192,3.8192,3.8192,3.8192,3.8192,3.8192,3.8192,3.8192,3.8192,3.8192,3.8192,3.8192,3.8192,3.8192,3.8192,3.8192,3.8241,3.8322,3.834,3.8376,3.8492,3.8566,3.8738,3.8848,3.9037,3.9205,3.9268,3.9345,3.9261,3.9127,3.8923,3.8847,3.8789,3.8847,3.8894,3.8865,3.8913,3.9055,3.9165,3.9219,3.9331,3.958,3.9739,3.9975,3.6766,3.6788,3.6811,3.6908,3.6987,3.697,3.6987,3.6987,3.6987,3.6987,3.697,3.697,3.697,3.697,3.697,3.7023,3.7128,3.7216,3.7976,3.8848,3.9868,4.0471,4.0688,4.0601,4.08,4.1053,4.156,4.1778,4.194,4.2502,4.2448,4.1977,4.1832,4.1397,4.0673,3.9948,3.9514,3.9188,3.8518,3.821,3.8192,3.8192,3.8192,3.8192,3.8192,3.8192,3.8192,3.8192,3.8192,3.8192,3.8192,3.8192,3.8192,3.8192,3.8192,3.8192,3.8192,3.8192,3.8192,3.8192,3.8192,3.8192,3.8192,3.8192,3.8192,3.8192,3.8192,3.8192,3.8192,3.8192,3.8192,3.8192,3.8192,3.8192,3.8192,3.8192,3.8192,3.8192,3.8192,3.8192,3.8192,3.8192,3.8192,3.8225,3.8241,3.8322,3.8372,3.8483,3.8528,3.8559,3.8638,3.8766,3.8851,3.8941,3.9051,3.9164,3.9302,3.9433,3.958,3.958,3.9513,3.9371,3.932,3.9268,3.9208,3.9208,3.9287,3.9383,3.9452,3.9458,3.9433,3.9604,3.9807,3.9848,4.0036,3.6771,3.6829,3.6891,3.6987,3.697,3.697,3.697,3.697,3.697,3.697,3.697,3.697,3.697,3.697,3.7005,3.7286,3.7817,3.8016,3.8788,4.0481,4.1065,4.1776,4.203,4.1741,4.1796,4.2176,4.2502,4.2611,4.2719,4.2719,4.281,4.2647,4.2484,4.2248,4.1452,4.06,3.9948,3.9387,3.8608,3.821,3.8192,3.8192,3.8192,3.8192,3.8192,3.8192,3.8192,3.8192,3.8192,3.8192,3.8192,3.8192,3.8192,3.8192,3.8192,3.8192,3.8192,3.8192,3.8192,3.8192,3.8192,3.8192,3.8192,3.8192,3.8192,3.8192,3.8192,3.8192,3.8192,3.8192,3.8192,3.8192,3.8192,3.8192,3.8225,3.8225,3.8192,3.8192,3.8192,3.8192,3.8225,3.8192,3.8225,3.8368,3.8433,3.8465,3.859,3.8743,3.8773,3.8803,3.8907,3.9054,3.9156,3.9238,3.9264,3.9349,3.9486,3.9599,3.9717,3.987,3.9807,3.9721,3.9632,3.9537,3.9458,3.9508,3.967,3.958,3.9599,3.9604,3.9651,3.9807,3.9954,3.9996,4.0036,3.6908,3.6908,3.697,3.697,3.697,3.697,3.697,3.697,3.697,3.697,3.697,3.697,3.697,3.697,3.7044,3.747,3.8382,3.9305,4.0196,4.1253,4.1863,4.2484,4.2719,4.2538,4.252,4.2882,4.2882,4.29,4.29,4.29,4.2882,4.29,4.29,4.2683,4.2103,4.1107,4.0347,3.9786,3.8771,3.8192,3.8192,3.8192,3.8192,3.8192,3.8192,3.8192,3.8192,3.8192,3.8192,3.8192,3.8192,3.8192,3.8192,3.8192,3.8192,3.8192,3.8192,3.8192,3.8192,3.8192,3.8192,3.8192,3.8192,3.8192,3.8192,3.8192,3.8192,3.8192,3.8192,3.8192,3.8192,3.8192,3.8192,3.8225,3.8289,3.8354,3.8322,3.8274,3.8192,3.8225,3.8289,3.8322,3.8401,3.8541,3.8634,3.8713,3.8743,3.8892,3.9017,3.9045,3.9156,3.9285,3.9399,3.9477,3.9494,3.9571,3.9698,3.9758,3.9826,3.9996,4.0098,3.9996,3.9914,3.9848,3.9804,3.9892,3.9975,3.987,3.9826,3.9954,4.0036,4.0077,4.0098,4.0137,4.0195,3.697,3.697,3.697,3.697,3.697,3.697,3.697,3.697,3.697,3.697,3.697,3.697,3.697,3.7009,3.7048,3.7658,3.899,4.0602,4.16,4.1746,4.2407,4.2774,4.2864,4.2828,4.2792,4.29,4.29,4.29,4.29,4.29,4.29,4.29,4.29,4.2828,4.252,4.1361,4.0456,4.022,3.8952,3.8192,3.8192,3.8192,3.8192,3.8192,3.8274,3.8241,3.8207,3.8241,3.8241,3.8192,3.8192,3.8192,3.8192,3.8192,3.8192,3.8192,3.8192,3.8192,3.8192,3.8192,3.8192,3.8192,3.8192,3.8192,3.8192,3.8192,3.8192,3.8225,3.8259,3.8307,3.8307,3.8372,3.8354,3.8354,3.8478,3.8541,3.8541,3.8419,3.8372,3.8372,3.8496,3.8559,3.8652,3.8773,3.8862,3.895,3.8979,3.9036,3.9175,3.9283,3.9388,3.9439,3.9539,3.9637,3.9675,3.9698,3.9823,3.9889,3.9954,4.0077,4.0253,4.0195,4.0117,4.0195,4.0215,4.0234,4.0215,4.0137,4.0176,4.0311,4.0291,4.0215,4.0234,4.0291,4.0329,3.697,3.697,3.697,3.697,3.697,3.697,3.697,3.697,3.697,3.697,3.697,3.697,3.697,3.7048,3.7182,3.8153,3.9661,4.131,4.2289,4.2364,4.277,4.29,4.29,4.29,4.29,4.29,4.29,4.29,4.29,4.29,4.29,4.29,4.29,4.29,4.2484,4.1397,4.0618,4.0381,3.9148,3.8437,3.8292,3.8292,3.8292,3.8274,3.8401,3.8368,3.8289,3.8387,3.8387,3.8225,3.8192,3.8225,3.8259,3.8259,3.8259,3.8225,3.8259,3.8274,3.8241,3.8241,3.8225,3.8192,3.8259,3.8259,3.8225,3.8225,3.8292,3.8307,3.8419,3.8541,3.8743,3.8713,3.8762,3.8773,3.8773,3.8833,3.8833,3.8803,3.8773,3.8803,3.8833,3.8833,3.8921,3.9007,3.912,3.9229,3.9283,3.9328,3.9406,3.9483,3.9552,3.9607,3.9637,3.9754,3.9826,3.9848,3.9889,3.9994,4.0057,4.0098,4.0234,4.0291,4.0329,4.0329,4.0329,4.0291,4.0291,4.0329,4.0329,4.0329,4.0329,4.0329,4.0329,4.0329,4.0329,3.697,3.697,3.697,3.697,3.697,3.697,3.697,3.697,3.697,3.697,3.697,3.7027,3.7066,3.7143,3.7259,3.8338,4.0068,4.1425,4.2332,4.2659,4.2844,4.29,4.29,4.29,4.29,4.29,4.29,4.2938,4.29,4.29,4.2938,4.29,4.29,4.29,4.274,4.1941,4.1139,4.0575,3.9707,3.8944,3.8583,3.8546,3.8546,3.8609,3.8652,3.8652,3.8621,3.8621,3.8683,3.8609,3.8578,3.8559,3.8528,3.8515,3.8451,3.8307,3.8419,3.8483,3.8401,3.8465,3.8578,3.8578,3.8546,3.8578,3.8546,3.8578,3.8546,3.8578,3.859,3.8755,3.8862,3.8939,3.891,3.8939,3.8979,3.9045,3.9073,3.9175,3.9202,3.9193,3.912,3.9073,3.9073,3.9202,3.938,3.9483,3.9583,3.9583,3.9602,3.9674,3.9703,3.9727,3.9754,3.9845,3.9933,3.9954,3.9994,4.0096,4.0137,4.0176,4.0234,4.0291,4.0329,4.0329,4.0329,4.0329,4.0329,4.0329,4.0329,4.0329,4.0329,4.0329,4.0329,4.0329,4.0329,3.697,3.697,3.697,3.697,3.697,3.697,3.697,3.697,3.697,3.697,3.697,3.7027,3.7105,3.735,3.7729,3.8613,4.0184,4.1053,4.1831,4.2466,4.2592,4.2665,4.2882,4.2957,4.2976,4.3032,4.3142,4.2995,4.292,4.2995,4.2995,4.3014,4.3032,4.3069,4.2923,4.2406,4.1779,4.1038,4.0357,3.9686,3.9095,3.891,3.891,3.8939,3.8902,3.895,3.8862,3.8921,3.8892,3.8881,3.8881,3.8881,3.891,3.8939,3.8762,3.8501,3.8732,3.8743,3.8713,3.8743,3.8822,3.8822,3.8881,3.8881,3.8881,3.8851,3.8862,3.895,3.895,3.9007,3.9092,3.9064,3.9082,3.9092,3.9202,3.9283,3.9335,3.9406,3.9502,3.9451,3.938,3.9309,3.9309,3.9354,3.9502,3.9533,3.9631,3.9618,3.9661,3.9777,3.9823,3.9845,3.9889,3.9954,3.9996,4.0057,4.0077,4.0157,4.0195,4.0234,4.0273,4.0329,4.0329,4.0329,4.0329,4.0329,4.0329,4.0329,4.0329,4.0329,4.0329,4.0329,4.0329,4.0329,4.0329,3.697,3.697,3.697,3.697,3.697,3.697,3.697,3.697,3.697,3.697,3.7009,3.7009,3.7143,3.7496,3.8401,3.9032,3.9679,4.0275,4.1089,4.1759,4.1886,4.2158,4.2757,4.316,4.2941,4.2959,4.3263,4.3303,4.3105,4.3178,4.325,4.3267,4.3424,4.3579,4.3419,4.293,4.2073,4.128,4.0492,3.9727,3.9087,3.8968,3.8968,3.8979,3.9064,3.912,3.9036,3.9092,3.912,3.895,3.8939,3.8939,3.8939,3.9092,3.9036,3.891,3.8862,3.8892,3.8862,3.8968,3.8997,3.8997,3.8968,3.8939,3.8997,3.8997,3.9036,3.9156,3.9156,3.9256,3.938,3.9476,3.9502,3.9476,3.9476,3.9527,3.9552,3.9502,3.9596,3.962,3.9502,3.9502,3.9527,3.9571,3.962,3.9626,3.9637,3.9665,3.9717,3.9848,3.9975,4.0015,4.0036,4.0077,4.0117,4.0157,4.0176,4.0234,4.0234,4.0273,4.0291,4.0329,4.0329,4.0329,4.0329,4.0329,4.0329,4.0329,4.0329,4.0329,4.0329,4.0329,4.0329,4.0329,4.0329,3.697,3.697,3.697,3.697,3.697,3.697,3.697,3.697,3.697,3.7066,3.7147,3.7173,3.7358,3.7774,3.8366,3.8902,3.9369,3.9731,4.0293,4.089,4.1071,4.1234,4.1415,4.1687,4.1868,4.2431,4.2594,4.2866,4.2959,4.3355,4.3511,4.3545,4.3646,4.3679,4.3777,4.3521,4.2625,4.1571,4.0449,3.9674,3.9376,3.9301,3.9301,3.9301,3.938,3.9354,3.9328,3.9354,3.9406,3.9301,3.9301,3.9301,3.9301,3.938,3.938,3.9328,3.9301,3.9229,3.912,3.9202,3.9248,3.9275,3.9301,3.9328,3.9301,3.9301,3.9301,3.9406,3.9413,3.9483,3.9552,3.962,3.962,3.962,3.962,3.962,3.962,3.962,3.962,3.962,3.962,3.962,3.962,3.9645,3.965,3.9661,3.9731,3.9804,3.9848,3.9973,4.0096,4.0195,4.0215,4.0215,4.0234,4.0273,4.0253,4.0291,4.0291,4.0291,4.0291,4.0329,4.0329,4.0329,4.0329,4.0329,4.0329,4.0329,4.0329,4.0329,4.0329,4.0329,4.0329,4.0329,4.0329,3.7185,3.7261,3.7105,3.697,3.697,3.697,3.697,3.6987,3.7079,3.714,3.7317,3.7396,3.7632,3.7881,3.8144,3.8554,3.9043,3.9097,3.9568,4.0003,4.0274,4.0366,4.069,4.0762,4.1156,4.1632,4.2286,4.268,4.3217,4.3647,4.3892,4.3809,4.3936,4.3936,4.3986,4.3923,4.3341,4.1736,4.0338,3.9683,3.9571,3.9596,3.9596,3.9596,3.962,3.962,3.962,3.9596,3.9596,3.9596,3.9571,3.9527,3.9552,3.9552,3.9552,3.9527,3.9527,3.9476,3.9406,3.9432,3.9596,3.962,3.962,3.9527,3.9571,3.962,3.962,3.9571,3.9596,3.9596,3.962,3.962,3.962,3.962,3.962,3.962,3.962,3.962,3.962,3.962,3.962,3.962,3.962,3.9626,3.9679,3.9712,3.9804,3.9892,4.0015,4.0096,4.0176,4.0273,4.0273,4.0291,4.0291,4.0329,4.0329,4.0329,4.0329,4.0329,4.0329,4.0329,4.0329,4.0329,4.0329,4.0329,4.0329,4.0329,4.0329,4.0329,4.0329,4.0329,4.0329,4.0329,4.0329,3.7685,3.7966,3.7299,3.7009,3.7048,3.697,3.7009,3.7126,3.7242,3.7362,3.7485,3.7685,3.7898,3.7951,3.8106,3.8262,3.8352,3.8264,3.8858,3.9329,3.9514,3.9839,4.0179,4.065,4.1093,4.1438,4.1909,4.2638,4.3325,4.3535,4.3919,4.414,4.4162,4.4345,4.4252,4.4027,4.325,4.1732,4.0328,3.9658,3.962,3.962,3.962,3.962,3.962,3.962,3.962,3.962,3.962,3.962,3.962,3.962,3.962,3.962,3.962,3.962,3.962,3.9552,3.9552,3.9552,3.9596,3.962,3.962,3.962,3.962,3.962,3.962,3.962,3.962,3.962,3.962,3.962,3.962,3.962,3.962,3.962,3.962,3.962,3.962,3.962,3.962,3.9602,3.9631,3.9637,3.9661,3.9712,3.987,3.9975,4.0137,4.0234,4.0253,4.0291,4.0291,4.0291,4.0291,4.0329,4.0329,4.0329,4.0329,4.0329,4.0329,4.0329,4.0329,4.0329,4.0329,4.0329,4.0329,4.0329,4.0329,4.0329,4.0329,4.0329,4.0329,4.0329,4.0329,3.7721,3.8034,3.7523,3.7468,3.7667,3.7685,3.7703,3.7739,3.7816,3.7934,3.8089,3.8231,3.8271,3.8271,3.8207,3.8274,3.8368,3.8387,3.872,3.8939,3.9158,3.9278,3.963,3.9834,4.003,4.0592,4.1202,4.1744,4.2258,4.2791,4.3194,4.3493,4.4065,4.443,4.4346,4.3501,4.2393,4.1436,4.029,3.9639,3.962,3.962,3.962,3.962,3.962,3.962,3.962,3.962,3.962,3.962,3.962,3.962,3.962,3.962,3.962,3.962,3.962,3.962,3.962,3.962,3.962,3.962,3.962,3.962,3.962,3.962,3.962,3.962,3.962,3.962,3.962,3.962,3.962,3.962,3.962,3.962,3.962,3.9602,3.962,3.962,3.9602,3.9607,3.9637,3.967,3.9693,3.9717,3.9892,4.0077,4.0215,4.0329,4.0329,4.0329,4.0329,4.0329,4.0329,4.0329,4.0329,4.0329,4.0329,4.0329,4.0329,4.0329,4.0329,4.0329,4.0329,4.0329,4.0329,4.0329,4.0329,4.0329,4.0329,4.0329,4.0329,4.0329,4.0329,3.8047,3.8346,3.8132,3.8032,3.8083,3.8135,3.8132,3.8186,3.8258,3.8479,3.8681,3.8651,3.8652,3.859,3.8496,3.8483,3.8621,3.8634,3.8743,3.8859,3.8944,3.8918,3.8936,3.9098,3.9472,3.9844,4.0282,4.0868,4.1417,4.1605,4.2193,4.2883,4.3444,4.3707,4.3726,4.2517,4.136,4.076,4.0065,3.9639,3.962,3.962,3.962,3.962,3.962,3.962,3.962,3.962,3.962,3.962,3.962,3.962,3.962,3.962,3.962,3.962,3.962,3.962,3.962,3.962,3.962,3.962,3.962,3.962,3.962,3.962,3.962,3.962,3.962,3.962,3.962,3.962,3.962,3.962,3.962,3.962,3.9626,3.9607,3.9602,3.962,3.9631,3.9708,3.9689,3.9739,3.9848,3.987,4.0017,4.0157,4.0253,4.0329,4.0329,4.0329,4.0329,4.0329,4.0329,4.0329,4.0329,4.0329,4.0329,4.0329,4.0329,4.0329,4.0329,4.0329,4.0329,4.0329,4.0329,4.0329,4.0329,4.0329,4.0329,4.0329,4.0329,4.0329,4.0329,3.8748,3.9055,3.9027,3.8658,3.8216,3.8198,3.8245,3.8373,3.8548,3.8752,3.8925,3.8913,3.8892,3.8862,3.8803,3.8803,3.8862,3.8892,3.8939,3.8979,3.9054,3.898,3.9036,3.9165,3.9309,3.9483,3.9982,4.0525,4.0765,4.1188,4.1728,4.1954,4.2243,4.2524,4.3069,4.1691,4.0865,4.0666,3.9915,3.9695,3.962,3.962,3.962,3.962,3.962,3.962,3.962,3.962,3.962,3.962,3.962,3.962,3.962,3.962,3.962,3.962,3.962,3.962,3.962,3.962,3.962,3.962,3.962,3.962,3.962,3.962,3.962,3.962,3.962,3.962,3.962,3.962,3.962,3.9626,3.9626,3.965,3.9656,3.9637,3.9656,3.9679,3.9796,3.9867,3.9804,3.9826,3.9954,4.0077,4.0196,4.0272,4.0291,4.0329,4.0329,4.0329,4.0329,4.0329,4.0329,4.0329,4.0329,4.0329,4.0329,4.0329,4.0329,4.0329,4.0329,4.0329,4.0329,4.0329,4.0329,4.0329,4.0329,4.0329,4.0329,4.0329,4.0329,4.0329,4.0329,3.8865,3.9156,3.898,3.8942,3.8931,3.8865,3.8923,3.9073,3.92,3.9305,3.9324,3.9202,3.9101,3.9045,3.8979,3.8979,3.9073,3.9101,3.9147,3.9354,3.9328,3.9362,3.9395,3.9395,3.9446,3.9533,3.9934,4.0065,4.0009,4.0497,4.0835,4.1041,4.121,4.136,4.1473,4.0891,4.0628,4.0065,3.9733,3.962,3.962,3.962,3.962,3.962,3.962,3.962,3.962,3.962,3.962,3.962,3.962,3.962,3.962,3.962,3.962,3.962,3.962,3.962,3.962,3.962,3.962,3.962,3.962,3.962,3.962,3.962,3.962,3.962,3.962,3.962,3.962,3.962,3.962,3.9637,3.9661,3.9727,3.9731,3.9712,3.9712,3.98,3.9889,3.9973,3.9975,3.9996,4.0117,4.0118,4.0234,4.0253,4.0291,4.0291,4.0329,4.0329,4.0329,4.0329,4.0329,4.0329,4.0329,4.0329,4.0329,4.0329,4.0329,4.0329,4.0329,4.0329,4.0329,4.0329,4.0329,4.0329,4.0329,4.0329,4.0329,4.0329,4.0329,4.0329,4.0329,3.9027,3.9229,3.9082,3.9156,3.9418,3.9328,3.9399,3.9546,3.9596,3.962,3.9552,3.9388,3.9335,3.9309,3.9229,3.9175,3.9335,3.9335,3.9362,3.9596,3.9596,3.9577,3.9577,3.962,3.9577,3.962,3.962,3.9658,3.9714,3.9639,3.9934,4.029,4.0384,4.0403,4.0403,4.0272,4.014,3.9752,3.962,3.962,3.962,3.962,3.962,3.962,3.962,3.962,3.962,3.962,3.962,3.962,3.962,3.962,3.962,3.962,3.962,3.962,3.962,3.962,3.962,3.962,3.962,3.962,3.962,3.962,3.962,3.962,3.962,3.962,3.962,3.9626,3.9631,3.965,3.9679,3.9712,3.9777,3.98,3.9845,3.9804,3.9826,3.9911,4.0017,4.0077,4.0137,4.0195,4.0273,4.0234,4.0234,4.0253,4.0291,4.0291,4.0329,4.0329,4.0329,4.0329,4.0329,4.0329,4.0329,4.0329,4.0329,4.0329,4.0329,4.0329,4.0329,4.0329,4.0329,4.0329,4.0329,4.0329,4.0329,4.0329,4.0329,4.0329,4.0329,4.0329,4.0329,3.9301,3.9373,3.9418,3.9444,3.9495,3.9495,3.9546,3.9577,3.962,3.962,3.9596,3.9577,3.9552,3.9596,3.9577,3.9552,3.9533,3.9552,3.9577,3.9596,3.962,3.962,3.962,3.962,3.962,3.962,3.962,3.962,3.962,3.962,3.9677,3.9714,3.9827,3.9827,3.9827,3.9808,3.9752,3.9639,3.962,3.962,3.962,3.962,3.962,3.962,3.962,3.962,3.962,3.962,3.962,3.962,3.962,3.962,3.962,3.962,3.962,3.962,3.962,3.962,3.962,3.962,3.962,3.962,3.9626,3.962,3.962,3.962,3.962,3.9602,3.9626,3.9661,3.9689,3.9712,3.9758,3.9826,3.9867,3.9911,3.9954,3.9954,3.9994,4.0077,4.0177,4.0253,4.0253,4.031,4.0346,4.0291,4.0273,4.0273,4.0291,4.0291,4.0329,4.0329,4.0329,4.0329,4.0329,4.0329,4.0329,4.0329,4.0329,4.0329,4.0329,4.0329,4.0329,4.0329,4.0329,4.0329,4.0329,4.0329,4.0329,4.0329,4.0329,4.0329,4.0329,4.0329,4.0329,3.9425,3.9469,3.952,3.9571,3.9552,3.9571,3.9577,3.962,3.962,3.962,3.962,3.962,3.962,3.962,3.962,3.962,3.962,3.962,3.962,3.962,3.962,3.962,3.962,3.962,3.962,3.962,3.962,3.962,3.962,3.962,3.962,3.9639,3.962,3.962,3.962,3.962,3.962,3.962,3.962,3.962,3.962,3.962,3.962,3.962,3.962,3.962,3.962,3.962,3.962,3.9602,3.962,3.962,3.962,3.962,3.962,3.962,3.962,3.962,3.962,3.962,3.9645,3.9698,3.9731,3.9703,3.9674,3.965,3.965,3.9703,3.9712,3.9766,3.9813,3.9876,3.9939,4.0039,4.008,4.008,4.0119,4.0139,4.0177,4.0234,4.0344,4.0362,4.0363,4.0379,4.0413,4.0346,4.031,4.0329,4.031,4.0329,4.0329,4.0329,4.0329,4.0329,4.0329,4.0329,4.0329,4.0329,4.0329,4.0329,4.0329,4.0329,4.0329,4.0329,4.0329,4.0329,4.0329,4.0329,4.0329,4.0329,4.0329,4.0329,4.0329,4.0329,4.0329,3.952,3.9546,3.9596,3.962,3.962,3.962,3.962,3.962,3.962,3.962,3.962,3.962,3.962,3.962,3.962,3.962,3.962,3.962,3.962,3.962,3.962,3.962,3.962,3.962,3.962,3.962,3.962,3.962,3.962,3.962,3.962,3.962,3.962,3.962,3.962,3.962,3.962,3.962,3.962,3.962,3.962,3.962,3.962,3.9645,3.9645,3.9645,3.9645,3.9626,3.965,3.9684,3.9708,3.9781,3.9804,3.9867,3.9867,3.987,3.987,3.987,3.9892,3.987,3.9848,3.987,3.9958,3.9939,3.9916,3.9895,3.9895,3.9897,3.9899,3.9922,3.9983,4.0062,4.0177,4.0306,4.0288,4.0288,4.0306,4.0323,4.0358,4.0411,4.0444,4.0441,4.0457,4.0469,4.0469,4.0476,4.0463,4.0479,4.0432,4.0364,4.0329,4.0329,4.0329,4.0329,4.031,4.0347,4.0347,4.0329,4.0329,4.0329,4.0329,4.031,4.0329,4.031,4.0329,4.0329,4.0328,4.031,4.0329,4.0329,4.0347,4.0329,4.0329,4.0329,4.0329,3.9583,3.9656,3.965,3.9698,3.965,3.9679,3.9679,3.965,3.9674,3.9645,3.962,3.962,3.962,3.962,3.962,3.962,3.962,3.962,3.962,3.962,3.962,3.962,3.962,3.962,3.962,3.962,3.962,3.9626,3.965,3.9656,3.9679,3.965,3.9698,3.975,3.9754,3.975,3.9754,3.9777,3.975,3.975,3.9674,3.965,3.9626,3.9679,3.9698,3.9698,3.9679,3.9703,3.975,3.9851,3.9939,4.0022,4.0081,4.0139,4.0158,4.0139,4.012,4.0101,4.0101,4.0101,4.0101,4.0139,4.0212,4.0211,4.0193,4.0101,4.0043,4.0082,4.0101,4.0137,4.021,4.0281,4.0367,4.0454,4.0454,4.0454,4.0454,4.0469,4.0469,4.0534,4.0564,4.0579,4.0549,4.0545,4.0593,4.0593,4.0579,4.0564,4.0554,4.0447,4.0396,4.0382,4.0381,4.0415,4.0398,4.0415,4.0381,4.0364,4.0346,4.0382,4.0413,4.0381,4.0347,4.0382,4.0432,4.0381,4.0363,4.0381,4.0398,4.0398,4.0398,4.0364,4.0346,4.0364,4.0346,4.0059,4.006,4.006,4.006,4.006,4.006,4.004,4.004,4.007,3.9894,3.9645,3.962,3.9645,3.965,3.965,3.9674,3.965,3.9698,3.962,3.965,3.965,3.9698,3.9626,3.9698,3.965,3.962,3.9626,3.9708,3.98,3.9848,3.9914,4.002,4.002,3.9979,3.9979,4.0,3.9979,3.9979,3.9979,3.9935,3.987,3.987,3.987,3.9958,4.002,4.0,4.0,4.004,4.006,4.012,4.012,4.0158,4.0196,4.0214,4.0214,4.0196,4.0232,4.0267,4.0266,4.0264,4.0262,4.0296,4.0342,4.0389,4.0389,4.0257,4.0224,4.026,4.0293,4.0377,4.0423,4.0487,4.0549,4.0582,4.0615,4.0615,4.0615,4.0615,4.0602,4.0662,4.072,4.0688,4.0662,4.0662,4.0662,4.0648,4.0602,4.0588,4.0621,4.0564,4.0579,4.0549,4.0534,4.0534,4.0504,4.0492,4.046,4.0476,4.0492,4.0489,4.0504,4.0492,4.046,4.0523,4.0534,4.0473,4.0457,4.0519,4.0519,4.0473,4.0476,4.046,4.0476,4.0508,4.046,4.0196,4.0196,4.0196,4.0196,4.0196,4.0196,4.0196,4.0196,4.0196,4.0076,3.9889,3.9879,3.9879,3.9867,3.987,3.9826,3.9848,3.9889,3.9914,3.9892,3.9845,3.9892,3.987,3.9826,3.9892,3.987,3.987,3.9956,4.002,4.0059,4.012,4.0214,4.0195,4.0213,4.0195,4.0195,4.0213,4.0196,4.0213,4.0177,4.0101,4.012,4.008,4.0196,4.0214,4.0214,4.0196,4.0214,4.0269,4.0356,4.0403,4.0469,4.0485,4.05,4.0485,4.0469,4.0485,4.0466,4.0446,4.0442,4.0438,4.0496,4.0571,4.0674,4.0667,4.0584,4.0584,4.0617,4.0617,4.0662,4.0667,4.0734,4.0734,4.0754,4.0765,4.0784,4.0784,4.0784,4.0784,4.0784,4.0826,4.0807,4.0796,4.0796,4.0796,4.0796,4.073,4.0718,4.0718,4.0694,4.0706,4.0694,4.0668,4.0615,4.0559,4.0564,4.0545,4.0574,4.0615,4.0588,4.0559,4.0574,4.0588,4.0602,4.0635,4.0574,4.0574,4.0615,4.0602,4.0545,4.0545,4.0559,4.0602,4.0615,4.0588,4.0286,4.0286,4.0286,4.0286,4.0286,4.0286,4.0286,4.0286,4.0286,4.0286,4.0269,4.0273,4.0272,4.0215,4.0196,4.0196,4.0177,4.01,4.0139,4.0158,4.0158,4.01,4.012,4.0158,4.012,4.012,4.0139,4.0177,4.0213,4.0251,4.0251,4.0269,4.0267,4.0285,4.0267,4.0285,4.0336,4.037,4.0386,4.0403,4.037,4.0356,4.0304,4.0286,4.0286,4.0267,4.0267,4.0302,4.0406,4.05,4.0662,4.0688,4.072,4.07,4.072,4.072,4.072,4.0732,4.0757,4.075,4.0773,4.0807,4.0877,4.0888,4.0868,4.0868,4.0868,4.0868,4.0877,4.0858,4.0869,4.0869,4.0869,4.0869,4.0898,4.0898,4.0898,4.0898,4.0898,4.0898,4.0898,4.0898,4.0898,4.0907,4.0888,4.0888,4.0888,4.0888,4.0869,4.0839,4.0798,4.0787,4.0754,4.0706,4.0655,4.0655,4.0681,4.0694,4.0718,4.0668,4.0642,4.0694,4.0706,4.0681,4.0668,4.0681,4.0681,4.0694,4.0668,4.0642,4.0681,4.0706,4.0706,4.0718,4.075,4.0673,4.0673,4.0673,4.0673,4.0673,4.0693,4.0693,4.0673,4.0673,4.0693,4.0646,4.0631,4.0539,4.0214,4.0196,4.0233,4.0304,4.0269,4.0214,4.0196,4.0286,4.0251,4.0251,4.0321,4.0233,4.0233,4.0286,4.0304,4.0422,4.0438,4.0534,4.0635,4.0648,4.0675,4.0662,4.0649,4.0623,4.061,4.0623,4.0649,4.0623,4.0602,4.0583,4.0612,4.0681,4.0694,4.0707,4.0681,4.0706,4.0742,4.0773,4.0804,4.0804,4.0804,4.0804,4.0804,4.0815,4.0846,4.0856,4.0867,4.0858,4.0859,4.0888,4.0888,4.0888,4.0888,4.0898,4.0898,4.0888,4.0888,4.0878,4.0878,4.0878,4.0878,4.0898,4.0898,4.0907,4.0907,4.0907,4.0907,4.0907,4.0907,4.0907,4.0888,4.0888,4.0888,4.0888,4.0888,4.0888,4.0888,4.0888,4.0869,4.0839,4.0859,4.0849,4.0798,4.0798,4.0828,4.0828,4.0776,4.0776,4.0839,4.0839,4.0796,4.0807,4.0828,4.0828,4.0765,4.0787,4.0787,4.0839,4.0849,4.0839,4.0828,4.0839]},{"header":{"parameterUnit":"m.s-1","parameterCategory":1,"la1":31.0,"la2":29.5877,"lo1":-88.7671,"lo2":-86.6584,"dy":0.0162,"dx":0.0185,"nx":115,"ny":88,"refTime":"2023-10-19T06:00:00:Z","depth":0,"parameterNumber":3,"parameterNumberName":"V-component_of_WINDS"},"data":[0.0,0.0,0.0,0.0,0.0,0.0,0.0,0.0,0.0,0.0,0.0,0.0,0.0,0.0,0.0,0.0,0.0,0.0,0.0,0.0,0.0,0.0,0.0,0.0,0.0,0.0,0.0,0.0,0.0,0.0,0.0,0.0,0.0,0.0,0.0,0.0,0.0,0.0,0.0,0.0,0.0,0.0,0.0,0.0,0.0,0.0,0.0,0.0,0.0,0.0,0.0,0.0,0.0,0.0,0.0,0.0,0.0,0.0,0.0,0.0,0.0,0.0,0.0,0.0,0.0,0.0,0.0,0.0,0.0,0.0,0.0,0.0,0.0,0.0,0.0,0.0,0.0,0.0,0.0,0.0,0.0,0.0,0.0,0.0,0.0,0.0,0.0,0.0,0.0,0.0,0.0,0.0,0.0,0.0,0.0,0.0,0.0,0.0,0.0,0.0,0.0,0.0,0.0,0.0,0.0,0.0,0.0,0.0,0.0,0.0,0.0,0.0,0.0,0.0,0.0,0.0,0.0,0.0,0.0,0.0,0.0,0.0,0.0,0.0,0.0,0.0,0.0,0.0,0.0,0.0,0.0,0.0,0.0,0.0,0.0,0.0,0.0,0.0,0.0,0.0,0.0,0.0,0.0,0.0,0.0,0.0,0.0,0.0,0.0,0.0,0.0,0.0,0.0,0.0,0.0,0.0,0.0,0.0,0.0,0.0,0.0,0.0,0.0,0.0,0.0,0.0,0.0,0.0,0.0,0.0,0.0,0.0,0.0,0.0,0.0,0.0,0.0,0.0,0.0,0.0,0.0,0.0,0.0,0.0,0.0,0.0,0.0,0.0,0.0,0.0,0.0,0.0,0.0,0.0,0.0,0.0,0.0,0.0,0.0,0.0,0.0,0.0,0.0,0.0,0.0,0.0,0.0,0.0,0.0,0.0,0.0,0.0,0.0,0.0,0.0,0.0,0.0,0.0,0.0,0.0,0.0,0.0,0.0,0.0,0.0,0.0,0.0,0.0,0.0,0.0,0.0,0.0,0.0,0.0,0.0,0.0,0.0,0.0,0.0,0.0,0.0,0.0,0.0,0.0,0.0,0.0,0.0,0.0,0.0,0.0,0.0,0.0,0.0,0.0,0.0,0.0,0.0,0.0,0.0,0.0,0.0,0.0,0.0,0.0,0.0,0.0,0.0,0.0,0.0,0.0,0.0,0.0,0.0,0.0,0.0,0.0,0.0,0.0,0.0,0.0,0.0,0.0,0.0,0.0,0.0,0.0,0.0,0.0,0.0,0.0,0.0,0.0,0.0,0.0,0.0,0.0,0.0,0.0,0.0,0.0,0.0,0.0,0.0,0.0,0.0,0.0,0.0,0.0,0.0,0.0,0.0,0.0,0.0,0.0,0.0,0.0,0.0,0.0,0.0,0.0,0.0,0.0,0.0,0.0,0.0,0.0,0.0,0.0,0.0,0.0,0.0,0.0,0.0,0.0,0.0,0.0,0.0,0.0,0.0,0.0,0.0,0.0,0.0,0.0,0.0,0.0,0.0,0.0,0.0,0.0,0.0,0.0,0.0,0.0,0.0,0.0,0.0,0.0,0.0,0.0,0.0,0.0,0.0,0.0,0.0,0.0,0.0,0.0,0.0,0.0,0.0,0.0,0.0,0.0,0.0,0.0,0.0,0.0,0.0,0.0,0.0,0.0,0.0,0.0,0.0,0.0,0.0,0.0,0.0,0.0,0.0,0.0,0.0,0.0,0.0,0.0,0.0,0.0,0.0,0.0,0.0,0.0,0.0,0.0,0.0,0.0,0.0,0.0,0.0,0.0,0.0,0.0,0.0,0.0,0.0,0.0,0.0,0.0,0.0,0.0,0.0,0.0,0.0,0.0,0.0,0.0,0.0,0.0,0.0,0.0,0.0,0.0,0.0,0.0,0.0,0.0,0.0,0.0,0.0,0.0,0.0,0.0,0.0,0.0,0.0,0.0,0.0,0.0,0.0,0.0,0.0,0.0,0.0,0.0,0.0,0.0,0.0,0.0,0.0,0.0,0.0,0.0,0.0,0.0,0.0,0.0,0.0,0.0,0.0,0.0,0.0,0.0,0.0,0.0,0.0,0.0,0.0,0.0,0.0,0.0,0.0,0.0,0.0,0.0,0.0,0.0,0.0,0.0,0.0,0.0,0.0,0.0,0.0,0.0,0.0,0.0,0.0,0.0,0.0,0.0,0.0,0.0,0.0,0.0,0.0,0.0,0.0,0.0,0.0,0.0,0.0,0.0,0.0,0.0,0.0,0.0,0.0,0.0,0.0,0.0,0.0,0.0,0.0,0.0,0.0,0.0,0.0,0.0,0.0,0.0,0.0,0.0,0.0,0.0,0.0,0.0,0.0,0.0,0.0,0.0,0.0,0.0,0.0,0.0,0.0,0.0,0.0,0.0,0.0,0.0,0.0,0.0,0.0,0.0,0.0,0.0,0.0,0.0,0.0,0.0,0.0,0.0,0.0,0.0,0.0,0.0,0.0,0.0,0.0,0.0,0.0,0.0,0.0,0.0,0.0,0.0,0.0,0.0,0.0,0.0,0.0,0.0,0.0,0.0,0.0,0.0,0.0,0.0,0.0,0.0,0.0,0.0,0.0,0.0,0.0,0.0,0.0,0.0,0.0,0.0,0.0,0.0,0.0,0.0,0.0,0.0,0.0,0.0,0.0,0.0,0.0,0.0,0.0,0.0,0.0,0.0,0.0,0.0,0.0,0.0,0.0,0.0,0.0,0.0,0.0,0.0,0.0,0.0,0.0,0.0,0.0,0.0,0.0,0.0,0.0,0.0,0.0,0.0,0.0,0.0,0.0,0.0,0.0,0.0,0.0,0.0,0.0,0.0,0.0,0.0,0.0,0.0,0.0,0.0,0.0,0.0,0.0,0.0,0.0,0.0,0.0,0.0,0.0,0.0,0.0,0.0,0.0,0.0,0.0,0.0,0.0,0.0,0.0,0.0,0.0,0.0,0.0,0.0,0.0,0.0,0.0,0.0,0.0,0.0,0.0,0.0,0.0,0.0,0.0,0.0,0.0,0.0,0.0,0.0,0.0,0.0,0.0,0.0,0.0,0.0,0.0,0.0,0.0,0.0,0.0,0.0,0.0,0.0,0.0,0.0,0.0,0.0,0.0,0.0,0.0,0.0,0.0,0.0,0.0,0.0,0.0,0.0,0.0,0.0,0.0,0.0,0.0,0.0,0.0,0.0,0.0,0.0,0.0,0.0,0.0,0.0,0.0,0.0,0.0,0.0,0.0,0.0,0.0,0.0,0.0,0.0,0.0,0.0,0.0,0.0,0.0,0.0,0.0,0.0,0.0,0.0,0.0,0.0,0.0,0.0,0.0,0.0,0.0,0.0,0.0,0.0,0.0,0.0,0.0,0.0,0.0,0.0,0.0,0.0,0.0,0.0,0.0,0.0,0.0,0.0,0.0,0.0,0.0,0.0,0.0,0.0,0.0,0.0,0.0,0.0,0.0,0.0,0.0,0.0,0.0,0.0,0.0,0.0,0.0,0.0,0.0,0.0,0.0,0.0,0.0,0.0,0.0,0.0,0.0,0.0,0.0,0.0,0.0,0.0,0.0,0.0,0.0,0.0,0.0,0.0,0.0,0.0,0.0,0.0,0.0,0.0,0.0,0.0,0.0,0.0,0.0,0.0,0.0,0.0,0.0,0.0,0.0,0.0,0.0,0.0,0.0,0.0,0.0,0.0,0.0,0.0,0.0,0.0,0.0,0.0,0.0,0.0,0.0,0.0,0.0,0.0,0.0,0.0,0.0,0.0,0.0,0.0,0.0,0.0,0.0,0.0,0.0,0.0,0.0,0.0,0.0,0.0,0.0,0.0,0.0,0.0,0.0,0.0,0.0,0.0,0.0,0.0,0.0,0.0,0.0,0.0,0.0,0.0,0.0,0.0,0.0,0.0,0.0,0.0,0.0,0.0,0.0,0.0,0.0,0.0,0.0,0.0,0.0,0.0,0.0,0.0,0.0,0.0,0.0,0.0,0.0,0.0,0.0,0.0,0.0,0.0,0.0,0.0,0.0,0.0,0.0,0.0,0.0,0.0,0.0,0.0,0.0,0.0,0.0,0.0,0.0,0.0,0.0,0.0,0.0,0.0,0.0,0.0,0.0,0.0,0.0,0.0,0.0,0.0,0.0,0.0,0.0,0.0,0.0,0.0,0.0,0.0,0.0,0.0,0.0,0.0,0.0,0.0,0.0,0.0,0.0,0.0,0.0,0.0,0.0,0.0,1.2305,0.0,0.0,0.0,0.0,0.0,0.0,0.0,0.0,0.0,0.0,0.0,0.0,0.0,0.0,0.0,0.0,0.0,0.0,0.0,0.0,0.0,0.0,0.0,0.0,0.0,0.0,0.0,0.0,0.0,0.0,0.0,0.0,0.0,0.0,0.0,0.0,0.0,0.0,0.0,0.0,0.0,0.0,0.0,0.0,0.0,0.0,0.0,0.0,0.0,0.0,0.0,0.0,0.0,0.0,0.0,0.0,0.0,0.0,0.0,0.0,0.0,0.0,0.0,0.0,0.0,0.0,0.0,0.0,0.0,0.0,0.0,0.0,0.0,0.0,0.0,0.0,0.0,0.0,0.0,0.0,0.0,0.0,0.0,0.0,0.0,0.0,0.0,0.0,0.0,0.0,0.0,0.0,0.0,0.0,0.0,0.0,0.0,0.0,0.0,0.0,0.0,0.0,0.0,0.0,0.0,0.0,0.0,0.0,0.0,0.0,1.2305,1.2305,1.2305,1.2305,1.2305,0.0,0.0,0.0,0.0,0.0,0.0,0.0,0.0,0.0,0.0,0.0,0.0,0.0,0.0,0.0,0.0,0.0,0.0,0.0,0.0,0.0,0.0,0.0,0.0,0.0,0.0,0.0,0.0,0.0,0.0,0.0,0.0,0.0,0.0,0.0,0.0,0.0,0.0,0.0,0.0,0.0,0.0,0.0,0.0,0.0,0.0,0.0,0.0,0.0,0.0,0.0,0.0,0.0,0.0,0.0,0.0,0.0,0.0,0.0,0.0,0.0,0.0,0.0,0.0,0.0,0.0,0.0,0.0,0.0,0.0,0.0,0.0,0.0,0.0,0.0,0.0,0.0,0.0,0.0,0.0,0.0,0.0,0.0,0.0,0.0,0.0,0.0,0.0,0.0,0.0,0.0,0.0,0.0,0.0,0.0,0.0,0.0,0.0,0.0,0.0,0.0,0.0,0.0,0.0,0.0,0.0,0.0,0.0,0.0,0.0,0.0,0.0,1.2305,1.2305,1.2231,0.0,0.0,0.0,0.0,0.0,0.0,0.0,0.0,0.0,0.0,0.0,0.0,0.0,0.0,0.0,0.0,0.0,0.0,0.0,0.0,0.0,0.0,0.0,0.0,0.0,0.0,0.0,0.0,0.0,0.0,0.0,0.0,0.0,0.0,0.0,0.0,0.0,0.0,0.0,0.0,0.0,0.0,0.0,0.0,0.0,0.0,0.0,0.0,0.0,0.0,0.0,0.0,0.0,0.0,0.0,0.0,0.0,0.0,0.0,0.0,0.0,0.0,0.0,0.0,0.0,0.0,0.0,0.0,0.0,0.0,0.0,0.0,0.0,0.0,0.0,0.0,0.0,0.0,0.0,0.0,0.0,0.0,0.0,0.0,0.0,0.0,0.0,0.0,0.0,0.0,0.0,0.0,0.0,0.0,0.0,0.0,0.0,0.0,0.0,0.0,0.0,0.0,0.0,0.0,0.0,0.0,0.0,0.0,0.0,0.0,1.2305,1.2305,1.2305,0.0,1.2003,0.0,0.0,0.0,0.0,0.0,0.0,0.0,0.0,0.0,0.0,0.0,0.0,0.0,0.0,0.0,0.0,0.0,0.0,0.0,0.0,0.0,0.0,0.0,0.0,0.0,0.0,0.0,0.0,0.0,0.0,0.0,0.0,0.0,0.0,0.0,0.0,0.0,0.0,0.0,0.0,0.0,0.0,0.0,0.0,0.0,0.0,0.0,0.0,0.0,0.0,0.0,0.0,0.0,0.0,0.0,0.0,0.0,0.0,0.0,0.0,0.0,0.0,0.0,0.0,0.0,0.0,0.0,0.0,0.0,0.0,0.0,0.0,0.0,0.0,0.0,0.0,0.0,0.0,0.0,0.0,0.0,0.0,0.0,0.0,0.0,0.0,0.0,0.0,0.0,0.0,0.0,0.0,0.0,0.0,0.0,0.0,0.0,0.0,0.0,0.0,0.0,0.0,0.0,0.0,0.0,0.0,0.0,0.0,0.0,0.0,1.2305,1.2305,1.2305,1.2231,0.0,0.0,0.0,0.0,0.0,0.0,0.0,0.0,0.0,0.0,0.0,0.0,0.0,0.0,0.0,0.0,0.0,0.0,0.0,0.0,0.0,0.0,0.0,0.0,0.0,0.0,0.0,0.0,0.0,0.0,0.0,0.0,0.0,0.0,0.0,0.0,0.0,0.0,0.0,0.0,0.0,0.0,0.0,0.0,0.0,0.0,0.0,0.0,0.0,0.0,0.0,0.0,0.0,0.0,0.0,0.0,0.0,0.0,0.0,0.0,0.0,0.0,0.0,0.0,0.0,0.0,0.0,0.0,0.0,0.0,0.0,0.0,0.0,0.0,0.0,0.0,0.0,0.0,0.0,0.0,0.0,0.0,0.0,0.0,0.0,0.0,0.0,0.0,0.0,0.0,0.0,0.0,0.0,0.0,0.0,0.0,0.0,0.0,0.0,0.0,0.0,0.0,0.0,0.0,0.0,0.0,0.0,0.0,0.0,0.0,1.2305,1.2305,1.2305,1.2224,1.215,1.1935,0.0,0.0,0.0,0.0,0.0,0.0,0.0,0.0,0.0,0.0,0.0,0.0,0.0,0.0,0.0,0.0,0.0,0.0,0.0,0.0,0.0,0.0,0.0,0.0,0.0,0.0,0.0,0.0,0.0,0.0,0.0,0.0,0.0,0.0,0.0,0.0,0.0,0.0,0.0,0.0,0.0,0.0,0.0,0.0,0.0,0.0,0.0,0.0,0.0,0.0,0.0,0.0,0.0,0.0,0.0,0.0,0.0,0.0,0.0,0.0,0.0,0.0,0.0,0.0,0.0,0.0,0.0,0.0,0.0,0.0,0.0,0.0,0.0,0.0,0.0,0.0,0.0,0.0,0.0,0.0,0.0,0.0,0.0,0.0,0.0,0.0,0.0,0.0,0.0,0.0,0.0,0.0,0.0,0.0,0.0,0.0,0.0,0.0,0.0,0.0,0.0,0.0,0.0,0.0,0.0,0.0,0.0,0.0,1.2305,1.2305,1.2305,1.2305,1.2083,1.1935,0.0,0.0,0.0,0.0,0.0,0.0,0.0,0.0,0.0,0.0,0.0,0.0,0.0,0.0,0.0,0.0,0.0,0.0,0.0,0.0,0.0,0.0,0.0,0.0,0.0,0.0,0.0,0.0,0.0,0.0,0.0,0.0,0.0,0.0,0.0,0.0,0.0,0.0,0.0,0.0,0.0,0.0,0.0,0.0,0.0,0.0,0.0,0.0,0.0,0.0,0.0,0.0,0.0,0.0,0.0,0.0,0.0,0.0,0.0,0.0,0.0,0.0,0.0,0.0,0.0,0.0,0.0,0.0,0.0,0.0,0.0,0.0,0.0,0.0,0.0,0.0,0.0,0.0,0.0,0.0,0.0,0.0,0.0,0.0,0.0,0.0,0.0,0.0,0.0,0.0,0.0,0.0,0.0,0.0,0.0,0.0,0.0,0.0,0.0,0.0,0.0,0.0,0.0,0.0,0.0,0.0,0.0,0.0,0.0,1.2077,1.2003,1.1929,1.1929,1.1855,1.1706,0.0,0.0,0.0,0.0,0.0,0.0,0.0,0.0,0.0,0.0,0.0,0.0,0.0,0.0,0.0,0.0,0.0,0.0,0.0,0.0,0.0,0.0,0.0,0.0,0.0,0.0,0.0,0.0,0.0,0.0,0.0,0.0,0.0,0.0,0.0,0.0,0.0,0.0,0.0,0.0,0.0,0.0,0.0,0.0,0.0,0.0,0.0,0.0,0.0,0.0,0.0,0.0,0.0,0.0,0.0,0.0,0.0,0.0,0.0,0.0,0.0,0.0,0.0,0.0,0.0,0.0,0.0,0.0,0.0,0.0,0.0,0.0,0.0,0.0,0.0,0.0,0.0,0.0,0.0,0.0,0.0,0.0,0.0,0.0,0.0,0.0,0.0,0.0,0.0,0.0,0.0,0.0,0.0,0.0,0.0,0.0,0.0,0.0,0.0,0.0,0.0,0.0,0.0,0.0,0.0,0.0,0.0,0.0,0.0,1.1787,0.0,1.1632,1.1632,1.1558,1.149,0.0,0.0,0.0,0.0,0.0,0.0,0.0,0.0,0.0,0.0,0.0,0.0,0.0,0.0,0.0,0.0,0.0,0.0,0.0,0.0,0.0,0.0,0.0,0.0,0.0,0.0,0.0,0.0,0.0,0.0,0.0,0.0,0.0,0.0,0.0,0.0,0.0,0.0,0.0,0.0,0.0,0.0,0.0,0.0,0.0,0.0,0.0,0.0,0.0,0.0,0.0,0.0,0.0,0.0,0.0,0.0,0.0,0.0,0.0,0.0,0.0,0.0,0.0,0.0,0.0,0.0,0.0,0.0,0.0,0.0,0.0,0.0,0.0,0.0,0.0,0.0,0.0,0.0,0.0,0.0,0.0,0.0,0.0,0.0,0.0,0.0,0.0,0.0,0.0,0.0,0.0,0.0,0.0,0.0,0.0,0.0,0.0,0.0,0.0,0.0,0.0,0.0,0.0,0.0,0.0,0.0,0.0,0.0,1.1781,1.1403,1.1409,1.1335,1.1329,1.1186,1.1186,0.0,0.0,0.0,0.0,0.0,0.0,0.0,0.0,0.0,0.0,0.0,0.0,0.0,0.0,0.0,0.0,0.0,0.0,0.0,0.0,0.0,0.0,0.0,0.0,0.0,0.0,0.0,0.0,0.0,0.0,0.0,0.0,0.0,0.0,0.0,0.0,0.0,0.0,0.0,0.0,0.0,0.0,0.0,0.0,0.0,0.0,0.0,0.0,0.0,0.0,0.0,0.0,0.0,0.0,0.0,0.0,0.0,0.0,0.0,0.0,0.0,0.0,0.0,0.0,0.0,0.0,0.0,0.0,0.0,0.0,0.0,0.0,0.0,0.0,0.0,0.0,0.0,0.0,0.0,0.0,0.0,0.0,0.0,0.0,0.0,0.0,0.0,0.0,0.0,0.0,0.0,0.0,0.0,0.0,0.0,0.0,0.0,0.0,0.0,0.0,0.0,0.0,0.0,0.0,0.0,0.0,0.0,0.0,0.0,1.0956,1.0812,1.0743,1.0588,1.0669,1.0812,0.0,0.0,0.0,0.0,0.0,0.0,0.0,0.0,0.0,0.0,0.0,0.0,0.0,0.0,0.0,0.0,0.0,0.0,0.0,0.0,0.0,0.0,0.0,0.0,0.0,0.0,0.0,0.0,0.0,0.0,0.0,0.0,0.0,0.0,0.0,0.0,0.0,0.0,0.0,0.0,0.0,0.0,0.0,0.0,0.0,0.0,0.0,0.0,0.0,0.0,0.0,0.0,0.0,0.0,0.0,0.0,0.0,0.0,0.0,0.0,0.0,0.0,0.0,0.0,0.0,0.0,0.0,0.0,0.0,0.0,0.0,0.0,0.0,0.0,0.0,0.0,0.0,0.0,0.0,0.0,0.0,0.0,0.0,0.0,0.0,0.0,0.0,0.0,0.0,0.0,0.0,0.0,0.0,0.0,0.0,0.0,0.0,0.0,0.0,0.0,0.0,0.0,0.0,0.0,0.0,0.0,0.0,0.0,0.0,0.9986,0.9981,0.9911,0.976,0.9986,1.0212,1.0594,0.0,0.0,0.0,0.0,0.0,0.0,0.0,0.0,0.0,0.0,0.0,0.0,0.0,0.0,0.0,0.0,0.0,0.0,0.0,0.0,0.0,0.0,0.0,0.0,0.0,0.0,0.0,0.0,0.0,0.0,0.0,0.0,0.0,0.0,0.0,0.0,0.0,0.0,0.0,0.0,0.0,0.0,0.0,0.0,0.0,0.0,0.0,0.0,0.0,0.0,0.0,0.0,0.0,0.0,0.0,0.0,0.0,0.0,0.0,0.0,0.0,0.0,0.0,0.0,0.0,0.0,0.0,0.0,0.0,0.0,0.0,0.0,0.0,0.0,0.0,0.0,0.0,0.0,0.0,0.0,0.0,0.0,0.0,0.0,0.0,0.0,0.0,0.0,0.0,0.0,0.0,0.0,0.0,0.0,0.0,0.0,0.0,0.0,0.0,0.0,0.0,0.0,0.0,0.0,0.0,0.0,0.0,0.0,0.8627,0.8775,0.8927,0.8922,0.915,0.9528,0.0,0.0,0.0,0.0,0.0,0.0,0.0,0.0,0.0,0.0,0.0,0.0,0.0,0.0,0.0,0.0,0.0,0.0,0.0,0.0,0.0,0.0,0.0,0.0,0.0,0.0,0.0,0.0,0.0,0.0,0.0,0.0,0.0,0.0,0.0,0.0,0.0,0.0,0.0,0.0,0.0,0.0,0.0,0.0,0.0,0.0,0.0,0.0,0.0,0.0,0.0,0.0,0.0,0.0,0.0,0.0,0.0,0.0,0.0,0.0,0.0,0.0,0.0,0.0,0.0,0.0,0.0,0.0,0.0,0.0,0.0,0.0,0.0,0.0,0.0,0.0,0.0,0.0,0.0,0.0,0.0,0.0,0.0,0.0,0.0,0.0,0.0,0.0,0.0,0.0,0.0,0.0,0.0,0.0,0.0,0.0,0.0,0.0,0.0,0.0,0.0,0.0,0.0,0.0,0.0,0.0,0.0,0.0,0.0,0.8089,0.7625,0.7702,0.8084,0.8618,0.9074,0.0,0.0,0.0,0.0,0.0,0.0,0.0,0.0,0.0,0.0,0.0,0.0,0.0,0.0,0.0,0.0,0.0,0.0,0.0,0.0,0.0,0.0,0.0,0.0,0.0,0.0,0.0,0.0,0.0,0.0,0.0,0.0,0.0,0.0,0.0,0.0,0.0,0.0,0.0,0.0,0.0,0.0,0.0,0.0,0.0,0.0,0.0,0.0,0.0,0.0,0.0,0.0,0.0,0.0,0.0,0.0,0.0,0.0,0.0,0.0,0.0,0.0,0.0,0.0,0.0,0.0,0.0,0.0,0.0,0.0,0.0,0.0,0.0,0.0,0.0,0.0,0.0,0.0,0.0,0.0,0.0,0.0,0.0,0.0,0.0,0.0,0.0,0.0,0.0,0.0,0.0,0.0,0.0,0.0,0.0,0.0,0.0,0.0,0.0,0.0,0.0,0.0,0.0,0.0,0.0,0.0,0.0,0.0,0.8237,0.7706,0.7019,0.6795,0.7173,0.794,0.8542,0.0,0.0,0.0,0.0,0.0,0.0,0.0,0.0,0.0,0.0,0.0,0.0,0.0,0.0,0.0,0.0,0.0,0.0,0.0,0.0,0.0,0.0,0.0,0.0,0.0,0.0,0.0,0.0,0.0,0.0,0.0,0.0,0.0,0.0,0.0,0.0,0.0,0.0,0.0,0.0,0.0,0.0,0.0,0.0,0.0,0.0,0.0,0.0,0.0,0.0,0.0,0.0,0.0,0.0,0.0,0.0,0.0,0.0,0.0,0.0,0.0,0.0,0.0,0.0,0.0,0.0,0.0,0.0,0.0,0.0,0.0,0.0,0.0,0.0,0.0,0.0,0.0,0.0,0.0,0.0,0.0,0.0,0.0,0.0,0.0,0.0,0.0,0.0,0.0,0.0,0.0,0.0,0.0,0.0,0.0,0.0,0.0,0.0,0.0,0.0,0.0,0.0,0.0,0.0,0.0,0.0,0.0,0.0,0.7706,0.7407,0.6795,0.6412,0.649,0.7326,0.8093,0.0,0.0,0.0,0.0,0.0,0.0,0.0,0.0,0.0,0.0,0.0,0.0,0.0,0.0,0.0,0.0,0.0,0.0,0.0,0.0,0.0,0.0,0.0,0.0,0.0,0.0,0.0,0.0,0.0,0.0,0.0,0.0,0.0,0.0,0.0,0.0,0.0,0.0,0.0,0.0,0.0,0.0,0.0,0.0,0.0,0.0,0.0,0.0,0.0,0.0,0.0,0.0,0.0,0.0,0.0,0.0,0.0,0.0,0.0,0.0,0.0,0.0,0.0,0.0,0.0,0.0,0.0,0.0,0.0,0.0,0.0,0.0,0.0,0.0,0.0,0.0,0.0,0.0,0.0,0.0,0.0,0.0,0.0,0.0,0.0,0.0,0.0,0.0,0.0,0.0,0.0,0.0,0.0,0.0,0.0,0.0,0.0,0.0,0.0,0.0,0.0,0.0,0.0,0.0,0.0,0.0,0.0,0.0,0.7553,0.7019,0.7176,0.7253,0.7253,0.7633,0.7931,0.0,0.0,0.0,0.0,0.0,0.0,0.0,0.0,0.0,0.0,0.0,0.0,0.0,0.0,0.0,0.0,0.0,0.0,0.0,0.0,0.0,0.0,0.0,0.0,0.0,0.0,0.0,0.0,0.0,0.0,0.0,0.0,0.0,0.0,0.0,0.0,0.0,0.0,0.0,0.0,0.0,0.0,0.0,0.0,0.0,0.0,0.0,0.0,0.7488,0.0,0.0,0.0,0.0,0.0,0.0,0.0,0.0,0.0,0.0,0.0,0.0,0.0,0.0,0.0,0.0,0.0,0.0,0.0,0.0,0.0,0.0,0.0,0.0,0.0,0.0,0.0,0.0,0.0,0.0,0.0,0.0,0.0,0.0,0.0,0.0,0.0,0.0,0.0,0.0,0.0,0.0,0.0,0.0,0.0,0.0,0.0,0.0,0.0,0.0,0.0,0.0,0.0,0.0,0.0,0.0,0.0,0.0,0.0,0.7633,0.7472,0.748,0.771,0.8016,0.8466,0.8618,0.0,0.0,0.0,0.0,0.0,0.0,0.0,0.0,0.0,0.0,0.0,0.0,0.0,0.0,0.0,0.0,0.0,0.0,0.0,0.0,0.0,0.0,0.0,0.0,0.0,0.0,0.0,0.0,0.0,0.0,0.0,0.0,0.0,0.0,0.0,0.0,0.0,0.0,0.0,0.0,0.0,0.0,0.0,0.0,0.0,0.0,0.0,0.0,0.0,0.0,0.0,0.0,0.0,0.0,0.0,0.0,0.0,0.0,0.0,0.0,0.0,0.0,0.0,0.0,0.0,0.0,0.0,0.0,0.0,0.0,0.0,0.0,0.0,0.0,0.0,0.0,0.0,0.0,0.0,0.0,0.0,0.0,0.0,0.0,0.0,0.0,0.0,0.0,0.0,0.0,0.0,0.0,0.0,0.0,0.0,0.0,0.0,0.0,0.0,0.0,0.0,0.0,0.0,0.0,0.0,0.0,0.0,0.7936,0.771,0.8008,0.7783,0.8093,0.8851,0.9523,0.975,0.9523,0.0,0.0,0.0,0.0,0.0,0.0,0.0,0.0,0.0,0.0,0.0,0.0,0.0,0.0,0.0,0.0,0.0,0.0,0.0,0.0,0.0,0.0,0.0,0.0,0.0,0.0,0.0,0.0,0.0,0.0,0.0,0.0,0.0,0.0,0.0,0.0,0.0,0.0,0.9246,0.8784,0.0,0.0,0.0,0.0,0.0,0.0,0.0,0.0,0.8449,0.0,0.0,0.0,0.0,0.0,0.0,0.0,0.0,0.0,0.0,0.0,0.0,0.0,0.0,0.0,0.0,0.0,0.0,0.0,0.0,0.0,0.0,0.0,0.0,0.0,0.0,0.0,0.0,0.0,0.0,0.0,0.0,0.0,0.0,0.0,0.0,0.0,0.0,0.0,0.0,0.0,0.0,0.0,0.0,0.0,0.0,0.0,0.0,0.0,0.0,0.0,0.0,0.0,0.0,0.0,0.0,0.8232,0.7931,0.7706,0.7638,0.8165,0.8851,0.9695,1.0438,1.0738,1.0588,0.0,0.0,0.0,0.0,0.0,0.0,0.0,0.0,0.0,0.0,0.0,0.0,0.0,0.0,0.0,0.0,0.0,0.0,0.0,0.0,0.0,0.0,0.0,0.0,0.0,0.0,0.0,0.0,0.0,0.0,0.0,0.0,0.0,0.0,0.0,0.0,0.0,0.0,0.0,0.8703,0.8475,0.0,0.0,0.0,0.0,0.0,0.0,0.0,0.0,0.8233,0.0,0.0,0.0,0.0,0.0,0.0,0.0,0.0,0.0,0.0,0.0,0.0,0.0,0.0,0.0,0.0,0.0,0.0,0.0,0.0,0.0,0.0,0.0,0.0,0.0,0.0,0.0,0.0,0.0,0.0,0.0,0.0,0.0,0.0,0.0,0.0,0.0,0.0,0.0,0.0,0.0,0.0,0.0,0.0,0.0,0.0,0.0,0.0,0.0,0.0,0.0,0.0,0.0,0.0,0.0,0.8309,0.8165,0.8093,0.8169,0.8932,0.9685,1.0519,1.0887,1.1043,0.0,0.0,0.0,0.0,0.0,0.0,0.0,0.0,0.0,0.0,0.0,0.0,0.0,0.0,0.0,0.0,0.0,0.0,0.0,0.0,0.0,0.0,0.0,0.0,0.0,0.0,0.0,0.0,0.0,0.0,0.0,0.0,0.0,0.0,0.0,0.0,0.0,0.0,0.0,0.0,0.8556,0.825,0.7795,0.0,0.0,0.0,0.0,0.0,0.0,0.8155,0.8281,0.0,0.0,0.0,0.0,0.0,0.0,0.0,0.0,0.0,0.0,0.0,0.0,0.0,0.0,0.0,0.0,0.0,0.0,0.0,0.0,0.0,0.0,0.0,0.0,0.0,0.0,0.0,0.0,0.0,0.0,0.0,0.0,0.0,0.0,0.0,0.0,0.0,0.0,0.0,0.0,0.0,0.0,0.0,0.0,0.0,0.0,0.0,0.0,0.0,0.0,0.0,0.0,0.0,0.0,0.0,0.8685,0.8546,0.8627,0.8932,0.9539,1.0293,1.1037,1.1117,1.1037,0.0,0.0,0.0,0.0,0.0,0.0,0.0,0.0,0.0,0.0,0.0,0.0,0.0,0.0,0.0,0.0,0.0,0.0,0.0,0.0,0.0,0.0,0.0,0.0,0.0,0.0,0.0,0.0,0.0,0.0,0.0,0.0,0.0,0.0,0.0,0.0,0.0,0.0,0.0,0.0,0.0,0.7949,0.7561,0.7706,0.0,0.0,0.0,0.0,0.7688,0.7902,0.0,0.0,0.0,0.0,0.0,0.0,0.0,0.0,0.0,0.0,0.0,0.0,0.0,0.0,0.0,0.0,0.0,0.0,0.0,0.0,0.0,0.0,0.0,0.0,0.0,0.0,0.0,0.0,0.0,0.0,0.0,0.0,0.0,0.0,0.0,0.0,0.0,0.0,0.0,0.0,0.0,0.0,0.0,0.0,0.0,0.0,0.0,0.0,0.0,0.0,0.0,0.0,0.0,0.0,0.0,0.0,0.9442,0.8922,0.9008,0.969,0.9841,1.0293,1.1037,1.1117,1.1111,0.0,0.0,0.0,0.0,0.0,0.0,0.0,0.0,0.0,0.0,0.0,0.0,0.0,0.0,0.0,0.0,0.0,0.0,0.0,0.0,0.0,0.0,0.0,0.0,0.0,0.0,0.0,0.0,0.0,0.0,0.0,0.0,0.0,0.0,0.0,0.0,0.0,0.0,0.0,0.0,0.0,0.7949,0.7561,0.7629,0.7842,0.0,0.0,0.7369,0.7231,0.7469,0.0,0.0,0.0,0.0,0.0,0.0,0.0,0.0,0.0,0.0,0.0,0.0,0.0,0.0,0.0,0.0,0.0,0.0,0.0,0.0,0.0,0.0,0.0,0.0,0.0,0.0,0.0,0.0,0.0,0.0,0.0,0.0,0.0,0.0,0.0,0.0,0.0,0.0,0.0,0.0,0.0,0.0,0.0,0.0,0.0,0.0,0.0,0.0,0.0,0.0,0.0,0.0,0.0,0.0,0.0,1.0438,0.9986,0.9836,0.9836,1.0067,1.0443,1.0738,1.1111,1.0962,1.0962,0.0,0.0,0.0,0.0,0.0,0.0,0.0,0.0,0.0,0.0,0.0,0.0,0.0,0.0,0.0,0.0,0.0,0.0,0.0,0.0,0.0,0.0,0.0,0.0,0.0,0.0,0.0,0.0,0.0,0.0,0.0,0.0,0.0,0.0,0.0,0.0,0.0,0.0,0.0,0.0,0.0,0.0,0.7634,0.7482,0.0,0.0,0.0,0.7268,0.7399,0.0,0.0,0.0,0.0,0.0,0.0,0.0,0.0,0.0,0.0,0.0,0.0,0.0,0.0,0.0,0.0,0.0,0.0,0.0,0.0,0.0,0.0,0.0,0.0,0.0,0.0,0.0,0.0,0.0,0.0,0.0,0.0,0.0,0.0,0.0,0.0,0.0,0.0,0.0,0.0,0.0,0.0,0.0,0.0,0.0,0.0,0.0,0.0,0.0,0.0,0.0,0.0,0.0,0.0,0.0,0.0,0.0,1.0293,1.0212,1.0137,0.9916,1.0288,1.0588,1.0812,1.0663,0.0,0.0,0.0,0.0,0.0,0.0,0.0,0.0,0.0,0.0,0.0,0.0,0.0,0.0,0.0,0.0,0.0,0.0,0.0,0.0,0.0,0.0,0.0,0.0,0.0,0.0,0.0,1.1639,0.0,0.0,0.0,0.0,0.0,0.0,0.0,0.0,0.0,0.0,0.0,0.0,0.0,0.0,0.7911,0.7756,0.7334,0.704,0.0,0.0,0.7361,0.7483,0.7421,0.7591,0.0,0.0,0.0,0.0,0.0,0.0,0.0,0.0,0.0,0.0,0.0,0.0,0.0,0.0,0.0,0.0,0.0,0.0,0.0,0.0,0.0,0.0,0.0,0.0,0.0,0.0,0.0,0.0,0.0,0.0,0.0,0.0,0.0,0.0,0.0,0.0,0.0,0.0,0.0,0.0,0.0,0.0,0.0,0.0,0.0,0.0,0.0,0.0,0.0,0.0,0.0,0.0,0.0,0.0,0.0,1.0513,0.9755,0.9306,0.9074,0.8922,0.9231,0.9916,0.9997,1.0218,0.0,0.0,0.0,0.0,0.0,0.0,0.0,0.0,0.0,0.0,0.0,0.0,0.0,0.0,0.0,0.0,0.0,0.0,0.0,0.0,0.0,0.0,0.0,0.0,0.0,0.0,0.0,0.0,0.0,0.0,0.0,0.0,0.0,0.0,0.0,0.0,0.0,0.0,0.0,0.0,0.0,0.7907,0.7756,0.7504,0.725,0.0,0.0,0.7479,0.719,0.7132,0.7316,0.7852,0.0,0.0,0.0,0.0,0.0,0.0,0.0,0.0,0.0,0.0,0.0,0.0,0.0,0.0,0.0,0.0,0.0,0.0,0.0,0.0,0.0,0.0,0.0,0.0,0.0,0.0,0.0,0.0,0.0,0.0,0.0,0.0,0.0,0.0,0.0,0.0,0.0,0.0,0.0,0.0,0.0,0.0,0.0,0.0,0.0,0.0,0.0,0.0,0.0,0.0,0.0,0.0,0.0,1.1372,1.1138,1.01,0.9797,1.0049,0.9271,0.913,0.9846,0.976,0.983,0.0,0.0,0.0,0.0,0.0,0.0,0.0,0.0,0.0,0.0,0.0,0.0,0.0,0.0,0.0,0.0,0.0,0.0,0.0,0.0,0.0,0.0,0.0,0.0,0.0,0.0,0.0,0.0,1.2077,1.2077,1.2083,0.0,0.0,0.0,0.0,0.0,0.0,0.0,0.0,0.0,0.0,0.8321,0.7662,0.7384,0.0,0.0,0.7138,0.7341,0.7316,0.7323,0.7499,0.8025,0.8201,0.0,0.0,0.0,0.0,0.0,0.0,0.0,0.0,0.0,0.0,0.0,0.0,0.0,0.0,0.0,0.0,0.0,0.0,0.0,0.0,0.0,0.0,0.0,0.0,0.0,0.0,0.0,0.0,0.0,0.0,0.0,0.0,0.0,0.0,0.0,0.0,0.0,0.0,0.0,0.0,0.0,0.0,0.0,0.0,0.0,0.0,0.0,0.0,0.0,0.0,0.0,0.0,1.1754,1.1668,1.0449,1.0129,1.0594,0.9567,0.9419,1.006,0.973,0.9535,0.0,0.0,0.0,0.0,0.0,0.0,0.0,0.0,0.0,0.0,0.0,0.0,0.0,0.0,0.0,0.0,0.0,0.0,0.0,0.0,0.0,0.0,0.0,0.0,0.0,0.0,0.0,0.0,1.2378,1.2378,1.2452,0.0,0.0,0.0,0.0,0.0,0.0,0.0,0.0,0.0,0.0,0.878,0.7854,0.7737,0.7665,0.7408,0.7404,0.7496,0.7591,0.7591,0.7768,0.8025,0.0,0.0,0.0,0.0,0.0,0.0,0.0,0.0,0.0,0.0,0.0,0.0,0.0,0.0,0.0,0.0,0.0,0.0,0.0,0.0,0.0,0.0,0.0,0.0,0.0,0.0,0.0,0.0,0.0,0.0,0.0,0.0,0.0,0.0,0.0,0.0,0.0,0.0,0.0,0.0,0.0,0.0,0.0,0.0,0.0,0.0,0.0,0.0,0.0,0.0,0.0,0.0,0.0,1.1846,1.1994,1.0713,1.0055,1.0105,0.9705,0.9872,1.0589,0.9776,0.9516,0.9959,0.0,0.0,0.0,0.0,0.0,0.0,0.0,0.0,0.0,0.0,0.0,0.0,0.0,0.0,0.0,0.0,0.0,0.0,0.0,0.0,0.0,0.0,0.0,0.0,0.0,0.0,1.2305,1.2459,1.2686,0.0,0.0,0.0,0.0,0.0,0.0,0.0,0.0,0.0,0.0,0.9742,0.9292,0.8288,0.8776,0.8803,0.794,0.8028,0.8113,0.7944,0.7856,0.7856,0.0,0.0,0.0,0.0,0.0,0.0,0.0,0.0,0.0,0.0,0.0,0.0,0.0,0.0,0.0,0.0,0.0,0.0,0.0,0.0,0.0,0.0,0.0,0.0,0.0,0.0,0.0,1.5171,1.5426,0.0,0.0,0.0,0.0,0.0,0.0,0.0,0.0,0.0,0.0,0.0,1.5592,1.5864,0.0,0.0,0.0,0.0,0.0,0.0,0.0,0.0,0.0,0.0,0.0,0.0,1.2433,1.2433,1.109,1.059,1.1018,1.0103,0.995,1.0697,0.9791,0.9514,0.9938,0.0,0.0,0.0,0.0,0.0,0.0,0.0,0.0,0.0,0.0,0.0,0.0,0.0,0.0,0.0,0.0,0.0,0.0,0.0,0.0,0.0,0.0,0.0,0.0,0.0,1.2526,0.0,0.0,0.0,0.0,0.0,0.0,0.0,0.0,0.0,0.0,0.0,1.1095,0.9687,0.9705,0.9407,0.8376,0.842,0.8285,0.0,0.0,0.0,0.0,0.0,0.0,0.0,0.0,0.0,0.0,0.0,0.0,0.0,0.0,0.8384,0.8384,0.8208,0.8124,0.8124,0.0,0.0,0.0,0.0,0.0,0.0,0.0,0.0,0.0,0.0,0.0,0.0,0.0,0.0,0.0,0.0,1.5929,0.0,0.0,0.0,0.0,0.0,0.0,0.0,0.0,1.6136,1.6245,1.6196,1.6471,1.6638,0.0,1.6618,1.6357,0.0,0.0,0.0,0.0,0.0,0.0,0.0,0.0,1.2954,1.3137,1.1757,1.1423,1.2116,1.1264,1.0936,1.1365,1.0028,0.9247,0.9087,0.9264,0.9661,0.0,0.0,0.0,0.0,0.0,0.0,0.0,0.0,0.0,0.0,0.0,0.0,0.0,0.0,0.0,0.0,0.0,0.0,0.0,0.0,0.0,0.0,0.0,1.2982,0.0,0.0,0.0,0.0,0.0,0.0,0.0,0.0,0.0,1.2413,1.2282,1.1769,1.0319,1.011,0.9767,0.8811,0.0,0.0,0.0,0.0,0.0,0.0,0.0,0.8288,0.8384,0.8384,0.8292,0.8028,0.794,0.7944,0.8028,0.0,0.0,0.8201,0.8208,0.8124,0.812,0.812,0.8124,0.8124,0.8124,0.8124,0.0,0.0,0.0,0.0,0.0,0.0,0.0,0.0,1.5992,1.6,0.0,1.6377,0.0,0.0,0.0,0.0,0.0,0.0,0.0,0.0,1.7203,1.7154,1.697,1.7174,1.7274,1.7212,1.7299,1.7139,1.664,1.6057,0.0,0.0,0.0,0.0,0.0,0.0,1.3372,1.4004,1.2705,1.2443,1.33,1.2954,1.2613,1.2516,1.0488,0.8865,0.7599,0.8034,0.8677,0.9567,1.0269,0.0,0.0,0.0,0.0,0.0,0.0,0.0,0.0,0.0,0.0,0.0,0.0,0.0,0.0,0.0,0.0,0.0,0.0,0.0,0.0,1.3324,0.0,0.0,0.0,0.0,0.0,0.0,0.0,0.0,0.0,0.0,1.3687,1.3136,1.2534,1.2009,0.0,0.0,0.0,0.0,0.9689,0.9262,0.9257,0.917,0.8911,0.8727,0.8376,0.7944,0.0,0.0,0.7507,0.7768,0.794,0.8113,0.8028,0.7944,0.8201,0.8384,0.8568,0.8568,0.848,0.8568,0.8568,0.8476,0.848,1.7442,0.0,0.0,0.0,0.0,1.676,1.6691,1.6691,1.6332,1.6271,1.6569,1.7303,0.0,0.0,0.0,0.0,0.0,0.0,1.7424,1.7464,1.772,1.7698,1.757,1.7864,1.7957,1.7806,1.7504,1.7147,1.6656,1.6245,1.5831,1.5575,0.0,0.0,0.0,0.0,1.4062,1.4088,1.3476,1.3307,1.3398,1.3143,1.2266,1.0707,0.9952,0.8974,0.7763,0.7891,0.8487,0.9785,1.0305,0.0,0.0,0.0,0.0,0.0,0.0,0.0,0.0,0.0,0.0,0.0,0.0,0.0,0.0,0.0,0.0,0.0,0.0,0.0,1.3825,1.3931,1.4066,0.0,0.0,0.0,0.0,0.0,0.0,0.0,0.0,0.0,1.4719,1.3678,1.2625,0.0,0.0,1.0895,1.0207,0.9859,0.951,0.8903,0.0,0.0,0.0,0.8116,0.8028,0.7944,0.7856,0.7856,0.794,0.794,0.7944,0.794,0.8025,0.8113,0.8201,0.8116,0.8124,0.812,0.812,0.812,0.812,0.8124,0.8124,1.7794,1.7666,1.751,1.7382,1.7314,1.7185,1.7116,1.7116,1.6853,1.6844,1.6996,1.7948,1.8046,1.7594,1.7862,0.0,0.0,0.0,1.8078,1.8154,1.8378,1.8328,1.804,1.8329,1.8282,1.7959,1.7797,1.731,1.673,1.6409,1.6079,1.5575,0.0,0.0,1.4734,1.4566,1.4405,1.4088,1.3822,1.3568,1.3398,1.3137,1.2186,1.0534,0.9836,0.8965,0.7834,0.7658,0.813,0.9568,1.008,1.0749,0.0,0.0,0.0,0.0,0.0,0.0,0.0,0.0,0.0,0.0,0.0,1.3209,1.3326,0.0,0.0,0.0,1.3726,1.4095,1.4488,1.4604,0.0,0.0,0.0,0.0,0.0,0.0,0.0,1.5264,1.5257,1.5257,1.509,1.4237,1.3385,1.2601,1.218,1.1666,1.1327,0.0,1.0294,1.0024,0.9506,0.9074,0.8903,0.8376,0.794,0.7768,0.7768,0.7856,0.8025,0.794,0.7944,0.8025,0.8372,0.8807,0.8894,0.9074,0.8986,0.8296,0.8212,0.8212,0.8212,0.8468,0.864,1.8008,1.794,1.7784,1.7647,1.7539,1.7539,1.7539,1.7539,1.7539,1.7529,1.7567,1.8334,1.8456,1.8152,1.8302,0.0,0.0,1.8669,1.8793,1.8948,1.8948,1.8816,1.8442,1.8434,1.8282,1.804,1.8031,1.7546,1.673,1.673,1.6245,1.5431,1.5431,1.5166,1.4741,1.4734,1.4489,1.4166,1.3828,1.3652,1.3398,1.296,1.2277,1.1322,0.9918,0.8782,0.7834,0.7312,0.7746,0.9118,0.9639,1.0616,1.2099,0.0,0.0,0.0,0.0,0.0,0.0,0.0,0.0,0.0,0.0,0.0,0.0,0.0,0.0,0.0,1.4634,0.0,1.5144,1.5173,0.0,0.0,0.0,1.5431,1.5431,1.5431,1.5431,1.5431,0.0,0.0,1.509,0.0,1.4482,1.4482,1.347,1.2699,1.2619,1.1935,1.1585,1.1494,1.089,1.0294,0.9859,0.8899,0.8025,0.768,0.7595,0.7683,0.7944,0.7944,0.8028,0.8204,0.889,0.9501,0.9767,1.0289,1.0549,0.8823,0.8652,0.8744,0.874,0.917,0.934,1.8008,1.8008,1.794,1.7794,1.7647,1.7647,1.7638,1.7647,1.7803,1.7794,1.7676,1.8018,1.8237,1.834,1.8571,1.8536,1.8265,1.8256,1.84,1.8766,1.8784,1.8792,1.8834,1.8683,1.8531,1.8282,1.8121,1.7546,1.673,1.673,1.6245,1.5431,1.5431,1.5257,1.4999,1.4824,1.4573,1.4314,1.4075,1.3828,1.3398,1.296,1.2277,1.1322,0.9913,0.8782,0.7834,0.7312,0.7746,0.9122,0.9804,1.0714,1.1942,1.1816,0.0,0.0,0.0,0.0,0.0,0.0,0.0,0.0,0.0,1.4202,1.437,0.0,1.4823,0.0,1.5027,1.5403,1.5831,1.5514,0.0,0.0,1.5347,1.5431,1.5431,1.5431,1.5431,1.5431,1.5347,1.5347,1.5347,1.5257,1.5173,1.5082,1.3724,1.2534,1.2015,1.1073,1.0212,0.9777,0.9244,0.8723,0.8719,0.8288,0.8028,0.8028,0.8025,0.8116,0.8388,0.8388,0.8476,0.8476,0.8652,0.8823,0.8911,0.9087,0.917,0.874,0.9087,0.9602,0.9602,0.9257,0.8828,1.8008,1.8008,1.8008,1.793,1.7852,1.7852,1.7852,1.7852,1.794,1.793,1.7881,1.8148,1.8356,1.8544,1.8682,1.848,1.8128,1.8311,1.8504,1.8715,1.8889,1.8934,1.8904,1.8772,1.8523,1.8247,1.8023,1.7554,1.673,1.673,1.6245,1.5431,1.5431,1.5257,1.509,1.4824,1.4566,1.4398,1.3984,1.3652,1.3392,1.296,1.2443,1.1757,1.0438,0.9396,0.8886,0.8105,0.8277,0.9575,1.0152,1.0889,1.2029,1.2243,1.2358,0.0,0.0,0.0,0.0,0.0,0.0,0.0,0.0,0.0,0.0,0.0,1.5627,1.5878,1.5957,1.6147,1.6492,1.6004,1.568,1.5673,1.5514,1.5431,1.5431,1.5431,1.5431,1.5431,1.5431,1.5431,1.5431,1.5431,1.5431,1.5431,1.4321,1.3209,1.2522,1.1408,1.0381,1.0033,0.9423,0.8723,0.8285,0.8116,0.8025,0.8201,0.8201,0.8292,0.8568,0.8572,0.8572,0.8656,0.8915,0.917,0.9257,1.0028,1.0544,1.0463,1.0544,1.0371,0.9515,0.9257,0.9082,1.8018,1.8018,1.8008,1.8008,1.8008,1.8008,1.8008,1.8008,1.8008,1.8008,1.8037,1.8319,1.8475,1.8521,1.8531,1.834,1.8073,1.8403,1.8614,1.8733,1.9063,1.9097,1.8913,1.8772,1.8505,1.8052,1.8023,1.7546,1.682,1.6738,1.6319,1.5506,1.5431,1.5257,1.509,1.4824,1.4573,1.4398,1.373,1.3398,1.3398,1.2881,1.2528,1.2363,1.1052,1.0279,1.0294,0.9069,0.8982,1.0289,1.059,1.1268,1.2395,1.2606,1.282,0.0,1.3037,0.0,0.0,0.0,0.0,0.0,0.0,0.0,0.0,1.5904,1.664,1.7131,1.6894,1.6894,1.7131,1.6574,1.617,1.6177,1.5839,1.5514,1.5514,1.5514,1.5431,1.5431,1.5431,1.5431,1.5431,1.5431,1.5431,1.5347,1.465,1.388,1.3281,1.2089,1.1068,1.1068,1.0294,0.9165,0.8464,0.8292,0.8292,0.8292,0.8292,0.8296,0.8568,0.8572,0.8652,0.8911,0.9428,0.9859,1.0028,1.1569,1.2595,1.2272,1.1832,1.1052,0.9772,0.9602,0.9689,1.8269,1.8202,1.8076,1.8008,1.8008,1.8008,1.8008,1.8008,1.8008,1.8008,1.8008,1.7871,1.781,1.7697,1.7549,1.7506,1.7614,1.7688,1.8082,1.8724,1.8797,1.8948,1.9188,1.8869,1.862,1.8362,1.8112,1.7716,1.7221,1.6902,1.6492,1.5929,1.5597,1.5264,1.509,0.0,0.0,0.0,1.3652,1.3398,1.3398,1.279,1.2448,1.2363,1.1068,0.0,1.0294,0.9859,0.985,1.0524,1.1133,0.0,0.0,0.0,0.0,0.0,0.0,0.0,0.0,0.0,0.0,0.0,1.5486,1.5726,1.5913,1.6527,1.7131,1.7538,1.7212,1.7139,1.731,1.6902,1.6574,1.6574,1.6492,1.6327,1.6004,1.6004,1.5839,1.5423,1.5431,1.5431,1.5431,1.5431,1.5431,1.5347,1.4482,1.362,1.293,1.1832,1.0636,0.9432,0.9082,0.8828,0.856,0.8564,0.8476,0.848,0.8568,0.8564,0.8656,0.8656,0.8999,0.9763,0.9937,1.0284,1.1139,1.1574,1.1746,1.158,1.1494,1.1494,1.1843,1.0809,1.0033,1.8144,0.0,1.8008,1.8008,0.0,1.8008,1.8008,1.8008,1.8008,1.8008,1.8008,1.7862,1.7831,1.7773,1.7684,1.7698,1.7816,1.8009,1.832,1.8715,1.8916,1.9058,1.9304,1.8878,1.8523,1.8256,1.8103,1.7635,1.7057,1.6812,1.6409,1.5763,1.5506,1.5257,1.4915,1.458,1.4328,1.4088,1.3743,1.3483,1.3392,1.2966,1.2448,1.1763,0.0,0.0,0.0,0.0,0.0,0.0,0.0,0.0,0.0,0.0,0.0,1.3522,1.382,1.423,1.465,1.4824,1.5082,1.534,1.5906,1.6319,1.6574,1.6976,1.7383,1.7789,1.7619,1.7554,1.7635,1.7302,1.7066,1.7066,1.682,1.6574,1.6417,1.6409,1.6245,1.5839,1.5763,1.568,1.5431,1.5431,1.5431,1.5347,1.4915,1.4223,1.3281,1.1918,1.0641,0.9689,0.8915,0.8736,0.9087,0.8828,0.8828,0.9087,0.8911,0.8999,0.9777,0.9515,0.9598,1.0539,1.0717,1.0804,1.1316,1.1918,1.226,1.2169,1.2345,1.2772,1.3464,1.2003,1.0717,1.8076,1.8076,1.8008,1.8008,1.8008,1.8008,1.8057,1.8056,0.0,0.0,0.0,1.8056,1.8072,1.818,1.8109,1.8126,1.8238,1.8559,1.8751,1.8825,1.9076,1.9259,1.9234,1.8878,1.8425,1.798,1.8023,1.7627,1.682,1.673,1.6327,1.559,1.5431,1.5173,1.4741,1.4334,1.4088,1.4082,1.3913,1.3659,1.3398,1.3137,1.2448,1.1246,1.1757,1.1671,1.0895,1.1419,1.1854,1.2037,1.2454,1.2705,1.2881,1.3392,1.3737,1.3822,1.4146,1.4482,1.4734,1.4999,1.5173,1.5347,1.6245,1.6812,1.7131,1.7383,1.7635,1.7959,1.8031,1.8031,1.8031,1.7716,1.7473,1.7473,1.7147,1.6894,1.673,1.673,1.6492,1.6087,1.5929,1.5839,1.5431,1.5431,1.5431,1.5431,1.5347,1.5082,1.388,1.2345,1.1149,1.0717,1.0028,0.951,0.9941,0.9689,0.9432,1.0033,0.9602,0.9685,1.0804,1.0717,1.0717,1.166,1.1746,1.1837,1.2009,1.2857,1.3451,1.3275,1.3542,1.388,1.423,1.3124,1.1923,1.8269,1.8202,1.8076,1.8008,1.8008,1.8008,1.8085,1.8245,1.8105,1.8154,1.8363,1.8142,1.8146,1.8322,1.8175,1.8256,1.8623,1.8687,1.8898,0.0,1.9125,1.9127,1.9288,1.8718,1.8282,1.8031,1.8031,1.7797,1.731,1.6902,1.6492,1.6004,1.559,1.5173,1.4741,1.4334,1.4088,1.4088,1.4102,1.3848,1.3398,1.296,1.2619,1.2192,1.2032,1.1952,1.178,1.1866,1.2037,1.2363,1.2534,1.2875,1.3313,1.3568,1.3828,1.4004,1.4237,1.4475,1.465,1.4915,1.5173,1.5423,1.6245,1.6894,1.731,1.7716,1.7959,1.8031,1.8031,1.8031,1.7959,1.7951,1.787,1.787,1.7878,1.7546,1.682,1.673,1.6492,1.5756,1.5514,1.5514,1.5514,1.5431,1.5431,1.5431,1.5431,1.5173,1.4307,1.293,1.1906,1.1649,1.1391,1.1305,1.1311,1.1144,1.089,1.1068,1.0982,1.0977,1.1655,1.1563,1.1826,1.3105,1.3112,1.3372,1.4146,1.4314,1.4223,1.4132,1.4153,1.4159,1.4334,1.3822,1.3652,1.8134,1.8144,1.8008,1.8076,1.817,1.8331,1.84,1.848,1.8452,1.8462,1.8571,1.8436,1.8516,1.8741,1.8609,1.8736,1.9036,1.9036,1.9136,1.9292,1.9082,1.8949,1.8914,1.8629,1.8273,1.8031,1.8031,1.7627,1.7066,1.6812,1.6402,1.5756,1.5423,1.5082,1.465,1.4307,1.4068,1.4088,1.3926,1.375,1.3398,1.3052,1.254,1.1849,1.2198,1.2112,1.1682,1.2112,1.2454,1.279,1.296,1.3222,1.3568,1.3822,1.399,1.4243,1.4482,1.465,1.4915,1.5333,1.5756,1.6079,1.6738,1.7229,1.7716,1.7878,1.8031,1.8031,1.8031,1.8031,1.8031,1.8031,1.8031,1.8031,1.8031,1.787,1.7465,1.7383,1.7139,1.6574,1.6252,1.6004,1.5846,1.5597,1.5431,1.5431,1.5431,1.5257,1.4824,1.4223,1.3535,1.2857,1.2083,1.1746,1.2089,1.1666,1.1585,1.1929,1.1746,1.2003,1.2687,1.2766,1.2857,1.3639,1.3808,1.3984,1.4587,1.4489,1.4482,1.4566,1.4664,1.4671,1.4587,1.4496,1.4243,1.7988,1.8086,1.8017,1.8189,1.84,1.8682,1.8788,1.8797,1.8892,1.8929,1.8845,1.876,1.8873,1.9075,1.9102,1.9182,1.9274,1.9222,1.9222,1.9231,1.8993,1.8763,1.862,1.8442,1.8193,1.804,1.7878,1.7473,1.673,1.6648,1.617,1.5431,1.5173,1.4999,1.4741,1.4378,1.4132,1.4159,1.3822,1.3646,1.3398,1.3228,1.2705,1.1843,1.2448,1.2448,1.1843,1.2448,1.296,1.3143,1.3313,1.3568,1.3822,1.4082,1.4243,1.4482,1.465,1.4908,1.5173,1.5673,1.6087,1.6574,1.6984,1.7392,1.7797,1.7959,1.8031,1.8031,1.8031,1.8031,1.8031,1.8031,1.8031,1.8031,1.8031,1.7959,1.7878,1.787,1.7635,1.7237,1.682,1.6409,1.6004,1.5597,1.5431,1.5431,1.5431,1.5347,1.5166,1.5264,1.4922,1.4159,1.2954,1.2516,1.3039,1.2607,1.2437,1.2966,1.2607,1.2948,1.3724,1.3717,1.3711,1.4243,1.4419,1.4419,1.4419,1.4496,1.4573,1.4734,1.4741,1.4838,1.4755,1.4496,1.4328,1.7946,1.8213,1.8161,1.8347,1.8701,1.9108,1.9136,1.903,1.9385,1.9455,1.9196,1.9065,1.9034,1.9298,1.9228,1.9256,1.9301,1.9073,1.8993,1.9002,1.8594,1.8442,1.846,1.8201,1.8031,1.7959,1.7635,1.7221,1.673,1.6327,1.5914,1.5431,1.5173,1.509,1.4999,1.4566,1.4398,1.4314,1.3899,1.3568,1.3398,1.3398,1.3222,1.2966,1.2973,1.3137,1.3137,1.3307,1.3313,1.3392,1.347,1.373,1.3997,1.4328,1.4489,1.4657,1.4908,1.5173,1.5347,1.5431,1.568,1.6087,1.6566,1.6976,1.74,1.7797,1.8031,1.8031,1.8031,1.8031,1.8031,1.8031,1.8031,1.8031,1.8031,1.7878,1.7554,1.7473,1.7147,1.6335,1.6252,1.6004,1.5673,1.5431,1.5431,1.5431,1.5431,1.5347,1.534,1.5257,1.5173,1.5006,1.4748,1.4573,1.4398,1.4314,1.3893,1.3913,1.3913,1.4075,1.4405,1.4482,1.4657,1.4664,1.509,1.5006,1.5006,1.5082,1.4817,1.465,1.4573,1.4405,1.425,1.4173,1.4173,1.8138,1.8528,1.8464,1.8637,1.8901,1.9217,1.9297,1.916,1.9404,1.9399,1.9292,1.9215,1.9233,1.9292,1.9292,1.9292,1.9292,1.9082,1.9002,1.9002,1.8594,1.8442,1.846,1.8129,1.8031,1.7959,1.7554,1.7147,1.6648,1.5997,1.5597,1.5431,1.534,1.5173,1.4908,1.465,1.4489,1.425,1.4082,1.3822,1.3561,1.3483,1.3392,1.3307,1.3313,1.3307,1.3398,1.3398,1.3476,1.3568,1.3646,1.3815,1.4243,1.4398,1.4566,1.4915,1.5173,1.534,1.5431,1.5673,1.5929,1.6095,1.6492,1.6902,1.731,1.7554,1.7716,1.7951,1.8031,1.8031,1.8031,1.8031,1.8031,1.8031,1.8031,1.787,1.7473,1.7392,1.7147,1.6574,1.6252,1.6004,1.5839,1.5597,1.5431,1.5431,1.5431,1.5431,1.5431,1.5347,1.5257,1.5257,1.5264,1.509,1.4817,1.465,1.4573,1.4496,1.4587,1.4748,1.4482,1.465,1.4741,1.4755,1.4755,1.4755,1.4503,1.4587,1.4412,1.4489,1.4489,1.4405,1.4321,1.4159,1.4082,1.8429,1.8807,1.8854,1.8928,1.9071,1.9261,1.9292,1.9292,1.9292,1.9292,1.9292,1.9292,1.9292,1.9292,1.9292,1.9301,1.9222,1.9002,1.8922,1.8763,1.8442,1.829,1.8299,1.7959,1.7878,1.7716,1.731,1.6812,1.6327,1.5756,1.5431,1.5431,1.5431,1.5173,1.4824,1.4741,1.4573,1.4243,1.4166,1.3997,1.3828,1.3652,1.3568,1.3476,1.3476,1.3483,1.3568,1.3568,1.3652,1.3899,1.3906,1.4153,1.4573,1.4657,1.4831,1.5173,1.534,1.5431,1.5431,1.5839,1.6177,1.6245,1.6656,1.7066,1.7481,1.7554,1.7635,1.7797,1.7789,1.7878,1.7959,1.7878,1.787,1.7951,1.7959,1.7716,1.7473,1.7392,1.7147,1.6656,1.6252,1.6004,1.5929,1.5597,1.5431,1.5431,1.5431,1.5431,1.5431,1.5431,1.5431,1.5431,1.5431,1.5173,1.4824,1.4734,1.4657,1.458,1.4671,1.458,1.4482,1.4566,1.4741,1.4748,1.4496,1.4503,1.4755,1.4671,1.4334,1.4405,1.4398,1.4321,1.4243,1.4166,1.4082,1.862,1.9012,1.9169,1.9228,1.9274,1.9292,1.9292,1.9292,1.9292,1.9292,1.9292,1.9292,1.9301,1.9292,1.9222,1.9143,1.8993,1.8772,1.8603,1.8442,1.8193,1.8031,1.7959,1.7635,1.7473,1.7392,1.6656,1.6004,1.5514,1.5431,1.5431,1.5431,1.5431,1.5264,1.5082,1.4824,1.4566,1.4398,1.4159,1.4088,1.4082,1.4088,1.3913,1.3737,1.3652,1.3822,1.4004,1.4082,1.4159,1.4307,1.4405,1.4664,1.5006,1.5195,1.5362,1.5347,1.5431,1.5431,1.5431,1.5839,1.617,1.6574,1.6894,1.7473,1.7716,1.7797,1.7716,1.7481,1.7473,1.7635,1.7797,1.7635,1.7635,1.7878,1.7635,1.7473,1.7392,1.7229,1.6984,1.6335,1.6087,1.5922,1.5514,1.5431,1.5431,1.5431,1.5431,1.5431,1.5431,1.5431,1.5431,1.5431,1.5347,1.5257,1.4824,1.4817,1.4657,1.458,1.4587,1.4334,1.4405,1.4566,1.4741,1.4908,1.4734,1.4824,1.5173,1.518,1.4922,1.4664,1.4328,1.4166,1.3906,1.4082,1.3828,1.8801,1.9169,1.9246,1.9292,1.9292,1.9292,1.9292,1.9292,1.9292,1.9292,1.9213,1.9045,1.8966,1.9082,1.9002,1.8922,1.8922,1.8683,1.8442,1.8353,1.8112,1.8031,1.7951,1.7878,1.7635,1.731,1.6738,1.6079,1.5514,1.5431,1.5431,1.5431,1.5431,1.5257,1.509,1.4824,1.4566,1.4398,1.4159,1.4088,1.4088,1.4088,1.4082,1.399,1.3997,1.3997,1.4088,1.4088,1.4166,1.4398,1.4405,1.4657,1.509,1.5264,1.5438,1.5431,1.5431,1.5431,1.5431,1.5514,1.5673,1.5839,1.6335,1.6738,1.7147,1.7392,1.7554,1.7392,1.7392,1.7392,1.7229,1.731,1.7473,1.7554,1.7473,1.7155,1.6746,1.6582,1.6335,1.5846,1.5673,1.559,1.5514,1.5431,1.5431,1.5431,1.5431,1.5431,1.5431,1.5431,1.5431,1.5431,1.5431,1.534,1.4999,1.5082,1.5082,1.5006,1.5006,1.4922,1.4915,1.4824,1.4915,1.465,1.4727,1.4734,1.4838,1.4755,1.4587,1.4503,1.4166,1.3913,1.3313,1.3398,1.3052,1.9054,1.9274,1.9292,1.9292,1.9292,1.9292,1.9292,1.9292,1.932,1.925,1.9143,1.8816,1.8736,1.8843,1.8692,1.8692,1.8763,1.8514,1.8362,1.8282,1.804,1.7951,1.7797,1.7627,1.7383,1.6984,1.6492,1.5914,1.5514,1.5431,1.5431,1.5431,1.5431,1.5347,1.509,1.4915,1.4741,1.4482,1.4328,1.4159,1.4159,1.4173,1.4088,1.4088,1.4088,1.4088,1.4159,1.4243,1.4419,1.4573,1.465,1.4824,1.5166,1.5347,1.5431,1.5431,1.5431,1.5431,1.5431,1.5506,1.5597,1.568,1.6004,1.6409,1.6656,1.6984,1.7066,1.7066,1.6992,1.682,1.6656,1.682,1.7066,1.7147,1.7074,1.6746,1.617,1.6095,1.5922,1.5514,1.5431,1.5431,1.5431,1.5431,1.5431,1.5431,1.5431,1.5431,1.5431,1.5431,1.5431,1.5431,1.5431,1.5347,1.5173,1.5257,1.5166,1.5082,1.4999,1.4999,1.5082,1.4999,1.4824,1.4566,1.4398,1.4405,1.4328,1.425,1.4166,1.4166,1.4082,1.3828,1.3313,1.279,1.2363,1.9283,1.9292,1.9292,1.9292,1.9292,1.9292,1.9292,1.9301,1.9268,1.9197,1.9002,1.8763,1.8683,1.862,1.8442,1.8434,1.8442,1.8353,1.8273,1.8031,1.8031,1.7797,1.7473,1.7066,1.6656,1.6252,1.5673,1.5431,1.5431,1.5431,1.5431,1.5431,1.5431,1.5347,1.509,1.509,1.4915,1.4734,1.4482,1.4398,1.4405,1.4243,1.4173,1.4173,1.4173,1.425,1.4398,1.4566,1.4748,1.5006,1.509,1.518,1.5347,1.5431,1.5431,1.5431,1.5431,1.5431,1.5431,1.5756,1.5922,1.6004,1.6409,1.6574,1.6574,1.6738,1.6656,1.6327,1.6252,1.617,1.617,1.6087,1.6327,1.6574,1.6417,1.617,1.6087,1.6095,1.5922,1.5514,1.5431,1.5431,1.5431,1.5431,1.5431,1.5431,1.5431,1.5431,1.5431,1.5431,1.5431,1.5431,1.5431,1.5347,1.5347,1.5347,1.5082,1.4908,1.4824,1.4741,1.4824,1.4824,1.4831,1.4566,1.4475,1.4482,1.4405,1.4321,1.4243,1.4243,1.4082,1.3652,1.2875,1.2186,1.1757,1.9292,1.9292,1.9292,1.9292,1.9292,1.9292,1.9231,1.9082,1.9207,1.9127,1.8772,1.8407,1.8327,1.8442,1.8282,1.8121,1.8112,1.8121,1.804,1.8031,1.8031,1.7797,1.7392,1.7229,1.682,1.6087,1.5597,1.5431,1.5438,1.5445,1.5431,1.5431,1.5438,1.5347,1.5257,1.5173,1.5006,1.4999,1.4741,1.465,1.4566,1.4573,1.4489,1.4573,1.4671,1.4838,1.4831,1.465,1.4741,1.509,1.509,1.5173,1.5347,1.5431,1.5431,1.5431,1.5431,1.5431,1.5431,1.5514,1.5673,1.5673,1.6004,1.6252,1.6327,1.6492,1.6492,1.617,1.6087,1.6004,1.568,1.5597,1.5839,1.6245,1.6162,1.5929,1.568,1.568,1.5597,1.5431,1.5431,1.5431,1.5431,1.5431,1.5431,1.5431,1.5431,1.5431,1.5431,1.5431,1.5431,1.5431,1.5431,1.5431,1.5431,1.5347,1.5082,1.4992,1.4824,1.4824,1.4824,1.4741,1.4741,1.4657,1.4566,1.4482,1.4482,1.4405,1.4321,1.4243,1.4082,1.3222,1.21,1.1666,1.1499,1.9222,1.9152,1.9222,1.9152,1.9073,1.9082,1.9002,1.8931,1.9047,1.8887,1.8523,1.8167,1.8086,1.8193,1.804,1.8031,1.8031,1.8031,1.8031,1.8031,1.8031,1.7716,1.7147,1.6828,1.6409,1.5959,1.5639,1.5606,1.5613,1.5716,1.5723,1.5635,1.5613,1.554,1.5362,1.5264,1.5173,1.518,1.4999,1.4824,1.4824,1.4741,1.4734,1.4734,1.4831,1.5006,1.509,1.4824,1.4831,1.509,1.5173,1.5257,1.5431,1.5431,1.5431,1.5431,1.5431,1.5431,1.5431,1.5431,1.5431,1.5431,1.568,1.5839,1.5922,1.6087,1.6079,1.5922,1.5839,1.568,1.5431,1.5431,1.5597,1.5756,1.5839,1.568,1.5431,1.5431,1.5431,1.5431,1.5431,1.5431,1.5431,1.5431,1.5431,1.5431,1.5431,1.5431,1.5431,1.5431,1.5431,1.5431,1.5431,1.5431,1.5347,1.5257,1.4999,1.4999,1.4999,1.4999,1.4999,1.4915,1.4824,1.4573,1.4398,1.4328,1.4243,1.425,1.4166,1.4088,1.3997,1.3137,1.2272,1.21,1.1671,1.9152,1.9002,1.9002,1.8851,1.87,1.87,1.87,1.87,1.8736,1.8638,1.8362,1.8112,1.8031,1.8031,1.8031,1.8031,1.8031,1.8031,1.7951,1.7976,1.7929,1.7564,1.6826,1.6088,1.5708,1.569,1.5818,1.5928,1.5943,1.6155,1.6228,1.5965,1.5928,1.5782,1.557,1.5384,1.5384,1.5354,1.5173,1.5082,1.5082,1.4908,1.4824,1.4824,1.4824,1.4915,1.509,1.509,1.5173,1.5347,1.5347,1.5431,1.5431,1.5431,1.5431,1.5431,1.5431,1.5431,1.5431,1.5431,1.5431,1.5431,1.5431,1.5431,1.5514,1.5514,1.559,1.5514,1.5514,1.5431,1.5431,1.5431,1.5431,1.5431,1.5514,1.5431,1.5431,1.5431,1.5431,1.5431,1.5431,1.5431,1.5431,1.5431,1.5431,1.5431,1.5431,1.5431,1.5431,1.5431,1.5431,1.5347,1.5264,1.4622,1.435,1.4041,1.3789,1.388,1.4139,1.4398,1.4664,1.4741,1.4824,1.4573,1.4146,1.4082,1.4173,1.4082,1.4082,1.4088,1.3743,1.3052,1.2448,1.2015,1.1241,1.9082,1.9002,1.8851,1.8772,1.87,1.8709,1.8612,1.8531,1.8647,1.8477,1.8121,1.8031,1.8031,1.8031,1.8031,1.8031,1.8031,1.8031,1.7789,1.7596,1.7854,1.7621,1.6952,1.6207,1.5899,1.6082,1.6184,1.625,1.625,1.6367,1.6352,1.6257,1.6243,1.6096,1.5833,1.5774,1.5657,1.5467,1.5347,1.534,1.534,1.5257,1.5173,1.5173,1.5173,1.5257,1.5347,1.5347,1.5347,1.5431,1.5431,1.5431,1.5431,1.5431,1.5431,1.5431,1.5431,1.5431,1.5431,1.5431,1.5431,1.5431,1.5431,1.5431,1.5431,1.5431,1.5431,1.5431,1.5431,1.5431,1.5431,1.5431,1.5431,1.5431,1.5431,1.5431,1.5431,1.5431,1.5431,1.5431,1.5431,1.5431,1.5431,1.5431,1.5431,1.5431,1.5431,1.5347,1.5264,1.5264,1.5264,1.5006,1.4734,1.382,1.3121,1.2814,1.2577,1.2589,1.2766,1.3118,1.3633,1.4146,1.4398,1.4566,1.3886,1.3639,1.3984,1.4153,1.4159,1.3652,1.3222,1.2443,1.1671,1.1063,1.0294,1.8843,1.8763,1.8603,1.8531,1.8371,1.8451,1.8362,1.8282,1.8299,1.8308,1.804,1.8031,1.8031,1.8031,1.8031,1.8031,1.8031,1.8031,1.789,1.7689,1.758,1.7383,1.6969,1.6372,1.6199,1.636,1.6513,1.6572,1.6601,1.6696,1.6704,1.6594,1.6572,1.6411,1.6111,1.5957,1.5833,1.5643,1.5518,1.5431,1.5431,1.5431,1.5431,1.5431,1.5431,1.5431,1.5431,1.5431,1.5431,1.5431,1.5431,1.5431,1.5431,1.5431,1.5431,1.5431,1.5431,1.5431,1.5431,1.5431,1.5431,1.5431,1.5431,1.5431,1.5431,1.5431,1.5431,1.5431,1.5431,1.5431,1.5431,1.5431,1.5431,1.5431,1.5431,1.5431,1.5431,1.5431,1.5431,1.5431,1.5431,1.5431,1.5431,1.5431,1.5431,1.5431,1.5431,1.5257,1.4999,1.5006,1.502,1.4776,1.4132,1.3056,1.2342,1.1935,1.1986,1.1912,1.1655,1.2003,1.2431,1.3118,1.3281,1.3451,1.3281,1.3203,1.3288,1.3209,1.2784,1.2443,1.2272,1.1837,1.0977,1.0463,0.9689,1.8531,1.8442,1.8353,1.8201,1.804,1.8031,1.804,1.804,1.804,1.804,1.8031,1.8031,1.8031,1.8031,1.8031,1.8057,1.8108,1.8151,1.8012,1.7806,1.7439,1.7075,1.7062,1.6714,1.6484,1.6587,1.6791,1.6879,1.6945,1.7172,1.715,1.696,1.6901,1.6726,1.6433,1.614,1.5965,1.5833,1.5562,1.5438,1.5431,1.5431,1.5431,1.5431,1.5431,1.5431,1.5431,1.5431,1.5431,1.5431,1.5431,1.5431,1.5431,1.5431,1.5431,1.5431,1.5431,1.5431,1.5431,1.5431,1.5431,1.5431,1.5431,1.5431,1.5431,1.5431,1.5431,1.5431,1.5431,1.5431,1.5431,1.5431,1.5431,1.5431,1.5431,1.5431,1.5431,1.5431,1.5431,1.5431,1.5431,1.5431,1.5431,1.5347,1.5257,1.4999,1.4922,1.458,1.4405,1.4321,1.4446,1.4494,1.3568,1.2372,1.1753,1.123,1.1455,1.1494,1.0977,1.0977,1.1144,1.1569,1.174,1.1912,1.2174,1.2174,1.1918,1.1666,1.1499,1.1408,1.1494,1.089,1.0202,1.012,0.9519,1.8434,1.8362,1.8193,1.804,1.8031,1.8031,1.8031,1.8031,1.8031,1.8031,1.8031,1.8031,1.8031,1.8031,1.8049,1.8186,1.8343,1.8337,1.8397,1.8129,1.7325,1.7091,1.7088,1.6865,1.6887,1.704,1.7172,1.7216,1.726,1.726,1.7296,1.723,1.7165,1.7069,1.6748,1.6404,1.614,1.5913,1.5599,1.5438,1.5431,1.5431,1.5431,1.5431,1.5431,1.5431,1.5431,1.5431,1.5431,1.5431,1.5431,1.5431,1.5431,1.5431,1.5431,1.5431,1.5431,1.5431,1.5431,1.5431,1.5431,1.5431,1.5431,1.5431,1.5431,1.5431,1.5431,1.5431,1.5431,1.5431,1.5431,1.5431,1.5431,1.5431,1.5347,1.5347,1.5431,1.5431,1.5431,1.5431,1.5347,1.5431,1.5347,1.4824,1.4657,1.4573,1.4237,1.3815,1.373,1.3646,1.3587,1.3638,1.2912,1.1809,1.1445,1.1005,1.095,1.0982,1.0549,1.0033,1.0202,1.0458,1.0712,1.1058,1.1408,1.1235,1.0722,1.0977,1.0982,1.089,1.0717,1.0202,0.9777,0.9602,0.9519,1.8201,1.8201,1.8031,1.8031,1.8031,1.8031,1.8031,1.8031,1.8031,1.8031,1.8031,1.8031,1.8031,1.8031,1.7968,1.8074,1.8205,1.812,1.8002,1.783,1.734,1.7165,1.726,1.7186,1.7179,1.7326,1.7326,1.7333,1.7333,1.7333,1.7326,1.7333,1.7333,1.7245,1.7011,1.6608,1.6301,1.6074,1.5665,1.5431,1.5431,1.5431,1.5431,1.5431,1.5431,1.5431,1.5431,1.5431,1.5431,1.5431,1.5431,1.5431,1.5431,1.5431,1.5431,1.5431,1.5431,1.5431,1.5431,1.5431,1.5431,1.5431,1.5431,1.5431,1.5431,1.5431,1.5431,1.5431,1.5431,1.5431,1.5431,1.5431,1.5431,1.5347,1.5082,1.4915,1.4999,1.5173,1.5431,1.5347,1.5082,1.4999,1.4741,1.4314,1.4062,1.3899,1.3815,1.3392,1.296,1.2875,1.2534,1.2386,1.1952,1.1413,1.1139,1.0788,1.0544,1.0467,1.0207,0.9602,0.9257,0.9602,0.9859,1.012,1.0294,0.9946,0.9689,1.0033,1.0207,0.9777,0.9519,0.9345,0.9257,0.9174,0.9003,1.8031,1.8031,1.8031,1.8031,1.8031,1.8031,1.8031,1.8031,1.8031,1.8031,1.8031,1.8031,1.8031,1.7951,1.787,1.7861,1.7872,1.776,1.7765,1.772,1.7457,1.7282,1.7318,1.7304,1.7289,1.7333,1.7333,1.7333,1.7333,1.7333,1.7333,1.7333,1.7333,1.7304,1.7179,1.6711,1.6345,1.625,1.5738,1.5431,1.5431,1.5431,1.5431,1.5431,1.5173,1.5257,1.534,1.5257,1.5257,1.5431,1.5431,1.5431,1.5431,1.5431,1.5431,1.5431,1.5431,1.5431,1.5431,1.5431,1.5431,1.5431,1.5431,1.5431,1.5431,1.5431,1.5431,1.5347,1.5264,1.509,1.509,1.4922,1.4915,1.4915,1.4482,1.4314,1.4314,1.4748,1.4922,1.4922,1.4489,1.4321,1.4068,1.373,1.3476,1.3222,1.3137,1.2966,1.254,1.2198,1.1854,1.1682,1.1338,1.0992,1.0631,1.0544,1.0299,1.0038,0.9777,0.9345,0.874,0.9003,0.9262,0.9003,0.8915,0.8828,0.8915,0.9174,0.9091,0.866,0.8656,0.8915,0.8828,0.8656,0.8572,1.8031,1.8031,1.8031,1.8031,1.8031,1.8031,1.8031,1.8031,1.8031,1.8031,1.8031,1.8031,1.8031,1.787,1.7635,1.7589,1.7762,1.7748,1.7842,1.7764,1.7498,1.7333,1.7333,1.7333,1.7333,1.7333,1.7333,1.7333,1.7333,1.7333,1.7333,1.7333,1.7333,1.7333,1.7165,1.6726,1.6308,1.6111,1.5618,1.5238,1.518,1.518,1.518,1.5173,1.4741,1.4824,1.5082,1.4831,1.4831,1.5347,1.5431,1.5347,1.5264,1.5264,1.5264,1.5347,1.5264,1.5173,1.5257,1.5257,1.5347,1.5431,1.5264,1.5264,1.5347,1.5347,1.518,1.509,1.4748,1.4314,1.3815,1.3899,1.3822,1.373,1.373,1.3561,1.3561,1.3646,1.373,1.3646,1.3561,1.3561,1.3307,1.3052,1.2711,1.2369,1.2198,1.2118,1.186,1.1602,1.1435,1.117,1.0992,1.0559,1.0207,1.012,1.0038,0.9694,0.9432,0.9257,0.8828,0.8656,0.8572,0.8572,0.8572,0.8656,0.8656,0.8572,0.8572,0.8572,0.8572,0.8572,0.8572,0.8572,0.8572,1.8031,1.8031,1.8031,1.8031,1.8031,1.8031,1.8031,1.8031,1.8031,1.8031,1.8031,1.7959,1.7878,1.7716,1.7473,1.7371,1.7422,1.7477,1.7535,1.7561,1.7419,1.7333,1.7333,1.7333,1.7333,1.7333,1.7333,1.7239,1.7333,1.7333,1.7239,1.7333,1.7333,1.7333,1.7051,1.6415,1.5998,1.5779,1.5043,1.4464,1.4426,1.4412,1.4412,1.4243,1.4068,1.4068,1.4153,1.4153,1.3984,1.4243,1.4328,1.4321,1.4405,1.4496,1.4664,1.509,1.4748,1.458,1.4741,1.4573,1.4328,1.4328,1.4412,1.4328,1.4412,1.4328,1.4412,1.4328,1.4237,1.3724,1.3476,1.3313,1.3398,1.3313,1.3137,1.2875,1.279,1.254,1.2454,1.2546,1.2711,1.279,1.279,1.2454,1.1946,1.1602,1.1257,1.1257,1.1262,1.1003,1.0824,1.0738,1.0559,1.0212,0.9864,0.9777,0.9694,0.9349,0.9174,0.8999,0.8828,0.8656,0.8572,0.8572,0.8572,0.8572,0.8572,0.8572,0.8572,0.8572,0.8572,0.8572,0.8572,0.8572,0.8572,1.8031,1.8031,1.8031,1.8031,1.8031,1.8031,1.8031,1.8031,1.8031,1.8031,1.8031,1.7959,1.7797,1.7416,1.7294,1.7091,1.6851,1.6795,1.7007,1.7157,1.7208,1.7238,1.7326,1.7138,1.7037,1.6951,1.6669,1.7044,1.7232,1.7044,1.7044,1.6943,1.6951,1.6857,1.6584,1.5855,1.5413,1.4937,1.4291,1.3665,1.3461,1.3398,1.3398,1.3313,1.33,1.3222,1.3476,1.3307,1.3392,1.3483,1.3483,1.3483,1.3398,1.3313,1.3822,1.4587,1.3906,1.3815,1.3899,1.3815,1.3652,1.3652,1.3483,1.3483,1.3483,1.3568,1.3476,1.3222,1.3222,1.3052,1.2796,1.2881,1.2887,1.2796,1.2454,1.2198,1.2026,1.186,1.1607,1.178,1.1946,1.2112,1.2112,1.2032,1.1607,1.1429,1.1084,1.0987,1.0906,1.0472,1.0299,1.0212,1.0038,0.9777,0.9602,0.9432,0.9345,0.9087,0.9003,0.8828,0.8744,0.8572,0.8572,0.8572,0.8572,0.8572,0.8572,0.8572,0.8572,0.8572,0.8572,0.8572,0.8572,0.8572,0.8572,1.8031,1.8031,1.8031,1.8031,1.8031,1.8031,1.8031,1.8031,1.8031,1.8031,1.7951,1.7951,1.7716,1.7286,1.6797,1.6468,1.6233,1.6374,1.6601,1.6872,1.6923,1.7033,1.7166,1.6567,1.6591,1.649,1.5961,1.619,1.6763,1.6574,1.6386,1.6285,1.5805,1.5432,1.5589,1.5097,1.459,1.4315,1.3844,1.3485,1.3363,1.3228,1.3228,1.3137,1.2881,1.2711,1.2966,1.2796,1.2711,1.3222,1.3313,1.3313,1.3313,1.2796,1.2966,1.3398,1.3476,1.3392,1.3476,1.3228,1.3143,1.3143,1.3228,1.3313,1.3143,1.3143,1.2966,1.2534,1.2534,1.2283,1.1946,1.1693,1.1607,1.1693,1.1693,1.1521,1.1435,1.1607,1.1354,1.1267,1.1607,1.1607,1.1521,1.144,1.1267,1.1176,1.0992,1.0814,1.0549,1.012,0.9689,0.9607,0.9519,0.9345,0.9262,0.9087,0.8999,0.8828,0.8828,0.8744,0.8656,0.8572,0.8572,0.8572,0.8572,0.8572,0.8572,0.8572,0.8572,0.8572,0.8572,0.8572,0.8572,0.8572,0.8572,1.8031,1.8031,1.8031,1.8031,1.8031,1.8031,1.8031,1.8031,1.8031,1.7878,1.7619,1.7334,1.7025,1.6621,1.6187,1.5915,1.5906,1.6052,1.6279,1.6521,1.6594,1.666,1.6733,1.6526,1.6387,1.6394,1.6244,1.6241,1.649,1.5994,1.5622,1.5527,1.5242,1.5146,1.486,1.4456,1.4056,1.3507,1.2851,1.2319,1.2227,1.2203,1.2203,1.2203,1.1946,1.2032,1.2118,1.2032,1.186,1.2203,1.2203,1.2203,1.2203,1.1946,1.1946,1.2118,1.2203,1.2369,1.2711,1.2454,1.2375,1.2289,1.2203,1.2118,1.2203,1.2203,1.2203,1.186,1.1768,1.1602,1.1435,1.1267,1.1267,1.1267,1.1267,1.1267,1.1267,1.1267,1.1267,1.1267,1.1267,1.1267,1.1267,1.1181,1.1089,1.0906,1.0646,1.0294,1.012,0.9781,0.9349,0.9003,0.8915,0.8823,0.8828,0.8744,0.8832,0.8656,0.8656,0.8656,0.8656,0.8572,0.8572,0.8572,0.8572,0.8572,0.8572,0.8572,0.8572,0.8572,0.8572,0.8572,0.8572,0.8572,0.8572,1.7538,1.7375,1.7797,1.8031,1.8031,1.8031,1.8031,1.804,1.7985,1.7814,1.7302,1.6846,1.6363,1.6079,1.5702,1.5577,1.5774,1.5796,1.5987,1.6162,1.6272,1.6411,1.6337,1.6263,1.5901,1.6294,1.5391,1.5219,1.4986,1.4816,1.458,1.4765,1.4382,1.4382,1.4292,1.3849,1.3354,1.2859,1.1949,1.1473,1.144,1.1354,1.1354,1.1354,1.1267,1.1267,1.1267,1.1354,1.1354,1.1354,1.144,1.1521,1.1435,1.1435,1.1435,1.1521,1.1521,1.1693,1.186,1.1774,1.1354,1.1267,1.1267,1.1521,1.144,1.1267,1.1267,1.144,1.1354,1.1354,1.1267,1.1267,1.1267,1.1267,1.1267,1.1267,1.1267,1.1267,1.1267,1.1267,1.1267,1.1267,1.1267,1.1176,1.0911,1.0641,1.0294,0.9946,0.9607,0.9349,0.9091,0.8744,0.8744,0.8656,0.8656,0.8572,0.8572,0.8572,0.8572,0.8572,0.8572,0.8572,0.8572,0.8572,0.8572,0.8572,0.8572,0.8572,0.8572,0.8572,0.8572,0.8572,0.8572,0.8572,0.8572,1.6288,1.5726,1.7294,1.7951,1.787,1.8031,1.7951,1.7708,1.7963,1.7621,1.6886,1.6484,1.5989,1.5914,1.559,1.5362,1.5398,1.546,1.5503,1.5691,1.5965,1.5995,1.5827,1.5198,1.4552,1.4572,1.4226,1.3444,1.2936,1.3518,1.3532,1.3811,1.3607,1.3136,1.3108,1.3041,1.2709,1.2263,1.1564,1.1278,1.1267,1.1267,1.1267,1.1267,1.1267,1.1267,1.1267,1.1267,1.1267,1.1267,1.1267,1.1267,1.1267,1.1267,1.1267,1.1267,1.1267,1.1435,1.1435,1.1435,1.1354,1.1267,1.1267,1.1267,1.1267,1.1267,1.1267,1.1267,1.1267,1.1267,1.1267,1.1267,1.1267,1.1267,1.1267,1.1267,1.1267,1.1267,1.1267,1.1267,1.1267,1.1262,1.1084,1.0992,1.0906,1.0641,1.0033,0.9689,0.9174,0.892,0.8832,0.8656,0.8656,0.8656,0.8656,0.8572,0.8572,0.8572,0.8572,0.8572,0.8572,0.8572,0.8572,0.8572,0.8572,0.8572,0.8572,0.8572,0.8572,0.8572,0.8572,0.8572,0.8572,0.8572,0.8572,1.6206,1.556,1.6706,1.6878,1.6378,1.6386,1.6296,1.6409,1.7433,1.679,1.5004,1.4963,1.5075,1.5075,1.534,1.5173,1.4824,1.4831,1.467,1.4365,1.4446,1.4685,1.4522,1.4302,1.3686,1.3484,1.3189,1.3162,1.3021,1.2879,1.2897,1.2987,1.2844,1.2845,1.2716,1.2474,1.2156,1.1881,1.1553,1.1273,1.1267,1.1267,1.1267,1.1267,1.1267,1.1267,1.1267,1.1267,1.1267,1.1267,1.1267,1.1267,1.1267,1.1267,1.1267,1.1267,1.1267,1.1267,1.1267,1.1267,1.1267,1.1267,1.1267,1.1267,1.1267,1.1267,1.1267,1.1267,1.1267,1.1267,1.1267,1.1267,1.1267,1.1267,1.1267,1.1267,1.1267,1.1262,1.1267,1.1267,1.1262,1.117,1.0992,1.0722,1.0636,1.0549,0.9946,0.9345,0.8915,0.8572,0.8572,0.8572,0.8572,0.8572,0.8572,0.8572,0.8572,0.8572,0.8572,0.8572,0.8572,0.8572,0.8572,0.8572,0.8572,0.8572,0.8572,0.8572,0.8572,0.8572,0.8572,0.8572,0.8572,0.8572,0.8572,1.5372,1.472,1.5213,1.5462,1.5387,1.5311,1.5213,1.5235,1.6141,1.5449,1.3224,1.3782,1.4068,1.4237,1.4489,1.458,1.4153,1.4062,1.3815,1.3665,1.36,1.3496,1.3502,1.3272,1.2825,1.2563,1.2797,1.2886,1.2564,1.2819,1.2699,1.2499,1.2457,1.2533,1.2538,1.2292,1.186,1.1688,1.1488,1.1273,1.1267,1.1267,1.1267,1.1267,1.1267,1.1267,1.1267,1.1267,1.1267,1.1267,1.1267,1.1267,1.1267,1.1267,1.1267,1.1267,1.1267,1.1267,1.1267,1.1267,1.1267,1.1267,1.1267,1.1267,1.1267,1.1267,1.1267,1.1267,1.1267,1.1267,1.1267,1.1267,1.1267,1.1267,1.1267,1.1267,1.1176,1.117,1.1262,1.1267,1.1084,1.0733,1.0727,1.0463,1.012,1.0033,0.9515,0.9087,0.8832,0.8572,0.8572,0.8572,0.8572,0.8572,0.8572,0.8572,0.8572,0.8572,0.8572,0.8572,0.8572,0.8572,0.8572,0.8572,0.8572,0.8572,0.8572,0.8572,0.8572,0.8572,0.8572,0.8572,0.8572,0.8572,0.8572,1.3626,1.2784,1.2869,1.388,1.5054,1.5047,1.4873,1.4538,1.4126,1.3438,1.2741,1.3209,1.3392,1.3476,1.3646,1.3646,1.3476,1.3392,1.3313,1.3137,1.2973,1.2948,1.2778,1.2443,1.2112,1.1602,1.1843,1.2004,1.1882,1.2103,1.2064,1.2129,1.2113,1.2194,1.235,1.2053,1.1815,1.1661,1.1445,1.1289,1.1267,1.1267,1.1267,1.1267,1.1267,1.1267,1.1267,1.1267,1.1267,1.1267,1.1267,1.1267,1.1267,1.1267,1.1267,1.1267,1.1267,1.1267,1.1267,1.1267,1.1267,1.1267,1.1267,1.1267,1.1267,1.1267,1.1267,1.1267,1.1267,1.1267,1.1267,1.1267,1.1267,1.1176,1.1176,1.1089,1.0997,1.0992,1.0997,1.0911,1.0477,1.0125,1.0294,1.0207,0.9777,0.9345,0.8911,0.8652,0.8656,0.8572,0.8572,0.8572,0.8572,0.8572,0.8572,0.8572,0.8572,0.8572,0.8572,0.8572,0.8572,0.8572,0.8572,0.8572,0.8572,0.8572,0.8572,0.8572,0.8572,0.8572,0.8572,0.8572,0.8572,0.8572,0.8572,1.3288,1.2534,1.2948,1.3124,1.3215,1.3288,1.3118,1.279,1.2266,1.1923,1.1929,1.2454,1.2705,1.2875,1.3137,1.3137,1.279,1.2705,1.2625,1.2032,1.2118,1.194,1.1763,1.1763,1.1591,1.1429,1.1451,1.1488,1.1472,1.1612,1.1709,1.1768,1.1817,1.186,1.1892,1.1725,1.165,1.1488,1.13,1.1267,1.1267,1.1267,1.1267,1.1267,1.1267,1.1267,1.1267,1.1267,1.1267,1.1267,1.1267,1.1267,1.1267,1.1267,1.1267,1.1267,1.1267,1.1267,1.1267,1.1267,1.1267,1.1267,1.1267,1.1267,1.1267,1.1267,1.1267,1.1267,1.1267,1.1267,1.1267,1.1267,1.1267,1.0992,1.0906,1.0738,1.0646,1.0641,1.0641,1.0386,1.0038,0.9781,0.9689,0.9602,0.9262,0.917,0.8828,0.874,0.8656,0.8656,0.8572,0.8572,0.8572,0.8572,0.8572,0.8572,0.8572,0.8572,0.8572,0.8572,0.8572,0.8572,0.8572,0.8572,0.8572,0.8572,0.8572,0.8572,0.8572,0.8572,0.8572,0.8572,0.8572,0.8572,0.8572,1.2869,1.2369,1.2699,1.2534,1.1957,1.2118,1.1952,1.1527,1.1354,1.1267,1.1435,1.1854,1.2026,1.2112,1.2369,1.254,1.2026,1.2026,1.194,1.1354,1.1354,1.1348,1.1348,1.1267,1.1348,1.1267,1.1267,1.1278,1.1294,1.1273,1.1451,1.1553,1.158,1.1585,1.1585,1.1548,1.151,1.1305,1.1267,1.1267,1.1267,1.1267,1.1267,1.1267,1.1267,1.1267,1.1267,1.1267,1.1267,1.1267,1.1267,1.1267,1.1267,1.1267,1.1267,1.1267,1.1267,1.1267,1.1267,1.1267,1.1267,1.1267,1.1267,1.1267,1.1267,1.1267,1.1267,1.1267,1.1267,1.1176,1.1084,1.1089,1.0911,1.0641,1.0472,1.0386,1.0212,1.0294,1.0207,0.9951,0.9515,0.9345,0.9174,0.9003,0.8744,0.8828,0.8828,0.874,0.8656,0.8656,0.8572,0.8572,0.8572,0.8572,0.8572,0.8572,0.8572,0.8572,0.8572,0.8572,0.8572,0.8572,0.8572,0.8572,0.8572,0.8572,0.8572,0.8572,0.8572,0.8572,0.8572,0.8572,0.8572,0.8572,0.8572,1.2203,1.2037,1.1957,1.1871,1.1699,1.1699,1.1527,1.1348,1.1267,1.1267,1.1354,1.1348,1.1435,1.1354,1.1348,1.1435,1.1429,1.1435,1.1348,1.1354,1.1267,1.1267,1.1267,1.1267,1.1267,1.1267,1.1267,1.1267,1.1267,1.1267,1.1283,1.1294,1.1326,1.1326,1.1326,1.1321,1.1305,1.1273,1.1267,1.1267,1.1267,1.1267,1.1267,1.1267,1.1267,1.1267,1.1267,1.1267,1.1267,1.1267,1.1267,1.1267,1.1267,1.1267,1.1267,1.1267,1.1267,1.1267,1.1267,1.1267,1.1267,1.1267,1.1176,1.1267,1.1267,1.1267,1.1267,1.1262,1.1176,1.0906,1.0727,1.0641,1.0467,1.0207,1.0125,0.9951,0.9777,0.9777,0.9694,0.9345,0.8907,0.8648,0.874,0.8568,0.83,0.8656,0.8744,0.8744,0.8656,0.8656,0.8572,0.8572,0.8572,0.8572,0.8572,0.8572,0.8572,0.8572,0.8572,0.8572,0.8572,0.8572,0.8572,0.8572,0.8572,0.8572,0.8572,0.8572,0.8572,0.8572,0.8572,0.8572,0.8572,0.8572,0.8572,1.1866,1.1785,1.1613,1.144,1.1435,1.144,1.1348,1.1267,1.1267,1.1267,1.1267,1.1267,1.1267,1.1267,1.1267,1.1267,1.1267,1.1267,1.1267,1.1267,1.1267,1.1267,1.1267,1.1267,1.1267,1.1267,1.1267,1.1267,1.1267,1.1267,1.1267,1.1273,1.1267,1.1267,1.1267,1.1267,1.1267,1.1267,1.1267,1.1267,1.1267,1.1267,1.1267,1.1267,1.1267,1.1267,1.1267,1.1267,1.1267,1.1262,1.1267,1.1267,1.1267,1.1267,1.1267,1.1267,1.1267,1.1267,1.1267,1.1267,1.1181,1.0916,1.0646,1.0824,1.1003,1.1089,1.1089,1.0824,1.0641,1.0284,1.0019,0.985,0.9589,0.9336,0.9161,0.9161,0.8986,0.8899,0.8815,0.8552,0.8116,0.8028,0.812,0.794,0.7764,0.83,0.8568,0.848,0.8568,0.848,0.8572,0.8572,0.8572,0.8572,0.8572,0.8572,0.8572,0.8572,0.8572,0.8572,0.8572,0.8572,0.8572,0.8572,0.8572,0.8572,0.8572,0.8572,0.8572,0.8572,0.8572,0.8572,0.8572,0.8572,0.8572,1.1613,1.1527,1.1354,1.1267,1.1267,1.1267,1.1267,1.1267,1.1267,1.1267,1.1267,1.1267,1.1267,1.1267,1.1267,1.1267,1.1267,1.1267,1.1267,1.1267,1.1267,1.1267,1.1267,1.1267,1.1267,1.1267,1.1267,1.1267,1.1267,1.1267,1.1267,1.1267,1.1267,1.1267,1.1267,1.1267,1.1267,1.1267,1.1267,1.1267,1.1267,1.1267,1.1267,1.1181,1.1181,1.1181,1.1181,1.1176,1.1089,1.0819,1.0733,1.0381,1.0294,1.0125,1.0125,1.0033,1.0033,1.0033,0.9946,1.0033,1.012,1.0033,0.9593,0.9589,0.9767,0.9854,0.9854,0.9763,0.9671,0.9492,0.9231,0.8973,0.854,0.8109,0.8197,0.8197,0.8109,0.8021,0.7845,0.7672,0.7496,0.7404,0.7316,0.7136,0.7136,0.7319,0.7499,0.7411,0.7768,0.8212,0.848,0.8572,0.8572,0.8572,0.8568,0.8392,0.8392,0.848,0.8572,0.8572,0.8572,0.8568,0.848,0.8568,0.8572,0.848,0.8388,0.8568,0.8572,0.848,0.8392,0.848,0.848,0.8572,0.8572,1.1257,1.0997,1.1089,1.0916,1.1089,1.0911,1.0911,1.1089,1.1003,1.1181,1.1267,1.1267,1.1267,1.1267,1.1267,1.1267,1.1267,1.1267,1.1267,1.1267,1.1267,1.1267,1.1267,1.1267,1.1267,1.1267,1.1267,1.1176,1.1089,1.0997,1.0911,1.1089,1.0916,1.0651,1.0559,1.0651,1.0559,1.0472,1.0651,1.0651,1.1003,1.1089,1.1176,1.0911,1.0916,1.0916,1.0911,1.0824,1.0651,1.0028,0.9589,0.9148,0.8978,0.8807,0.8719,0.8807,0.8894,0.889,0.889,0.889,0.8798,0.8623,0.8273,0.8181,0.8269,0.8707,0.8877,0.8794,0.8615,0.8348,0.8089,0.783,0.7482,0.7224,0.7224,0.7224,0.7224,0.7136,0.7136,0.6874,0.6697,0.6609,0.6786,0.6694,0.652,0.652,0.6609,0.6697,0.6877,0.7588,0.7852,0.8124,0.8032,0.7856,0.7944,0.7856,0.8032,0.8212,0.83,0.8124,0.7764,0.8032,0.8392,0.8124,0.7768,0.8032,0.812,0.8032,0.7944,0.7944,0.7944,0.8212,0.83,0.8212,0.83,0.9248,0.9157,0.9157,0.9157,0.9157,0.9157,0.9244,0.9244,0.9712,1.041,1.1181,1.1267,1.1181,1.1089,1.1089,1.1003,1.1089,1.0916,1.1267,1.1089,1.1089,1.0916,1.1176,1.0916,1.1089,1.1267,1.1176,1.0733,1.0386,1.012,0.9859,0.9331,0.9331,0.9506,0.9506,0.9419,0.9506,0.9506,0.9506,0.9772,1.0033,1.0033,1.0033,0.9593,0.9331,0.9419,0.9419,0.9244,0.9157,0.8803,0.8803,0.8627,0.8544,0.8456,0.8456,0.8544,0.8277,0.8101,0.8009,0.7918,0.7826,0.765,0.7295,0.7031,0.7031,0.7643,0.7819,0.7735,0.7559,0.721,0.6946,0.6684,0.6422,0.6337,0.6251,0.6251,0.6251,0.6251,0.634,0.6077,0.5813,0.5899,0.6077,0.6077,0.6077,0.6166,0.634,0.6428,0.6343,0.6697,0.6609,0.6786,0.6874,0.6874,0.7051,0.7231,0.7408,0.7319,0.7231,0.7139,0.7051,0.7231,0.7408,0.7054,0.6874,0.7228,0.7316,0.6962,0.6962,0.7228,0.7319,0.7408,0.7319,0.7143,0.7408,0.8544,0.8544,0.8544,0.8544,0.8544,0.8544,0.8544,0.8544,0.8911,0.9437,1.0038,1.0313,1.0313,1.0125,1.0033,1.0207,1.012,1.0038,0.9859,0.9946,1.0212,0.9946,1.0033,1.0207,0.9946,1.0033,1.0033,0.9685,0.9331,0.9248,0.8894,0.8456,0.8452,0.8364,0.8452,0.8452,0.8364,0.8544,0.8364,0.854,0.889,0.8894,0.9069,0.8544,0.8456,0.8456,0.8544,0.8456,0.8193,0.7753,0.7397,0.7136,0.7048,0.6959,0.7048,0.7136,0.7048,0.7044,0.7041,0.6949,0.6858,0.6505,0.6154,0.5716,0.5625,0.6065,0.6065,0.598,0.598,0.5805,0.5625,0.5272,0.5272,0.5275,0.5186,0.5188,0.5188,0.5188,0.5188,0.5188,0.5013,0.501,0.5099,0.5099,0.5099,0.5099,0.5453,0.5542,0.5542,0.5719,0.563,0.5719,0.5897,0.6251,0.6605,0.6697,0.6694,0.6517,0.6251,0.6428,0.6605,0.6517,0.6428,0.634,0.6254,0.6517,0.6517,0.6251,0.634,0.6694,0.6694,0.6605,0.634,0.6251,0.6428,0.8105,0.8105,0.8105,0.8105,0.8105,0.8105,0.8105,0.8105,0.8105,0.8105,0.8193,0.8744,0.8652,0.864,0.8544,0.8544,0.8632,0.8982,0.8807,0.8719,0.8719,0.8982,0.8894,0.8719,0.8894,0.8894,0.8807,0.8632,0.8364,0.8281,0.8281,0.8193,0.8101,0.8013,0.8101,0.8013,0.7749,0.7573,0.7485,0.7397,0.7573,0.7753,0.8017,0.8105,0.8105,0.8101,0.8101,0.7925,0.7489,0.6959,0.6077,0.5899,0.5813,0.5811,0.5813,0.5813,0.5813,0.5725,0.5547,0.5455,0.5277,0.501,0.4748,0.4659,0.4656,0.4656,0.4656,0.4656,0.4748,0.4746,0.4476,0.4476,0.4476,0.4476,0.4389,0.4389,0.4389,0.4389,0.4389,0.4389,0.4389,0.4389,0.4389,0.43,0.4297,0.4297,0.4297,0.4297,0.4476,0.4743,0.4919,0.5008,0.5275,0.563,0.5985,0.5985,0.5808,0.5719,0.5542,0.5897,0.6074,0.5719,0.563,0.5808,0.5897,0.5808,0.5808,0.5719,0.5897,0.6074,0.5808,0.563,0.563,0.5542,0.5455,0.626,0.626,0.626,0.626,0.626,0.6263,0.6263,0.626,0.626,0.6263,0.6438,0.6526,0.6966,0.8456,0.8544,0.8368,0.8017,0.8193,0.8456,0.8544,0.8105,0.8281,0.8281,0.7929,0.8368,0.8368,0.8105,0.8017,0.7401,0.7312,0.6874,0.6254,0.6166,0.5988,0.5805,0.5894,0.6071,0.616,0.6071,0.5894,0.6071,0.634,0.67,0.6523,0.608,0.5991,0.5902,0.5808,0.563,0.5364,0.5277,0.5191,0.5191,0.5191,0.5191,0.5191,0.5102,0.5015,0.4926,0.4837,0.4746,0.4565,0.4478,0.4478,0.4478,0.4478,0.4389,0.4389,0.4478,0.4478,0.4387,0.4387,0.4387,0.4387,0.4389,0.4389,0.43,0.43,0.43,0.43,0.43,0.43,0.43,0.4297,0.4297,0.4297,0.4297,0.4297,0.4297,0.4297,0.4297,0.4476,0.4743,0.4565,0.4654,0.4919,0.4919,0.4832,0.4832,0.5097,0.5097,0.4743,0.4743,0.5099,0.501,0.4832,0.4832,0.5186,0.5008,0.5008,0.4743,0.4654,0.4743,0.4832,0.4743]}]]